GFSSGP_con_mucape_003.txt.gz
CAPE
0 0 0 0 0 0 8 24 36 27 29 42 0 39 57 204 388 370 286 222 535 848 881 1049 1553 1719 1584 1360 1359 1504 1872 1984 1897 1746 1739 1745 1765 1782 1651 1281 1226 1291 1413 1550 1589 1786 1988 2234 2284
0 0 0 0 0 0 10 1 43 66 9 0 0 18 41 187 410 346 190 190 601 933 1027 1333 1613 1897 1638 1818 1763 1879 1926 2032 1943 1929 2010 2059 1968 1733 1521 1338 1295 1360 1474 1663 1806 1902 2025 1719 1637
0 0 0 0 0 3 9 5 39 1 0 16 0 16 76 144 183 203 140 226 553 823 1179 1567 1666 1965 2216 2297 2071 2062 2161 2346 2393 2270 2105 2192 1848 1334 1148 1128 1078 1177 1273 1286 1219 1120 1392 1825 1600
0 0 0 0 5 0 1 40 13 0 39 39 0 42 247 183 177 215 85 164 327 541 1023 1386 1694 1853 2096 2200 2211 2377 2360 2246 2155 2200 2085 1933 1421 1161 1017 903 964 926 777 816 944 1038 947 898 1021
0 0 0 1 3 5 38 22 7 61 53 16 9 2 233 596 396 190 108 91 143 208 412 1241 1623 1796 1861 1838 1824 1970 2010 1980 1930 1924 1859 1559 1381 1169 830 658 520 346 277 214 295 439 667 970 1192
0 0 8 12 11 18 39 43 32 23 38 1 19 47 388 535 329 268 134 46 11 184 367 434 1265 1672 1627 1632 1565 1603 1550 1404 1373 1482 1360 1208 986 742 521 364 297 222 146 75 25 42 93 152 290
0 2 15 11 16 5 4 2 0 0 0 0 0 34 303 303 323 253 62 0 0 111 323 428 504 794 1187 1132 1234 1401 1365 1187 1097 910 905 896 700 467 259 188 105 52 12 4 0 0 0 1 17
0 0 0 1 0 0 0 0 0 0 4 0 0 0 123 444 336 170 8 0 0 48 355 640 622 534 773 853 790 1019 1138 1057 851 659 527 570 510 287 40 55 24 0 0 0 0 0 0 0 0
0 0 0 0 0 0 0 0 0 0 0 0 0 49 32 589 489 237 72 2 79 213 577 753 773 594 503 245 409 383 625 857 746 682 503 560 797 540 329 39 3 0 0 0 0 0 0 0 0
0 0 0 0 0 0 0 0 0 0 0 0 0 0 263 572 578 316 48 11 236 638 668 1256 1166 897 527 12 246 162 137 651 700 732 809 658 645 550 253 188 110 23 0 0 0 0 0 0 0
0 0 0 0 0 0 0 0 0 0 0 0 0 0 219 386 390 413 286 107 278 693 618 1227 1716 1172 511 117 239 208 160 204 439 760 911 706 699 640 464 388 437 535 135 96 1 8 9 0 0
0 0 0 0 0 0 0 0 0 0 0 0 0 0 171 427 416 372 390 152 331 514 394 1323 1768 1208 765 406 291 282 219 240 221 476 600 606 438 414 383 151 48 13 20 30 36 27 4 0 0
0 0 0 0 0 0 0 0 0 0 0 0 0 0 142 434 499 312 338 211 287 324 509 1059 1684 787 370 578 523 585 559 402 359 296 246 298 285 272 80 16 0 0 1 10 8 1 0 0 0
0 0 0 0 0 0 0 0 0 0 0 0 0 0 11 107 251 194 227 213 207 242 747 1144 1603 835 198 232 563 624 345 154 113 43 39 96 156 132 57 9 0 0 0 0 0 13 0 0 0
0 0 0 0 0 0 0 0 0 0 0 0 0 0 0 18 30 113 247 309 502 453 594 1390 1541 616 110 233 268 75 3 1 3 0 17 23 53 66 67 47 33 15 41 34 45 13 12 1 0
0 0 0 0 0 0 0 3 0 0 0 0 0 0 0 0 10 6 50 223 251 379 591 1108 1263 282 50 100 53 24 30 23 40 29 19 33 62 68 110 72 79 118 144 80 103 33 32 29 17
0 14 0 0 0 0 0 27 0 0 0 0 0 0 0 0 8 57 12 67 250 362 502 846 1161 37 14 91 88 77 50 50 10 8 15 16 13 12 71 82 179 402 226 301 300 227 269 188 123
9 0 0 0 0 0 0 0 0 0 0 0 0 0 0 0 34 219 448 194 199 239 280 680 812 8 41 98 90 19 2 3 0 0 2 7 20 30 61 100 267 276 262 338 381 576 330 384 313
0 0 0 0 0 0 0 0 0 0 0 0 0 0 0 0 132 340 8 18 110 443 356 422 204 113 54 36 0 0 0 0 0 4 0 11 6 0 0 1 67 129 149 320 368 377 385 373 387
0 0 0 0 0 0 0 0 0 0 0 0 0 0 0 0 0 0 0 1 45 465 492 249 78 55 0 0 0 0 0 0 3 7 0 0 0 0 0 0 0 19 13 181 272 373 331 308 377
0 0 0 0 0 0 0 0 0 0 0 0 0 0 0 0 0 0 1 24 51 57 58 32 52 45 0 0 0 0 0 0 0 0 0 0 0 0 0 0 0 0 36 36 210 185 231 167 195
0 0 0 0 0 16 0 119 0 0 0 0 0 0 0 0 0 0 0 0 6 0 0 0 0 0 0 0 0 0 0 0 0 0 0 0 0 0 0 0 0 0 2 46 54 17 132 118 77
0 0 0 0 0 0 0 4 18 0 0 0 0 0 0 0 0 0 0 0 0 0 0 0 0 0 0 0 0 0 0 2 15 0 0 0 0 0 0 0 0 0 0 7 28 52 15 18 46
0 0 0 4 36 39 44 4 203 25 0 0 0 0 0 0 0 0 0 0 0 0 0 0 0 0 0 0 1 5 0 0 0 0 0 0 0 0 0 0 0 11 23 15 30 41 48 20 26
0 3 151 172 116 176 0 0 39 0 0 0 0 0 0 0 0 0 0 0 0 0 0 0 0 1 0 4 0 0 0 0 0 0 0 0 0 0 1 4 12 7 19 44 77 82 27 18 8
0 1 101 0 22 43 0 0 26 0 0 0 0 0 0 0 0 0 0 0 4 0 0 0 3 14 0 0 0 0 0 0 0 0 0 0 0 5 6 13 26 39 44 80 77 49 67 10 17
0 0 0 0 0 0 0 4 1 0 0 0 0 0 3 5 7 1 3 7 0 0 0 0 0 0 0 0 0 0 0 0 0 0 0 0 2 1 11 27 34 68 79 62 61 63 43 71 54
0 0 3 0 0 0 2 0 83 0 2 4 15 18 25 25 30 39 36 30 29 17 7 9 6 10 9 6 0 0 1 2 1 0 0 5 17 29 41 79 61 54 28 12 13 24 51 16 47
2 4 0 0 0 0 0 11 9 1 0 2 4 18 31 51 61 60 43 24 38 42 49 30 32 14 1 13 9 10 0 0 0 4 17 18 15 41 46 35 33 34 12 5 35 14 0 0 50
0 0 0 0 0 0 0 0 2 5 8 10 26 27 25 26 36 39 38 26 30 27 25 32 3 3 4 14 20 0 0 3 9 22 17 23 41 39 44 33 35 37 41 34 41 50 0 0 0

GFSSGP_con_mucape_006.txt.gz
CAPE
0 0 0 0 0 0 0 8 62 24 11 0 0 1 12 94 365 169 145 372 720 690 730 946 1339 1521 1499 1573 1879 1901 1966 1937 1770 1719 1656 1766 1579 1424 1243 1253 1281 1321 1404 1569 1664 1860 1826 1668 1611
0 0 0 0 0 1 0 9 17 0 0 0 0 19 33 39 126 65 151 486 672 926 981 1131 1410 1595 1705 1795 1745 1845 1866 1694 1906 1875 1713 1674 1551 1301 1107 1040 1248 1181 1155 1181 1212 1194 1697 1662 1434
0 0 0 0 0 0 1 1 8 0 3 5 0 65 49 72 35 67 213 548 1017 1208 1143 1365 1502 1585 1874 2005 1992 1882 1869 1988 2004 1991 1859 1543 1196 913 818 887 1099 869 830 904 993 920 803 841 1092
0 0 0 0 0 2 0 28 0 0 9 19 47 74 71 46 46 43 160 356 458 947 1107 1161 1300 1547 1881 2016 2027 2030 1898 1851 1899 1891 1620 1325 1033 787 673 665 452 326 278 368 453 586 765 942 1096
0 0 0 2 8 17 22 2 0 0 4 0 23 118 201 137 74 17 61 122 197 728 997 1116 1160 1404 1576 1610 1511 1630 1610 1604 1574 1448 1238 1079 861 543 395 295 205 126 92 56 31 43 105 200 380
0 0 0 0 7 1 0 0 12 47 19 0 33 101 255 91 35 14 0 0 19 397 674 711 1196 1257 1291 1333 1324 1270 1174 1245 1330 1248 811 828 572 371 280 195 115 44 21 8 0 0 0 11 43
2 2 0 0 1 8 10 12 0 1 4 2 3 145 191 145 78 0 0 0 21 79 74 285 490 702 889 896 1011 1029 1050 1005 844 798 766 637 485 333 172 88 29 0 0 0 0 0 0 0 0
0 0 0 0 0 3 0 0 0 1 3 0 0 49 104 207 85 0 0 0 0 202 301 434 472 441 434 510 743 935 945 822 696 555 507 554 409 292 153 113 2 0 0 0 0 0 0 0 0
0 0 0 0 0 0 0 0 0 0 0 0 0 0 191 189 87 0 0 0 0 190 574 557 482 618 884 383 445 713 850 776 639 606 427 354 489 321 190 30 18 0 0 0 0 0 0 0 0
0 0 0 0 0 0 0 0 0 0 0 0 0 155 467 313 213 31 0 0 6 422 506 1119 831 750 244 47 300 780 473 656 747 751 778 782 672 561 191 224 113 81 20 1 0 0 0 0 0
0 0 0 0 0 0 0 0 0 0 0 0 0 16 460 462 322 65 0 0 110 501 572 1309 1395 1039 624 390 399 401 398 427 1020 1147 729 814 580 706 623 565 360 149 80 136 0 1 0 0 0
0 0 0 0 0 0 0 0 0 0 0 0 0 0 332 259 166 163 40 9 151 389 351 1394 1251 1127 743 754 403 548 506 313 482 495 695 698 540 563 243 122 0 0 1 0 5 0 0 0 0
0 0 0 0 0 0 0 0 0 0 0 0 0 1 223 263 261 245 256 207 175 315 380 1037 1108 1064 1310 636 1191 1048 731 656 468 576 489 377 322 377 236 80 18 5 0 0 0 0 0 0 0
0 0 0 0 0 0 0 0 0 0 0 0 0 1 108 309 382 346 365 281 143 239 786 1399 1253 984 676 785 790 1104 666 588 657 183 37 125 174 213 159 58 56 23 15 13 1 0 0 0 0
0 0 0 0 0 0 0 0 0 0 0 0 0 0 1 161 183 251 226 366 338 136 562 1267 1208 607 475 587 638 573 28 3 65 63 53 52 84 106 158 102 89 95 113 79 47 61 19 26 3
0 0 0 0 0 0 0 0 0 0 0 0 0 0 0 30 73 198 283 276 115 379 304 425 1047 651 346 517 48 74 116 103 73 134 123 52 62 92 141 130 147 162 239 125 123 95 63 41 24
0 0 5 0 0 0 0 0 0 0 0 0 0 0 0 0 59 73 148 251 297 157 476 931 652 364 134 249 91 79 87 80 53 10 66 24 14 115 95 81 140 187 157 130 166 128 121 137 120
0 1 0 0 0 0 0 0 0 0 0 0 0 0 1 0 12 119 42 118 302 364 316 872 583 9 21 157 103 14 15 26 52 40 6 0 23 8 29 14 72 209 147 80 120 199 95 89 85
0 0 0 3 0 0 0 0 0 0 0 0 0 0 0 17 275 251 360 265 352 550 272 179 262 150 73 95 6 0 0 0 6 3 0 0 2 0 0 0 0 0 0 2 13 2 0 2 51
0 0 0 0 0 0 0 0 0 0 0 0 0 0 52 105 111 146 127 311 625 391 222 128 62 44 46 25 3 0 0 0 0 6 0 0 0 0 0 0 0 0 0 0 0 17 0 0 0
0 0 0 0 0 0 0 3 0 0 0 0 0 0 0 0 0 4 40 53 107 159 112 72 49 53 62 43 3 0 0 0 0 0 0 0 0 0 0 0 0 0 0 0 0 0 0 0 0
0 0 0 0 0 3 5 22 2 0 0 1 0 0 0 0 0 0 0 0 0 1 2 11 4 1 3 2 0 0 0 0 0 0 0 0 0 0 0 0 0 0 0 0 0 0 0 0 0
0 0 0 0 0 0 17 89 109 11 1 0 0 0 0 0 0 0 0 0 0 0 5 0 0 0 0 0 0 0 0 0 0 0 0 0 0 0 0 0 0 0 0 0 4 4 11 1 2
0 0 0 1 19 339 31 101 41 4 0 0 0 0 0 0 0 0 0 0 0 0 0 0 0 0 0 0 0 1 0 0 0 0 0 0 0 0 0 0 0 1 8 13 28 16 18 16 12
0 17 406 598 622 434 40 21 75 8 11 1 0 0 0 0 7 8 4 1 0 0 0 0 0 0 0 6 1 0 1 0 0 0 0 0 0 0 0 0 1 9 27 32 22 24 13 10 2
0 0 436 43 180 152 0 1 0 0 0 0 0 0 0 2 0 0 0 0 0 0 0 10 0 0 0 0 0 1 0 0 0 0 0 0 0 0 0 2 1 2 0 0 0 3 24 19 17
2 0 0 0 2 6 1 70 5 0 0 0 0 0 2 13 8 0 14 31 22 17 24 14 12 2 3 18 1 0 0 1 12 1 0 0 0 0 0 0 0 0 0 2 3 14 23 15 12
0 0 0 122 6 0 0 17 25 8 1 0 0 1 2 35 26 33 23 20 17 10 9 41 24 11 33 11 5 10 11 12 0 0 2 0 0 0 0 1 0 6 4 14 10 1 8 12 14
0 4 0 0 0 0 0 0 0 8 0 0 0 1 19 11 32 29 5 0 0 0 0 2 5 21 25 14 11 1 0 0 1 1 0 0 0 0 0 0 2 10 20 23 20 0 11 0 0
0 0 0 0 0 26 9 0 0 4 0 0 2 6 9 1 0 0 1 5 9 13 1 5 9 8 5 2 3 0 6 0 0 0 0 0 0 10 17 37 31 42 42 47 31 42 54 42 30

GFSSGP_con_mucape_009.txt.gz
CAPE
0 0 0 0 0 1 33 22 39 37 75 49 19 70 65 102 33 77 525 564 505 612 739 898 977 1164 1440 1543 1575 1607 1546 1564 1558 1598 1609 1367 1103 992 856 841 966 983 991 1080 1069 1312 1517 1470 1369
0 0 0 0 0 0 10 5 4 0 1 41 22 3 6 48 106 396 504 477 671 678 829 915 1023 1213 1376 1428 1503 1530 1597 1639 1742 1715 1410 1207 958 743 676 772 1036 760 692 763 766 775 738 791 887
0 0 0 0 0 0 0 31 16 0 3 24 29 0 0 45 129 348 675 875 862 941 1032 1064 1083 1336 1475 1486 1518 1594 1647 1729 1750 1669 961 935 727 633 666 504 604 311 309 366 453 510 608 751 902
0 0 0 0 2 55 6 8 11 13 1 3 0 0 0 43 210 510 835 930 760 912 1094 1191 1280 1349 1483 1576 1574 1491 1486 1486 1559 1381 1097 856 639 528 344 204 102 56 39 36 28 21 44 142 293
0 0 0 16 27 1 15 27 11 4 8 39 32 48 57 78 140 282 608 617 681 789 916 1040 1102 1190 1348 1467 1408 1332 1299 1287 1259 1205 1119 727 434 264 180 102 46 8 0 0 0 0 0 0 61
0 0 3 1 3 5 9 0 13 15 7 134 94 97 101 15 45 88 256 414 568 665 672 796 867 857 941 1029 974 897 983 1076 1049 976 938 567 399 296 139 57 8 0 0 0 0 0 0 0 0
1 0 0 0 1 4 0 30 11 1 14 141 106 83 46 2 0 0 64 394 326 428 397 463 516 572 517 554 558 595 696 710 734 718 756 560 396 319 212 78 0 0 0 0 0 0 0 0 0
11 2 0 0 0 4 0 0 0 0 1 9 112 122 95 74 0 0 0 30 53 74 113 134 112 145 155 352 429 461 488 419 322 397 477 337 268 190 248 88 36 0 0 0 0 0 0 0 0
0 0 8 0 0 0 0 0 0 0 0 44 11 138 168 117 0 0 0 4 81 155 177 190 231 355 40 73 364 454 522 428 282 314 299 278 261 163 99 102 77 8 0 0 0 0 0 0 0
0 1 0 0 0 1 0 0 0 0 0 129 169 200 214 104 0 0 0 0 138 167 235 230 289 437 69 20 100 98 206 346 334 449 381 400 304 367 139 149 116 23 16 16 12 1 0 0 0
0 0 0 0 0 0 0 0 0 0 0 72 286 271 251 223 0 0 0 0 142 240 379 383 63 37 102 97 129 188 228 361 484 465 182 263 120 329 101 231 126 49 49 20 33 0 0 0 0
0 0 0 0 0 0 0 0 0 0 0 0 427 468 361 193 62 0 0 0 196 307 635 478 255 78 38 7 85 177 171 163 554 343 323 150 82 27 8 0 0 0 22 51 29 0 0 0 0
0 0 0 0 0 0 0 0 0 0 0 0 235 418 346 229 200 48 18 77 193 480 895 635 228 172 118 291 187 193 160 106 71 166 43 21 50 1 0 0 0 0 0 0 0 0 0 0 0
0 0 0 0 0 0 0 0 0 0 0 0 7 278 215 201 200 189 88 152 137 442 1004 617 364 405 200 346 348 258 167 38 132 3 2 2 0 13 4 0 1 0 8 17 0 0 0 1 0
0 0 0 0 0 0 0 0 0 0 0 0 0 194 136 192 263 295 193 210 95 355 820 328 509 570 288 379 300 362 115 0 0 0 0 0 0 0 0 9 4 3 14 44 34 27 22 10 0
0 0 0 0 0 0 0 0 0 0 0 0 0 0 87 260 256 339 230 263 132 837 724 385 178 445 173 249 119 8 2 0 3 1 0 0 0 0 0 0 0 0 4 10 8 25 51 48 33
0 0 0 0 0 0 0 0 0 0 0 0 0 0 0 2 80 246 208 177 139 713 805 454 217 435 220 122 17 14 18 4 2 0 0 0 0 0 0 0 0 0 0 0 0 0 0 0 0
0 1 0 2 0 0 0 0 0 0 0 0 0 0 0 0 46 168 153 129 112 228 440 313 329 192 66 21 64 26 33 0 0 0 0 0 0 1 0 0 0 0 0 0 0 0 0 0 0
0 0 0 0 0 0 0 0 0 0 0 0 25 69 25 31 3 7 36 98 246 626 393 229 83 42 51 111 68 38 31 3 0 0 0 11 14 0 0 0 0 0 0 0 0 0 0 0 0
0 0 0 0 0 0 0 0 0 0 0 0 0 34 80 159 122 112 134 178 190 172 141 83 66 53 49 51 45 37 21 5 1 0 0 0 0 0 0 0 0 0 0 0 0 0 0 0 0
0 0 0 0 0 0 0 0 0 0 0 0 0 0 0 19 92 188 182 140 263 192 116 114 92 57 44 43 38 20 21 2 0 0 0 0 0 0 0 0 0 0 0 0 0 0 0 0 0
0 0 0 0 0 0 0 0 0 0 0 0 0 0 0 0 0 11 60 14 23 13 7 0 1 4 0 0 0 0 0 0 0 0 0 0 0 0 0 0 0 0 0 0 0 0 0 0 0
0 0 0 0 0 0 0 4 18 1 0 0 1 0 0 0 0 0 0 0 0 0 0 0 0 0 0 0 0 0 0 0 0 0 0 0 0 0 0 0 0 0 0 0 0 0 0 0 6
0 0 0 2 0 9 40 33 0 3 1 0 0 0 0 0 0 0 0 0 0 0 0 0 0 0 0 0 0 0 0 0 0 0 0 0 0 2 2 0 0 0 0 0 0 1 5 14 18
0 0 37 37 42 30 57 25 20 24 1 0 2 3 0 0 0 0 0 0 0 0 0 0 0 0 0 0 0 0 0 3 7 9 7 0 6 8 0 0 0 0 0 0 1 9 13 12 22
0 0 0 1 0 11 2 0 0 15 14 15 6 0 0 0 0 0 1 0 8 4 0 0 0 0 0 0 0 0 0 3 14 5 3 1 0 0 0 0 0 0 0 0 0 3 4 21 14
0 0 0 0 0 0 0 0 6 16 20 11 0 0 0 1 0 0 0 0 1 4 3 0 0 0 2 14 18 25 39 34 21 23 15 1 0 0 0 0 0 0 0 3 11 9 4 1 0
0 0 0 0 0 0 0 8 1 1 0 0 0 0 1 9 5 0 2 18 13 2 0 0 0 4 0 0 13 40 57 44 28 16 0 0 0 0 0 0 0 0 1 7 21 7 0 1 2
0 0 0 0 0 0 0 0 19 11 1 0 1 0 0 1 3 0 1 4 0 3 2 0 0 0 0 0 2 4 2 0 0 0 0 0 0 0 0 0 1 11 25 34 43 45 33 38 27
0 0 0 0 0 0 0 0 0 0 6 0 0 0 0 0 1 4 0 0 2 0 0 0 0 0 0 0 0 0 0 0 0 0 0 0 0 0 0 0 0 0 0 0 0 4 4 3 5

GFSSGP_con_mucape_012.txt.gz
CAPE
0 0 0 0 0 0 3 3 18 33 32 69 65 56 94 117 92 128 460 446 613 633 637 725 994 1223 1352 1372 1359 1359 1391 1241 1101 1047 981 834 669 539 581 666 677 626 573 565 651 681 694 653 664
0 0 0 0 0 0 9 50 45 13 17 24 37 35 139 414 450 522 416 535 574 622 617 737 1049 1218 1363 1390 1390 1384 1383 1230 1189 1081 909 699 491 502 468 433 446 338 285 330 435 469 564 583 652
0 0 0 0 1 0 19 57 6 1 0 0 5 0 64 457 469 505 417 549 575 626 705 875 950 1083 1234 1310 1410 1469 1525 1503 1248 996 808 565 496 370 237 165 95 68 57 45 37 40 49 91 139
0 0 0 0 0 0 0 30 7 0 0 2 7 45 171 326 545 632 782 707 680 775 817 996 1044 1131 1265 1330 1327 1361 1346 1244 1021 1046 669 526 370 194 101 46 18 2 0 0 0 0 0 0 14
0 0 0 1 54 36 40 74 2 4 25 10 0 9 104 627 797 804 673 644 659 875 979 1042 1082 1215 1295 1327 1212 1218 1201 1104 1120 1053 796 376 223 111 59 20 0 0 0 0 0 0 0 0 0
0 0 18 21 18 9 0 1 0 34 17 4 17 102 194 741 888 720 585 648 795 936 1100 1043 1003 1014 1025 1042 958 899 881 943 975 947 754 329 193 142 34 7 0 0 0 0 0 0 0 0 0
0 0 0 25 16 1 0 0 0 80 89 57 52 86 24 481 499 351 523 647 757 761 674 613 634 667 561 501 492 605 786 750 788 808 667 443 284 253 100 32 0 0 0 0 0 0 0 0 0
0 5 8 23 6 0 0 0 0 81 124 66 98 57 0 37 190 281 363 363 453 395 349 277 296 243 251 298 354 383 380 353 497 523 360 229 122 197 217 103 53 0 0 0 0 0 0 0 0
0 0 0 0 2 12 0 1 0 22 188 113 112 78 6 9 99 130 47 119 59 67 59 52 53 25 92 140 257 379 355 240 184 289 252 181 157 51 55 57 41 13 0 0 0 2 0 0 0
0 0 0 0 0 0 5 2 0 7 80 115 102 86 47 0 0 40 62 112 153 152 113 183 127 8 5 51 196 92 134 185 201 222 287 249 205 254 125 119 92 100 5 24 43 53 43 5 0
0 0 0 0 0 0 1 0 0 19 90 149 115 145 141 21 0 9 109 181 219 231 207 229 223 34 7 28 15 118 164 242 268 409 414 290 249 292 307 159 51 22 0 18 15 23 0 0 0
0 0 0 0 0 0 0 0 0 0 55 131 142 202 169 133 0 0 0 191 224 297 239 261 378 116 40 77 37 104 181 344 450 466 299 39 21 8 0 0 0 0 0 0 0 0 0 0 0
0 0 0 0 0 0 0 0 0 0 55 212 201 243 221 54 0 0 0 0 238 340 368 233 91 80 49 110 162 211 206 344 531 262 54 18 13 0 0 0 0 0 0 0 0 0 0 0 0
0 0 0 0 0 0 0 0 0 0 226 286 308 358 258 110 22 17 28 28 232 521 495 458 141 142 219 231 211 220 148 126 117 81 17 0 1 0 0 0 0 0 0 0 0 0 0 0 0
0 0 0 0 0 0 0 0 0 0 57 442 478 484 294 197 198 230 151 69 149 688 652 532 295 292 100 349 339 134 74 65 72 6 19 5 0 0 0 0 0 0 0 0 0 0 0 0 0
0 0 0 4 0 0 0 0 0 0 0 279 461 464 361 271 264 331 218 144 496 846 743 387 82 241 342 403 286 317 35 0 0 4 8 4 3 2 0 0 0 0 0 0 0 0 0 0 0
0 0 1 1 0 0 0 0 0 0 0 0 50 234 247 201 286 360 331 290 635 973 772 425 61 245 155 229 102 14 10 11 7 0 0 2 17 25 20 5 3 0 0 0 0 0 0 0 0
0 0 0 0 0 0 0 0 0 0 0 0 0 0 0 0 178 338 356 541 726 925 639 401 354 208 84 186 40 14 21 27 16 0 0 0 4 17 24 27 19 0 0 0 0 0 0 0 0
0 0 1 0 0 0 0 0 0 0 0 0 0 0 0 6 71 225 119 426 906 694 428 301 227 90 35 50 38 38 55 29 11 3 7 1 8 0 0 0 0 0 0 0 0 0 0 0 0
3 1 0 0 0 0 0 0 0 4 1 0 0 6 5 17 92 121 231 484 418 300 89 67 95 78 50 38 37 56 43 32 20 15 10 0 0 0 0 0 0 0 0 0 0 0 0 0 0
0 0 0 0 3 0 0 0 0 0 0 2 25 73 92 89 106 132 118 60 85 54 13 0 0 0 22 41 48 68 45 5 9 0 0 2 0 0 0 0 0 0 0 0 0 0 0 0 0
0 0 0 0 0 0 0 0 0 0 0 0 0 1 41 67 79 49 30 19 9 0 0 0 0 0 0 0 0 0 0 0 0 0 0 0 0 0 0 0 2 4 2 0 0 0 0 0 0
0 0 0 0 0 0 0 0 0 0 0 0 0 0 0 0 0 0 0 0 0 0 0 0 0 0 0 0 0 0 0 0 0 0 0 0 2 4 9 10 10 7 0 0 0 0 0 0 5
0 0 0 0 0 0 0 0 0 0 0 1 1 1 0 0 0 0 0 0 0 0 0 0 0 0 0 0 0 0 0 0 0 4 5 10 3 4 8 0 0 0 0 0 0 0 0 4 22
0 0 0 31 24 15 11 0 0 1 3 5 11 0 0 0 0 0 0 0 0 0 0 0 0 0 0 0 0 0 0 0 9 10 25 45 13 9 3 0 0 0 0 0 0 0 0 0 4
0 0 4 10 29 5 0 0 0 1 4 13 0 0 0 0 0 0 0 0 0 0 0 0 0 0 0 0 0 0 7 17 31 14 15 7 1 0 0 0 0 0 0 0 0 0 0 1 0
0 0 0 0 0 0 0 0 0 0 0 0 2 0 1 3 0 0 0 0 0 7 7 1 10 2 0 0 0 0 11 3 10 0 0 0 0 0 0 0 0 0 0 0 4 6 0 0 0
0 0 0 0 0 0 0 0 0 0 0 0 0 0 0 1 0 0 0 1 0 5 6 15 24 23 10 0 0 0 0 0 0 0 0 4 0 0 3 0 0 0 0 0 2 4 0 6 10
0 0 0 0 0 0 0 0 0 0 0 1 0 0 0 1 0 2 5 3 9 10 11 4 0 0 0 0 0 0 0 3 9 11 18 9 0 3 0 0 0 0 0 0 0 0 0 0 0
0 0 0 0 0 0 0 0 0 7 16 17 7 1 5 1 1 8 14 22 15 11 2 0 0 0 0 0 0 8 32 51 39 43 12 2 17 2 0 2 0 0 0 0 0 0 0 0 0

GFSSGP_con_mucape_015.txt.gz
CAPE
0 0 0 0 0 0 0 0 20 37 27 85 81 84 141 238 136 124 355 397 509 495 574 720 935 1076 1101 1155 1163 1226 1080 931 878 820 740 588 491 496 454 364 284 210 219 235 281 311 333 333 389
0 0 0 0 0 0 0 44 45 67 41 28 52 106 231 431 551 463 480 587 522 507 568 780 1030 1180 1254 1253 1304 1320 1177 1021 929 836 659 503 458 319 244 198 191 109 62 36 22 17 10 11 19
0 0 0 0 0 0 0 45 45 48 30 22 13 29 172 567 487 489 511 601 557 516 666 917 1028 1135 1286 1321 1362 1308 1307 1201 955 776 557 494 305 195 90 74 46 18 5 0 0 0 0 0 0
0 0 0 0 0 0 9 17 51 13 15 41 20 88 244 465 505 463 583 582 525 644 758 811 886 1037 1260 1349 1410 1367 1233 931 915 808 539 398 209 54 31 15 1 0 0 0 0 0 0 0 0
0 0 0 0 12 8 2 46 67 66 39 38 29 166 317 814 585 660 697 647 655 685 748 791 867 1011 1154 1236 1173 1201 1005 899 949 814 622 315 176 70 27 4 0 0 0 0 0 0 0 0 0
0 0 0 0 0 20 27 28 83 89 51 46 149 299 488 873 769 748 653 611 761 886 880 885 940 964 1016 1083 1017 937 866 900 905 833 598 333 228 135 41 6 0 0 0 0 0 0 0 0 0
0 0 1 64 49 55 39 41 106 61 83 143 189 316 690 851 723 729 687 921 1016 1152 818 902 939 877 809 668 623 575 624 705 749 731 603 433 292 200 111 56 0 0 0 0 0 0 0 0 0
0 0 11 3 33 23 8 2 112 142 188 95 121 179 578 982 824 580 639 795 911 882 741 613 551 454 329 312 353 414 439 447 558 555 338 103 57 89 124 47 31 0 0 0 0 0 0 0 0
0 2 46 37 23 0 0 0 189 201 128 114 80 74 629 565 462 540 599 568 510 366 266 192 204 128 73 71 142 318 350 312 351 300 158 78 18 37 73 55 32 56 5 6 24 64 47 20 0
0 0 8 18 8 3 0 0 147 177 146 69 36 80 477 154 273 174 127 104 105 74 68 23 14 11 11 56 82 30 85 48 152 219 155 174 155 174 95 65 95 143 173 130 128 157 119 82 3
0 0 0 0 1 0 0 0 3 106 89 65 28 60 161 197 18 0 0 0 0 1 10 6 0 0 1 2 13 6 82 98 175 238 262 251 242 209 201 163 34 10 2 0 4 2 13 0 0
0 0 0 0 10 2 0 0 0 0 73 99 60 75 127 116 28 16 16 39 38 99 121 81 15 0 0 15 22 67 102 194 261 342 259 79 48 4 0 0 0 0 0 0 0 0 0 0 0
0 0 0 0 12 0 0 0 0 0 105 101 77 137 125 56 11 26 98 179 203 242 258 216 162 34 6 86 60 112 172 344 417 380 241 48 13 0 0 0 0 0 0 0 0 0 0 0 0
0 0 0 0 0 0 0 0 0 0 149 105 127 176 160 87 0 0 120 234 326 357 350 355 322 102 59 78 111 106 226 304 532 336 70 0 2 0 0 0 0 0 0 0 0 0 0 0 0
0 0 0 0 0 0 0 0 0 12 194 170 182 214 176 71 43 47 131 251 351 393 406 366 322 62 49 178 180 220 212 133 260 179 1 0 0 0 0 0 0 0 0 0 0 0 0 0 0
0 0 0 0 0 0 0 0 0 25 244 244 236 243 265 137 122 247 234 131 248 452 403 303 124 48 211 200 225 134 78 42 83 36 0 1 4 12 0 0 0 0 0 0 2 0 0 0 0
0 3 5 0 0 0 0 0 0 0 322 286 314 341 345 265 200 279 306 181 274 643 448 187 149 3 141 180 110 97 53 10 12 0 4 10 28 20 25 6 3 5 1 0 0 0 0 0 0
0 5 3 0 0 0 0 0 0 0 20 78 268 324 380 361 385 342 342 262 419 582 503 166 91 91 36 28 10 69 42 15 22 14 25 12 18 4 5 24 1 0 0 0 0 0 0 0 0
0 0 0 0 0 0 0 0 0 0 0 0 0 0 43 47 74 278 426 455 453 643 482 209 149 79 56 12 47 41 40 57 45 35 34 0 34 18 0 0 0 0 0 0 0 0 0 0 0
2 0 10 0 0 0 0 0 0 0 0 0 0 47 236 274 186 415 689 747 659 315 178 121 114 77 75 93 66 56 44 32 25 8 25 5 0 0 0 0 0 0 0 0 0 0 0 0 0
0 0 0 0 0 0 0 0 0 0 0 0 0 22 49 86 175 253 167 134 60 23 10 7 15 56 92 75 41 23 19 2 0 0 0 0 0 0 0 0 0 0 0 0 0 0 0 0 0
0 0 0 0 0 0 0 0 0 0 0 19 33 56 72 66 37 8 2 0 0 0 0 0 0 0 0 0 0 0 0 0 0 0 0 0 0 0 1 4 4 0 1 8 7 0 0 0 0
0 0 0 0 0 0 0 0 0 0 0 0 0 1 1 0 0 0 0 0 0 0 0 0 0 0 0 0 0 0 0 0 0 0 1 6 10 6 14 0 5 21 0 0 0 0 0 0 0
0 0 0 0 0 0 0 0 0 0 0 1 2 0 0 0 0 0 0 0 0 0 0 0 0 0 0 0 0 0 0 0 1 5 3 7 3 3 0 0 0 0 0 0 0 0 0 0 0
0 0 3 10 16 15 0 0 0 0 0 0 1 0 0 4 0 0 0 0 0 0 0 0 0 0 0 0 0 0 0 0 0 1 1 4 0 0 0 0 0 0 0 0 0 0 0 0 0
0 0 0 6 10 0 0 0 0 0 0 0 0 0 0 23 7 21 1 0 0 0 0 0 0 0 0 0 0 0 0 0 0 0 0 0 0 0 0 0 0 1 1 0 0 0 0 0 0
0 0 0 0 0 0 0 0 0 0 0 0 0 4 13 17 3 0 0 0 0 0 0 0 0 0 0 0 0 0 0 0 0 0 0 0 0 5 5 6 5 1 0 0 0 0 0 0 1
0 0 0 0 0 0 0 0 0 0 0 0 0 1 0 0 0 0 0 0 1 1 2 7 9 12 2 0 0 0 0 0 0 0 0 7 16 28 6 11 5 3 1 0 0 0 0 0 0
0 0 0 0 0 0 0 0 0 0 0 0 0 0 0 0 1 1 4 6 19 5 7 12 0 0 0 0 0 0 0 0 0 0 0 15 32 38 11 14 0 0 1 0 0 0 0 0 0
0 0 0 0 0 0 0 0 0 0 0 0 2 1 0 2 10 15 27 17 1 4 2 0 0 0 0 0 0 0 0 0 0 0 0 10 10 2 17 6 9 0 0 0 0 0 0 0 0

GFSSGP_con_mucape_018.txt.gz
CAPE
0 0 0 0 0 0 0 0 33 52 111 110 110 133 147 216 53 119 409 477 523 618 680 673 813 1010 1050 955 1039 1151 961 814 737 665 500 432 340 222 155 147 314 94 24 14 11 3 1 3 1
0 0 0 0 0 0 0 1 113 58 59 72 71 81 105 110 468 380 547 651 461 577 645 716 872 1018 1086 1099 1201 1181 994 864 766 593 457 353 204 101 74 47 169 34 0 0 0 0 0 0 0
0 0 0 0 0 0 0 92 73 42 11 7 22 1 35 236 626 431 710 602 522 558 734 860 977 1038 1165 1228 1229 1209 1151 1009 800 571 457 267 120 25 34 18 78 3 0 0 0 0 0 0 0
0 0 0 0 0 0 5 72 59 38 14 1 0 4 4 298 403 515 675 564 522 671 719 874 944 1059 1238 1267 1211 1227 1085 931 805 686 403 186 35 0 5 5 10 0 0 0 0 0 0 0 0
0 0 0 0 0 0 3 38 5 52 30 55 17 4 125 563 587 741 666 564 528 612 725 838 900 1054 1220 1300 1306 1149 872 872 805 739 577 220 43 10 0 0 0 0 0 0 0 0 0 0 0
0 0 0 0 9 5 47 77 96 102 77 49 126 177 346 658 718 807 679 614 649 672 701 756 813 906 1021 1150 1104 882 781 850 791 720 595 274 196 99 0 0 0 0 0 0 0 0 0 0 1
0 1 0 18 47 52 73 95 66 60 121 106 259 350 628 606 876 805 688 608 775 764 815 715 771 810 861 842 773 657 686 722 718 652 566 410 231 132 80 29 0 0 0 6 18 8 15 4 8
0 0 0 15 44 25 44 86 82 24 93 212 199 463 427 589 1039 973 1075 1379 1243 1125 1334 1064 784 788 695 589 523 425 459 516 562 569 415 150 85 44 34 4 22 4 13 52 54 121 97 60 40
0 0 0 9 3 53 10 0 113 106 145 72 100 363 583 746 857 938 778 1488 1210 1021 923 839 784 564 289 157 243 395 425 402 430 421 205 16 1 3 11 10 9 78 140 100 150 210 145 93 19
0 0 16 21 47 49 0 0 91 201 120 72 110 438 938 823 608 954 786 714 785 715 585 421 258 72 6 25 100 66 98 105 131 126 116 91 80 89 25 29 37 100 84 59 43 16 5 0 0
0 0 22 31 23 5 15 21 225 201 134 63 190 881 1158 699 495 386 303 300 273 262 137 24 3 0 0 0 2 0 11 137 179 247 219 208 180 162 163 119 1 0 0 0 0 0 0 0 0
0 0 0 0 5 12 21 80 210 194 48 77 470 1021 594 359 259 174 55 28 0 0 0 0 0 0 0 0 0 6 40 99 269 336 339 234 130 20 26 0 0 0 0 0 0 0 0 0 0
0 0 0 2 3 17 11 3 9 57 51 62 417 586 140 115 32 0 0 0 0 0 7 0 0 0 0 0 2 38 145 224 372 403 323 112 42 3 0 0 0 0 0 0 0 0 0 0 0
0 0 0 13 16 39 0 0 0 0 144 69 243 276 108 93 9 6 1 0 11 57 135 114 18 0 1 11 34 72 164 365 517 533 359 117 30 9 0 0 0 0 0 0 0 0 0 0 0
0 0 0 0 0 1 0 0 0 3 173 72 138 169 127 111 60 120 112 68 107 220 239 283 178 50 8 23 88 107 157 227 460 608 282 41 11 8 0 4 0 0 0 0 0 0 0 0 0
0 0 0 0 0 0 0 0 0 104 138 56 115 149 151 153 141 225 228 105 181 327 388 326 280 257 37 43 107 98 116 70 163 229 67 17 5 12 21 27 19 19 6 11 0 0 0 0 0
0 0 0 0 0 0 0 0 0 88 149 135 147 164 179 195 170 188 314 272 192 292 433 372 75 68 16 84 111 34 0 54 13 12 32 32 20 8 12 22 20 10 3 2 0 0 0 0 0
0 1 0 0 0 0 0 0 0 0 236 219 221 261 284 326 278 173 236 175 177 377 458 308 140 66 53 118 87 33 44 16 14 29 44 42 3 4 6 3 8 0 0 0 0 0 0 0 0
0 0 0 0 0 0 0 0 0 0 44 160 297 395 405 446 423 339 265 212 237 378 430 226 140 115 78 32 56 10 20 35 13 0 3 0 0 0 0 0 0 0 0 0 0 0 0 0 0
0 0 0 0 0 0 0 0 0 0 0 0 0 4 34 208 416 492 460 379 421 325 217 131 86 54 45 56 16 4 7 0 0 0 0 0 0 0 0 0 0 0 0 0 0 4 1 0 0
0 0 0 0 0 0 0 0 0 0 1 64 209 211 269 392 314 307 82 14 2 3 13 54 7 5 8 0 0 0 0 0 0 0 0 0 0 0 0 0 0 1 0 0 1 0 0 0 0
0 0 0 0 0 0 0 0 0 0 3 26 45 58 64 59 6 0 0 0 0 0 0 0 0 0 0 0 0 0 0 0 0 0 0 0 0 0 0 2 3 2 0 0 0 0 0 0 0
0 0 0 0 0 0 0 0 0 0 0 1 4 10 2 0 0 0 1 0 0 0 0 0 0 0 0 0 0 0 0 0 0 0 0 0 1 2 3 0 0 0 0 0 0 0 0 0 0
0 0 0 0 0 0 0 0 0 0 2 0 0 0 0 0 0 0 0 0 0 0 0 0 0 0 0 0 0 0 0 0 0 0 0 1 0 0 0 0 0 0 0 0 0 0 0 0 0
0 0 0 0 0 0 0 0 0 0 0 0 0 0 0 0 0 0 0 1 3 0 0 0 0 0 0 0 0 0 0 0 0 0 0 0 0 0 0 0 0 6 12 4 2 1 1 0 0
0 0 0 0 0 0 0 0 0 0 0 0 0 0 0 0 0 3 5 0 0 0 0 0 0 0 0 2 0 0 0 0 0 0 0 0 0 0 0 0 1 6 0 3 0 0 0 0 0
0 0 0 0 0 0 0 0 0 0 0 0 0 0 0 0 0 0 0 0 0 0 0 0 7 0 2 0 0 0 0 0 0 0 0 0 0 0 0 5 9 2 0 0 0 0 0 0 0
0 0 0 0 0 0 0 0 0 0 0 0 0 0 0 0 0 0 0 0 0 0 0 8 7 0 0 0 0 0 0 0 0 0 0 0 0 0 6 10 0 13 15 0 0 0 0 0 0
0 0 0 0 0 0 0 0 0 0 0 0 0 0 0 0 0 0 2 7 12 7 6 0 0 1 0 0 0 0 0 0 0 0 0 0 0 0 8 15 18 20 11 5 0 0 0 0 0
0 0 0 0 0 0 0 0 0 0 0 0 0 0 0 2 4 8 18 28 36 39 54 32 6 1 0 0 0 0 0 0 0 0 0 0 0 0 0 4 8 8 2 0 0 0 0 0 0

GFSSGP_con_mucape_021.txt.gz
CAPE
0 0 0 0 0 0 0 0 0 134 149 110 146 123 85 150 153 178 407 438 763 997 1019 611 720 1026 951 985 1102 1070 908 649 566 431 370 286 179 119 122 231 231 84 0 0 0 0 0 0 0
0 0 0 0 0 0 0 6 178 195 62 72 87 78 87 57 403 549 551 680 741 1012 1015 649 726 1067 1078 1193 1230 1136 887 693 546 422 334 175 83 70 49 50 136 47 0 0 0 0 0 0 0
0 0 0 0 0 0 0 125 170 38 75 65 17 15 94 9 301 515 793 762 821 980 927 747 805 1064 1223 1305 1279 1154 1019 876 691 538 250 92 14 18 17 41 49 14 0 0 0 0 0 0 0
0 0 0 0 0 0 0 155 116 78 42 4 0 0 112 330 458 565 818 799 875 927 972 781 965 1128 1352 1394 1375 1202 1034 845 712 600 330 28 0 0 0 36 44 1 0 0 0 0 0 0 0
0 0 0 0 0 0 0 211 93 70 54 10 3 0 305 601 836 923 699 791 829 983 1039 1058 985 1021 1310 1507 1376 1139 943 817 769 678 484 184 0 0 0 52 49 0 0 0 0 0 0 2 13
0 0 0 0 0 4 12 102 104 68 49 46 46 220 424 941 970 826 737 832 880 933 1149 1240 953 1133 1261 1321 1150 834 840 817 792 704 552 212 98 107 6 0 5 0 0 0 0 0 0 12 13
0 0 0 2 5 54 92 134 115 101 75 93 111 300 860 986 914 970 834 886 904 970 1133 1131 1177 1086 1026 1033 867 652 740 716 669 623 539 372 190 147 120 95 12 0 115 76 39 15 40 39 30
0 0 20 2 31 54 112 69 15 36 98 182 193 480 828 892 987 1000 905 892 1035 993 811 807 1008 1000 1084 1034 733 587 560 541 520 516 330 126 63 78 77 0 85 103 76 78 114 165 113 44 14
0 0 10 13 38 38 68 54 37 85 157 206 94 537 588 1286 909 872 799 740 947 1034 1434 1069 805 869 785 745 638 451 497 461 435 412 119 32 80 118 125 28 75 137 161 139 113 72 48 0 0
0 12 0 0 90 71 13 0 0 150 182 102 269 901 864 1421 1356 1255 1108 1202 1150 1214 1247 1105 782 670 360 284 448 365 294 285 345 345 361 155 169 142 88 67 31 29 0 0 0 0 0 0 0
0 0 0 35 70 84 27 11 78 220 195 132 309 1320 1383 1492 1295 716 1095 715 688 1021 803 693 507 240 150 137 204 96 153 194 242 319 326 318 293 344 356 253 12 0 0 0 0 0 0 0 0
0 0 0 19 21 66 34 28 154 242 180 121 437 958 1205 1294 638 575 658 661 476 552 523 243 110 56 2 2 28 32 110 203 363 483 536 540 351 185 163 0 0 0 0 0 0 0 0 0 0
0 0 0 0 10 53 72 73 263 285 80 195 676 1107 1126 877 696 525 343 197 198 167 110 63 0 0 0 1 29 46 117 292 410 444 352 126 35 4 0 0 0 0 0 0 0 0 0 0 0
0 0 0 0 16 62 54 87 0 145 140 423 920 973 831 535 351 154 1 0 1 5 55 35 0 0 6 30 15 66 118 176 278 386 449 229 55 12 0 0 0 1 0 3 4 1 0 0 0
0 0 0 0 13 54 58 0 0 1 157 309 693 675 548 196 110 25 12 0 8 66 107 103 83 2 11 41 72 71 9 0 9 135 203 142 17 8 0 8 18 13 16 9 4 5 0 1 0
0 0 0 0 0 40 0 0 0 52 141 107 502 486 277 173 165 126 100 51 127 212 255 218 105 117 34 83 71 102 11 2 0 55 93 49 13 11 26 21 1 4 3 1 4 1 0 0 0
0 0 0 0 0 0 0 0 0 71 133 71 191 275 254 215 175 167 177 160 276 296 236 244 209 133 121 24 1 88 85 45 91 12 0 11 23 23 12 9 2 2 0 0 0 0 0 0 0
0 0 0 0 0 0 0 0 0 30 159 103 67 159 173 179 184 195 172 161 137 174 236 318 143 75 67 79 77 53 36 42 63 54 5 2 0 0 0 0 0 0 0 0 0 0 0 0 0
0 0 0 0 0 0 0 0 0 0 230 206 171 133 155 182 240 249 223 211 174 232 285 334 182 53 32 44 6 8 26 45 53 3 0 0 0 0 0 0 0 0 0 0 0 0 0 0 0
0 0 0 0 0 0 0 0 0 0 22 124 142 255 308 321 298 239 207 231 232 286 367 280 92 46 3 0 2 13 2 0 0 0 0 0 0 0 0 0 0 0 1 1 0 0 0 0 0
0 4 2 0 0 0 0 0 0 0 2 4 8 33 142 337 372 289 303 267 259 238 152 90 1 0 0 0 0 0 0 0 0 0 0 0 0 0 0 0 0 0 0 0 0 0 0 0 0
14 0 0 0 0 2 0 0 0 4 86 164 211 335 248 238 36 12 0 0 2 23 26 0 0 0 0 0 0 0 0 0 0 0 0 0 0 0 0 0 0 0 0 0 0 0 0 0 0
6 5 0 0 0 0 0 0 0 0 91 143 59 39 8 20 0 0 0 0 0 0 0 0 0 0 0 0 0 0 0 0 0 0 0 0 0 0 0 0 0 0 0 0 0 0 0 0 0
0 0 0 0 0 0 0 0 0 0 0 5 0 0 0 0 3 2 2 0 0 0 0 0 0 0 0 0 0 0 0 0 0 0 0 0 0 0 0 0 0 0 0 2 8 1 0 0 0
0 0 0 5 0 0 0 0 0 0 0 0 0 0 0 0 0 0 0 0 0 0 0 0 0 0 0 0 0 0 0 0 0 0 0 0 0 0 0 0 0 3 8 6 0 0 0 0 0
0 0 10 0 0 0 0 0 0 0 0 0 0 0 0 0 0 0 3 0 0 0 0 0 0 0 0 1 1 0 0 0 0 0 0 0 0 0 0 0 0 11 4 2 0 0 8 17 28
0 0 0 0 0 0 0 0 0 0 0 0 0 0 0 0 0 0 0 0 0 0 0 0 0 0 2 5 0 0 0 0 0 0 0 0 0 0 0 0 0 8 0 0 1 3 41 42 30
0 0 0 0 0 0 0 0 0 0 0 0 0 0 0 0 0 0 0 0 0 0 2 8 8 12 13 1 0 0 0 0 0 0 0 0 0 0 0 0 3 9 3 6 5 7 20 12 13
0 0 0 0 0 0 0 0 0 0 0 0 0 0 0 0 0 0 0 0 0 4 15 27 26 10 8 2 0 0 0 0 0 0 0 0 0 0 0 0 0 2 8 4 17 0 0 0 0
0 0 0 0 0 0 0 0 0 0 0 0 0 0 0 0 0 0 0 2 13 19 26 19 19 27 0 0 0 0 0 0 0 0 0 0 0 0 0 0 0 5 1 36 0 0 0 0 0

GFSSGP_con_mucape_024.txt.gz
CAPE
0 0 0 0 0 0 0 0 347 563 517 98 135 166 274 338 403 372 596 626 871 757 453 440 829 849 906 985 1042 1063 717 560 438 393 278 158 142 124 92 216 158 5 0 0 0 0 0 0 0
0 0 0 0 0 0 3 0 1 501 231 219 181 79 41 20 305 607 631 820 866 882 690 540 758 943 1122 1243 1216 1138 747 547 426 313 150 125 109 37 12 14 42 1 0 0 0 0 0 0 0
0 0 0 0 0 0 7 320 402 180 143 178 174 76 72 86 202 148 696 867 1094 1066 878 789 783 902 1096 1221 1269 1170 983 729 632 413 92 62 26 2 0 13 40 6 0 0 0 0 0 0 0
0 0 0 0 0 0 5 432 377 218 118 30 16 72 87 15 26 8 705 873 908 1133 1021 583 764 955 1114 1350 1248 1252 968 766 679 490 232 0 0 0 0 81 178 7 0 0 0 0 0 0 0
0 0 0 0 0 0 0 495 544 358 192 53 4 59 294 591 242 276 897 720 441 890 1013 955 795 687 984 1224 1330 1131 928 817 760 567 350 146 0 0 0 61 175 4 0 0 0 0 0 0 0
0 0 0 0 1 0 0 504 496 270 82 85 97 121 924 1113 950 1090 1021 622 353 1188 1106 1058 655 652 847 1435 1134 905 835 862 800 631 451 85 48 63 0 0 0 0 0 0 0 0 34 39 0
0 0 0 0 83 142 127 491 414 75 173 192 299 226 1158 1176 1266 1134 1254 815 904 1186 1243 1035 828 742 997 936 707 712 748 764 693 629 494 296 244 241 112 24 0 5 36 50 72 76 73 29 13
0 0 0 32 203 265 475 315 171 40 179 361 507 328 1045 1289 1310 1057 983 1063 1108 1218 1242 1098 1118 1086 1042 1068 605 626 587 550 564 516 265 140 132 122 31 123 122 114 69 130 157 94 34 0 0
0 0 0 99 228 204 148 98 38 155 364 218 205 801 1178 1338 1475 1233 1006 1064 1263 1129 1059 1037 1047 1022 988 814 745 481 542 482 452 328 150 84 300 322 189 49 105 106 22 31 34 10 0 0 0
0 0 0 63 266 326 151 18 33 314 479 250 947 1294 1579 1537 1388 1430 1388 1214 1090 1024 928 900 1196 943 934 462 409 193 104 245 525 542 541 518 663 576 239 140 19 0 0 0 0 0 0 0 0
0 0 1 0 275 131 17 4 34 122 548 396 821 1470 1426 1370 1632 1348 1307 1150 954 1038 1217 1104 1026 842 396 246 90 27 145 540 738 857 901 954 901 987 751 205 21 32 0 2 0 0 0 0 0
0 0 5 17 198 91 70 88 120 193 261 307 843 1512 1592 1361 1512 1643 1465 1478 1427 1173 762 683 590 429 262 35 1 171 528 736 801 1042 1161 1132 1085 974 707 48 42 65 14 13 0 0 0 0 0
0 0 0 20 9 237 123 114 264 296 250 616 1488 1578 1562 1473 886 655 657 562 527 518 438 336 257 210 175 186 384 637 736 815 918 1064 950 851 589 490 181 121 16 3 5 3 0 0 0 0 0
0 0 0 1 48 64 108 105 215 185 547 1225 1504 1464 1424 1115 615 413 353 304 252 199 367 309 166 128 247 429 608 671 467 192 216 373 176 178 188 318 186 24 2 3 3 10 5 0 0 0 0
0 0 0 0 3 83 91 17 0 46 422 1073 1248 1302 1153 736 532 302 125 91 109 162 425 485 332 259 420 488 358 118 42 44 38 79 39 60 78 58 10 10 15 4 3 0 0 0 0 0 0
0 0 0 0 5 54 34 1 0 65 299 818 1077 984 831 501 347 232 168 37 90 348 651 635 344 233 508 406 107 39 19 22 28 64 76 46 6 6 19 8 2 0 0 0 0 0 0 0 0
0 0 0 0 3 34 14 0 1 145 314 532 792 589 547 377 382 384 191 291 503 707 799 700 635 360 40 56 62 41 6 43 54 86 83 64 5 0 0 0 0 0 0 0 0 0 0 0 0
0 1 0 0 0 0 0 47 4 235 361 379 462 508 524 544 474 312 385 541 738 867 789 672 495 157 26 8 38 14 22 25 17 42 31 5 0 0 0 0 0 0 0 0 0 0 0 0 0
0 0 0 0 0 85 67 64 16 176 390 405 420 513 547 507 402 413 535 635 757 752 632 646 306 536 228 164 45 8 0 3 0 0 0 0 0 0 0 0 0 0 0 0 0 0 0 0 1
1 0 14 0 0 91 153 186 64 41 261 435 517 541 583 515 477 429 677 707 520 564 601 634 727 757 439 78 4 3 14 4 0 0 0 0 0 0 0 0 0 0 0 0 0 0 0 0 5
51 69 33 31 9 85 177 227 183 55 56 90 238 474 531 533 556 629 741 798 693 645 924 866 725 456 0 0 0 5 3 0 0 0 0 0 0 0 0 0 0 0 0 0 1 2 0 0 0
91 5 27 53 93 124 32 187 322 245 224 228 276 443 413 605 726 718 764 814 932 768 684 75 2 0 0 0 0 0 0 2 0 0 0 0 0 0 0 0 0 0 0 2 6 0 0 0 0
70 8 72 22 92 91 70 107 320 283 351 417 605 687 764 553 372 178 128 141 154 178 9 0 0 0 0 0 0 0 0 0 0 0 0 0 0 0 0 0 0 7 20 11 0 0 3 0 1
5 41 43 39 58 109 68 69 98 345 346 495 493 366 448 127 0 1 2 0 0 0 0 0 0 0 0 0 0 0 0 0 0 0 0 0 0 3 12 23 29 26 14 2 2 15 1 16 9
74 131 98 161 122 65 5 14 0 12 131 471 309 157 69 0 0 0 0 0 0 0 0 0 0 0 0 0 1 2 0 0 0 0 0 0 0 0 0 0 1 14 33 6 56 45 58 53 40
56 74 33 0 6 3 0 12 34 0 0 233 155 18 0 0 0 0 0 0 0 0 0 0 0 0 0 6 5 14 0 0 0 0 0 0 0 0 0 0 1 25 47 50 67 83 63 61 45
0 0 3 22 0 5 0 5 3 0 0 93 126 1 0 0 0 0 0 0 0 0 0 0 0 0 3 9 21 4 16 0 0 0 0 0 0 0 0 0 5 29 60 81 86 90 72 76 57
0 0 0 3 0 0 0 0 0 0 0 8 80 0 0 0 0 0 0 0 0 0 0 0 0 2 4 6 9 34 3 0 0 0 0 0 0 0 0 0 0 13 47 79 81 69 70 57 63
0 0 0 0 0 0 0 0 0 0 0 0 39 1 0 0 0 0 0 0 0 0 0 1 0 2 0 5 5 1 0 0 0 0 0 0 0 0 0 2 4 16 43 49 67 72 86 53 32
0 0 0 0 0 0 0 0 0 0 0 0 19 5 0 0 0 0 0 0 0 0 2 2 2 4 7 0 0 0 0 0 0 0 0 0 1 2 3 9 15 26 38 61 63 63 6 15 32

GFSSGP_con_mucape_027.txt.gz
CAPE
0 0 0 0 0 0 0 23 231 654 441 422 472 446 454 609 860 752 704 663 721 351 173 291 750 887 906 821 860 934 599 480 389 281 199 233 170 114 66 150 113 0 0 0 0 0 0 0 0
0 0 0 0 0 5 47 51 8 656 261 144 148 152 156 453 856 767 534 718 806 375 212 248 746 1000 1120 1067 1044 917 550 404 308 198 189 146 84 25 0 0 89 2 0 0 0 0 0 0 0
0 0 0 0 0 9 122 544 644 568 441 290 166 47 102 118 261 666 704 731 700 357 284 396 740 965 1100 986 1020 980 706 626 460 303 131 60 0 0 0 16 168 26 0 0 0 0 0 0 0
0 0 0 0 4 27 53 570 327 386 285 153 170 28 73 13 25 290 883 893 802 698 552 418 679 821 1011 909 924 941 761 645 488 321 131 0 0 0 0 216 181 8 0 0 0 0 0 0 0
0 0 0 0 8 16 0 436 373 360 156 126 110 44 0 0 0 107 1042 973 801 444 642 568 511 562 728 1066 950 759 753 680 560 376 216 46 4 14 29 167 108 0 0 0 0 0 0 0 0
0 0 0 21 51 16 0 330 199 208 30 39 176 397 757 451 159 25 426 642 439 524 454 620 570 623 853 1112 878 708 720 716 595 416 229 19 32 89 19 10 18 13 21 12 0 41 53 19 0
0 0 0 22 74 156 34 348 180 188 79 190 13 108 987 1074 711 851 744 65 64 171 444 687 672 624 649 629 596 594 648 619 600 524 349 232 284 295 105 36 42 62 87 124 109 66 0 0 0
0 0 0 15 102 262 228 516 448 343 38 9 188 322 405 1220 1205 915 749 36 122 223 807 859 830 865 837 684 535 520 499 506 526 303 201 164 151 125 83 257 147 162 140 111 107 52 0 0 0
0 0 0 31 284 265 475 443 204 80 23 4 130 637 1088 1455 1280 1051 683 264 408 594 859 697 672 821 891 657 474 457 553 497 324 111 96 57 233 247 195 85 116 57 0 26 27 0 0 6 0
0 0 3 41 346 8 237 195 105 17 1 286 658 1134 1557 1611 1329 1019 887 709 794 891 895 687 948 963 799 317 185 32 24 136 347 318 355 549 510 628 216 76 63 0 0 1 0 0 0 12 0
0 0 1 9 298 129 21 8 2 79 164 376 1209 1713 1654 1511 1278 1125 1004 875 802 895 780 723 811 703 407 255 63 1 152 450 656 747 834 854 683 697 661 365 152 177 24 127 31 29 11 0 0
0 1 0 4 249 55 0 3 17 1 0 145 1167 1869 1816 1698 1442 1336 1243 1225 1126 812 755 714 549 444 196 6 2 54 450 629 845 951 997 859 729 972 656 258 88 156 70 64 37 33 0 0 0
0 4 0 24 87 8 43 16 24 47 138 608 1600 1793 1615 1265 861 894 730 744 756 422 380 333 285 174 39 37 176 611 691 1059 992 1015 971 908 737 1056 419 480 186 143 61 51 42 40 9 0 0
1 0 0 0 35 190 78 38 43 266 288 705 1181 1088 872 456 381 342 314 374 373 365 269 220 64 50 157 500 594 699 437 243 248 306 394 526 384 748 299 194 38 173 61 57 10 0 0 0 0
0 0 0 0 1 17 16 1 2 204 457 769 679 648 512 335 215 219 261 264 271 326 323 305 236 459 637 593 253 192 157 117 111 161 216 180 88 103 22 8 36 57 15 0 0 0 0 0 0
0 0 2 0 0 70 101 18 35 184 277 388 447 556 464 407 262 120 89 171 199 474 503 509 364 581 784 249 13 32 56 120 75 87 13 29 25 14 11 3 14 0 0 0 0 0 0 0 0
0 0 1 0 0 16 64 9 69 190 213 522 625 664 659 531 414 346 179 100 187 617 886 669 532 661 230 46 30 46 74 68 9 39 33 51 19 0 0 0 0 0 0 0 0 2 0 3 1
0 1 5 8 4 82 13 28 37 199 204 469 682 697 683 580 590 579 353 341 375 770 1014 849 713 338 139 135 22 22 0 14 31 18 4 0 0 0 0 0 0 0 0 0 1 0 0 0 0
3 2 5 12 29 3 0 37 58 241 242 350 461 632 768 833 882 729 704 783 974 1143 953 998 666 405 472 325 161 39 11 2 0 0 0 0 0 0 0 0 0 0 0 0 0 0 0 0 0
0 0 24 4 1 54 7 22 109 262 319 365 395 540 650 831 956 805 915 990 1165 1005 908 907 689 623 659 463 397 155 90 29 0 0 0 0 0 0 0 0 0 0 0 0 0 0 0 0 0
12 21 33 45 48 31 107 175 231 209 445 511 542 551 620 817 1012 937 1122 882 756 686 790 840 810 967 696 122 48 84 71 0 0 0 0 0 0 0 0 0 0 0 0 0 0 1 6 0 3
39 67 56 102 109 73 90 60 123 336 285 363 562 753 844 942 1012 1147 1219 942 703 838 825 870 674 324 22 2 25 34 38 46 31 9 0 0 0 0 0 0 0 0 1 3 6 4 7 15 0
44 65 143 156 145 19 162 112 54 436 383 322 423 528 708 772 974 1077 1095 1161 991 784 764 455 67 8 1 0 2 19 2 0 0 0 0 0 0 0 0 0 5 7 5 9 12 16 24 34 32
109 179 175 201 140 159 88 116 206 496 406 475 584 753 864 911 632 479 482 493 609 617 30 2 1 0 0 0 0 0 0 0 0 0 0 0 0 0 0 0 0 0 1 18 21 36 54 56 45
134 194 266 181 202 199 133 125 85 44 220 480 754 803 838 421 80 28 10 19 59 2 0 0 0 0 0 0 0 0 2 9 12 0 0 0 0 0 0 0 0 0 0 3 30 44 87 60 64
156 174 249 89 98 109 135 11 87 114 61 285 676 629 642 182 0 0 0 0 0 0 0 0 0 0 0 0 0 0 2 8 1 0 0 0 0 0 0 0 0 0 2 15 46 64 46 78 100
117 66 122 173 165 49 0 0 168 50 33 256 568 501 418 89 0 0 0 0 0 0 0 0 1 0 0 0 0 0 15 18 10 0 0 0 0 0 0 0 0 0 0 20 68 74 57 82 97
43 30 33 6 0 6 44 8 98 114 9 130 495 375 285 65 0 0 0 0 0 0 1 1 0 0 0 0 0 2 12 0 0 0 0 0 0 0 0 0 0 1 7 19 49 55 75 82 102
55 0 0 20 74 26 0 20 0 0 3 30 270 344 243 97 12 0 0 0 0 0 2 0 0 0 0 0 0 8 0 0 0 0 0 0 0 0 1 0 1 9 16 23 43 55 56 83 90
7 28 16 0 0 0 29 2 0 0 0 0 42 203 180 97 26 2 0 0 0 0 0 0 0 0 2 1 0 3 0 0 0 0 0 0 0 2 2 0 5 12 19 17 37 38 29 2 19

GFSSGP_con_mucape_030.txt.gz
CAPE
0 0 0 0 0 0 0 0 496 577 558 464 386 381 725 729 875 662 568 394 129 64 118 257 568 721 803 965 924 817 615 351 202 270 333 284 242 155 176 109 16 2 0 0 0 0 0 0 0
0 0 0 0 0 0 0 257 531 497 569 343 291 298 435 702 912 817 677 521 272 82 88 231 656 820 956 1005 866 648 485 251 319 268 202 210 83 0 0 176 50 38 0 0 0 0 0 0 0
0 0 0 0 0 0 0 512 834 311 237 351 123 139 97 337 806 754 814 655 246 78 132 427 609 712 777 974 815 629 507 377 297 232 104 0 0 26 32 161 95 69 0 0 0 0 0 0 0
0 0 0 0 0 0 112 587 130 497 565 327 139 24 0 0 314 791 913 709 335 126 338 471 374 429 772 956 842 715 504 363 257 199 154 5 45 80 123 257 221 19 0 0 0 0 0 54 14
0 0 0 0 0 0 0 535 386 309 303 131 22 17 0 0 363 842 836 814 422 300 288 344 238 387 847 965 843 687 541 398 287 216 177 169 81 117 164 297 218 60 19 20 5 1 0 76 68
0 0 0 0 0 0 2 219 526 261 87 86 34 111 123 11 125 793 735 558 373 272 190 251 346 561 784 848 744 646 539 417 303 219 222 175 192 252 254 246 240 227 122 54 50 21 15 6 13
0 0 0 0 0 29 118 438 311 88 153 120 141 172 907 330 158 714 587 418 209 189 140 165 359 581 548 533 532 527 507 450 353 313 273 275 265 236 277 320 279 217 186 182 76 47 0 0 0
0 0 0 0 0 162 215 571 254 105 148 133 56 81 543 754 861 672 211 50 40 5 125 254 334 517 398 352 389 395 412 339 218 187 162 126 118 176 248 248 244 114 87 73 45 2 0 0 0
0 0 0 0 1 371 204 185 144 226 43 197 0 128 686 1311 1029 443 149 68 24 62 118 129 330 558 353 309 383 441 459 260 128 92 105 60 71 31 183 85 82 2 0 5 0 0 0 46 8
0 0 1 124 346 79 34 0 56 152 131 49 386 1173 1442 1316 1018 343 40 53 1 86 211 343 558 648 361 67 136 122 90 7 10 16 240 315 566 176 154 77 57 0 0 0 6 0 0 27 0
0 0 1 138 113 54 28 32 31 42 45 23 257 1078 1372 1023 959 647 270 179 110 245 404 521 392 447 227 115 60 36 205 405 471 627 768 658 866 667 303 241 24 32 2 76 5 49 14 1 0
0 0 0 21 176 182 76 17 0 0 0 0 7 415 1393 1110 908 865 755 715 699 627 574 609 497 506 171 124 12 23 498 523 921 814 826 812 687 669 527 119 166 85 28 61 66 62 41 6 0
0 1 0 1 97 54 86 17 0 0 72 107 500 949 1306 1027 1173 1145 978 912 606 481 578 346 357 292 182 328 534 617 796 877 978 809 590 698 511 509 459 146 26 10 6 22 34 1 0 0 0
0 13 0 0 79 33 120 36 16 25 172 857 1292 873 632 433 267 373 674 459 322 269 309 262 194 240 322 715 685 509 418 423 379 237 413 563 359 277 97 61 0 2 1 8 2 0 0 0 0
16 0 0 0 1 51 29 13 0 245 423 778 585 423 164 195 130 153 276 287 293 201 180 180 111 295 567 500 306 186 48 57 70 143 206 141 54 9 5 2 4 2 0 0 0 0 0 0 0
0 0 0 0 1 27 72 64 20 272 283 268 245 181 111 70 77 173 250 220 236 195 254 192 245 549 367 134 33 6 3 38 19 11 0 2 7 0 0 2 0 0 0 0 0 0 0 0 0
0 0 0 0 0 36 12 4 4 85 249 302 353 238 225 154 66 55 108 98 272 313 417 566 691 415 205 77 69 63 89 0 0 0 0 4 3 2 0 0 0 0 0 0 0 0 0 0 0
0 0 0 0 0 0 52 4 0 50 256 377 375 417 513 254 206 149 74 96 278 628 573 541 746 447 256 105 83 61 2 0 0 0 3 0 0 0 0 0 0 0 0 0 0 0 0 0 0
0 0 7 0 0 0 43 24 0 14 96 489 462 506 451 353 455 403 331 364 700 1030 704 598 536 314 203 143 131 35 0 0 0 0 0 0 0 0 0 0 0 0 0 0 0 0 0 0 0
1 2 16 0 2 0 1 18 0 26 68 244 401 486 625 560 748 734 654 867 1305 993 669 487 547 303 366 416 186 69 4 0 0 0 0 0 0 0 0 0 0 0 0 0 0 0 0 0 0
0 5 15 4 0 0 0 0 18 43 83 91 186 343 485 693 1002 829 859 1108 1100 1043 863 548 487 449 508 484 209 58 9 0 0 0 0 0 0 0 0 0 0 0 0 0 0 0 0 0 0
7 16 2 17 8 7 33 36 96 64 109 185 221 246 379 547 1060 838 1019 1070 921 886 839 760 722 712 637 350 30 10 0 0 1 1 0 0 0 0 0 0 0 0 0 0 0 0 0 0 0
1 2 49 26 39 130 50 0 58 41 41 230 445 655 629 709 910 942 1130 851 625 793 875 1027 924 657 71 8 17 8 6 3 1 0 0 2 0 0 0 0 0 0 0 0 0 1 0 1 0
87 81 105 49 68 78 17 40 22 27 13 191 329 555 669 845 775 852 1050 803 933 845 966 727 558 14 0 0 2 2 0 0 0 2 11 12 3 0 0 0 0 0 0 0 0 2 18 2 0
3 38 234 122 178 280 119 79 117 46 55 76 343 431 671 663 828 817 787 810 631 595 365 80 0 0 0 0 0 0 0 0 0 2 2 5 3 0 0 0 0 0 0 0 0 7 1 5 8
65 5 188 28 0 231 52 65 86 77 49 458 631 722 806 686 494 412 372 332 467 116 5 0 0 0 0 0 0 0 0 0 0 1 15 0 0 0 0 0 0 0 0 0 0 21 30 20 9
63 62 24 31 314 522 5 0 45 26 6 258 677 632 699 353 95 51 12 48 37 0 0 0 0 0 0 0 0 0 0 0 11 13 7 0 0 0 0 0 0 0 0 0 0 0 31 34 25
7 1 111 26 11 0 0 11 129 72 1 59 575 588 626 345 61 0 0 0 0 0 0 0 0 0 0 0 0 0 0 0 6 13 0 0 0 0 0 0 0 0 0 1 9 10 1 6 7
39 7 0 0 204 304 246 15 0 0 0 19 325 535 545 390 121 3 0 0 0 0 0 0 0 0 0 0 0 1 6 2 9 6 0 0 0 0 0 0 0 0 0 4 3 0 0 1 0
0 59 0 530 3 154 346 23 0 0 0 1 24 293 405 383 162 4 0 0 0 0 0 0 0 0 0 0 0 5 13 13 12 9 0 0 0 0 0 0 0 0 1 4 1 2 0 14 15

GFSSGP_con_mucape_033.txt.gz
CAPE
0 0 0 0 0 0 0 0 199 644 575 513 476 775 852 946 1077 470 639 577 200 406 525 649 670 839 933 978 822 567 365 317 267 174 228 130 95 74 44 99 38 3 0 0 0 0 0 0 0
0 0 0 0 0 0 0 394 632 597 502 445 554 768 744 909 983 1001 873 635 221 275 354 526 736 882 996 860 655 390 313 274 298 210 142 107 38 48 155 90 20 0 0 0 0 0 0 0 0
0 0 0 0 0 0 0 653 435 556 475 340 309 414 368 955 975 909 698 600 332 91 365 620 621 671 814 598 534 411 374 279 211 144 90 62 26 19 64 179 93 73 0 0 0 0 0 0 13
0 0 0 0 0 0 0 337 535 472 373 243 216 43 155 811 893 803 576 515 367 265 405 291 327 417 521 770 518 384 318 203 153 143 223 107 76 78 103 239 191 32 3 0 0 0 0 17 12
0 0 0 0 0 5 26 373 374 477 365 156 163 106 0 459 912 780 371 333 375 281 210 139 187 330 740 679 510 387 306 212 196 243 260 270 127 94 146 271 205 71 13 1 0 0 4 13 21
0 0 0 0 0 0 646 491 511 475 363 171 111 25 11 767 1085 711 400 281 141 55 59 167 298 558 560 607 437 306 249 196 221 264 283 285 265 280 265 276 302 212 135 61 0 0 9 0 0
0 0 0 0 0 0 573 354 291 324 183 166 265 112 65 670 806 507 375 229 57 84 71 156 237 400 372 379 296 233 175 193 221 271 269 245 208 244 286 312 317 270 226 117 4 0 0 0 0
0 0 0 0 0 194 277 200 127 73 176 125 138 300 108 794 600 379 256 94 39 87 133 149 295 262 248 235 226 177 131 144 133 126 101 81 109 182 233 200 134 54 20 11 0 0 0 0 0
0 0 0 0 77 276 257 238 173 36 48 47 128 554 451 342 325 173 129 86 25 11 35 132 228 232 153 98 163 136 103 71 64 64 34 29 16 5 40 5 22 0 0 0 0 0 0 0 0
0 0 1 23 189 109 24 0 47 127 25 54 743 717 437 356 221 51 10 0 11 4 0 75 148 174 68 42 32 20 13 1 0 102 112 166 85 40 0 0 12 0 0 0 0 0 1 0 0
0 0 0 114 139 36 2 25 130 78 64 42 278 374 166 174 114 59 0 3 19 12 3 19 115 160 1 5 2 0 1 0 35 177 281 278 185 22 130 35 2 0 1 19 0 0 0 0 0
0 0 2 208 41 46 17 0 3 0 0 0 300 510 545 255 74 105 16 16 20 57 91 80 312 94 5 9 8 148 197 188 300 470 453 294 272 51 0 8 23 0 9 22 4 3 0 0 0
0 0 0 207 36 13 23 16 0 3 15 0 203 601 601 484 230 161 121 125 68 100 158 235 331 29 24 12 105 200 363 351 456 439 386 244 182 44 38 9 6 21 11 3 0 6 2 0 0
0 26 13 1 110 89 35 7 9 13 166 306 595 619 736 733 580 381 292 299 404 303 321 162 163 21 87 304 310 337 293 315 388 136 192 56 46 0 7 55 24 6 0 4 0 0 0 0 0
26 17 4 0 81 110 33 11 130 133 583 830 795 787 832 935 864 720 547 428 487 364 149 79 31 304 302 248 240 193 218 262 177 11 22 16 25 0 1 7 0 0 0 0 0 0 0 0 0
1 2 0 0 7 5 1 9 175 383 902 1098 864 452 302 199 744 556 432 306 417 191 156 22 198 313 225 191 161 99 0 0 0 0 0 0 0 0 0 0 0 0 0 0 0 0 0 0 0
2 0 0 0 0 17 8 2 137 500 848 1032 501 115 88 74 238 192 187 249 244 189 2 28 352 261 206 180 8 0 0 0 0 0 0 0 0 0 0 0 0 0 0 0 0 0 0 0 0
0 0 0 0 0 65 16 0 38 262 271 218 179 139 110 52 110 128 160 235 201 188 153 355 364 316 187 42 12 9 0 0 0 0 0 0 0 0 0 0 0 0 0 0 0 0 0 0 0
1 0 2 0 0 21 2 0 0 93 277 282 246 215 194 135 110 45 29 206 211 301 380 456 425 299 124 13 20 14 0 16 0 0 0 0 0 0 0 0 0 0 0 0 0 0 0 0 0
0 0 0 0 0 1 9 0 0 10 173 312 317 458 458 211 176 141 113 335 338 394 438 456 446 386 207 37 69 39 33 22 0 0 0 0 0 0 0 0 0 0 0 0 0 0 0 0 0
0 4 0 1 0 0 0 3 13 1 20 349 390 429 470 373 389 390 690 629 555 567 631 508 482 306 204 137 175 83 11 0 0 0 0 0 0 0 0 0 0 0 0 0 0 0 0 0 0
0 0 5 3 0 0 2 35 42 46 60 23 349 404 448 451 554 522 763 913 815 734 677 721 487 250 136 246 238 10 0 0 0 0 0 0 0 0 0 0 0 0 0 0 0 0 0 0 0
5 0 8 7 3 6 2 0 6 10 2 7 117 159 488 689 719 756 796 993 980 926 785 556 357 303 237 288 68 5 0 0 0 0 0 0 0 0 3 0 0 0 0 0 0 0 0 0 0
26 0 35 78 3 6 12 7 0 0 1 21 3 245 406 709 849 804 848 943 939 888 728 552 469 495 449 232 31 8 2 0 0 0 0 0 10 7 3 0 0 0 0 0 0 0 0 0 0
38 46 54 9 3 19 45 0 2 6 2 5 110 190 325 760 707 845 966 918 853 682 541 651 696 336 42 0 0 0 0 0 0 1 4 21 13 14 7 0 0 0 0 0 0 0 0 0 0
29 15 9 2 0 2 37 0 0 8 23 34 97 135 292 630 601 887 975 812 596 558 575 553 245 21 0 0 0 0 0 0 0 0 0 4 17 26 10 0 0 0 0 0 0 0 0 1 7
8 65 10 1 6 10 5 3 13 21 34 106 199 191 558 635 697 837 800 699 542 253 322 195 28 0 0 0 0 0 2 0 0 2 13 8 23 22 4 0 0 0 0 0 0 0 0 0 0
17 7 24 3 0 0 0 0 17 3 449 475 515 620 691 662 615 553 455 511 384 252 115 33 1 0 0 0 0 0 0 2 6 13 10 31 10 5 0 0 0 0 0 0 0 0 0 0 0
13 0 14 0 0 7 21 0 0 0 9 517 599 638 632 561 446 283 135 62 116 104 24 0 0 0 0 0 0 0 8 8 11 11 12 19 12 0 0 0 0 0 0 0 0 0 0 0 0
8 50 44 0 0 0 0 0 0 0 0 0 279 523 575 517 436 283 84 4 0 0 0 0 0 0 0 0 0 7 33 16 14 7 28 1 2 0 0 0 0 0 0 0 0 0 0 0 0

GFSSGP_con_mucape_036.txt.gz
CAPE
0 0 0 0 0 0 0 0 0 399 603 667 755 875 960 1021 896 320 619 378 856 831 677 618 635 820 875 780 620 417 306 83 82 50 97 97 98 121 66 46 23 2 0 0 0 0 0 0 0
0 0 0 0 0 0 0 0 456 510 662 827 634 820 843 1194 997 736 603 622 653 733 583 514 665 801 842 642 474 307 166 75 126 94 64 77 116 67 85 77 42 37 0 0 0 0 0 0 0
0 0 0 0 0 0 0 629 724 716 633 528 391 417 509 1098 1077 775 689 483 663 583 430 611 670 738 732 507 404 312 278 188 165 184 100 69 78 54 71 168 121 91 5 0 0 0 0 0 26
0 0 0 0 0 0 0 25 386 588 478 418 340 215 576 1056 1035 1001 813 369 351 476 421 503 537 589 631 568 457 311 212 160 210 251 247 163 51 63 108 209 184 89 12 0 0 0 0 0 25
0 0 0 0 0 0 90 91 488 529 417 426 304 150 251 936 997 825 632 437 351 355 222 237 310 472 522 490 399 290 256 243 286 293 294 242 132 87 150 272 234 138 7 0 0 0 0 0 0
0 0 0 0 3 0 380 265 455 341 296 200 201 169 563 947 660 584 481 333 301 188 158 160 281 301 339 405 332 278 259 306 332 327 288 250 222 238 274 309 291 194 133 25 0 0 0 0 0
0 0 0 0 12 0 506 356 291 258 151 139 216 211 646 856 550 369 309 177 101 143 92 83 76 157 325 315 270 200 225 265 298 268 227 206 207 245 275 298 293 220 107 10 0 0 0 0 0
0 0 0 0 0 6 392 347 223 130 67 50 272 258 579 734 551 298 288 29 79 68 64 7 132 94 152 175 190 166 172 182 183 176 147 129 148 189 201 167 167 113 22 0 0 0 0 0 0
0 0 0 0 0 142 381 243 188 74 132 45 426 402 344 704 381 222 112 36 11 60 42 1 84 135 150 126 136 152 166 141 111 103 66 20 6 9 16 0 14 0 0 0 0 0 0 0 8
0 2 3 0 32 123 162 90 64 30 78 277 401 706 569 261 135 83 50 27 4 11 78 12 38 68 116 70 27 9 10 3 0 11 12 20 15 0 0 0 0 0 0 0 0 0 0 0 0
0 0 0 0 68 9 18 4 15 22 29 235 674 204 21 48 61 35 6 0 7 10 2 20 121 70 29 9 0 0 0 37 76 66 106 53 11 7 0 0 0 0 0 0 0 0 0 0 0
0 0 0 146 101 40 17 114 120 84 57 230 154 5 3 17 9 21 62 36 28 1 3 31 76 62 9 2 1 0 0 1 99 250 269 217 64 37 52 5 0 0 0 0 0 0 0 0 0
0 0 8 87 31 45 44 4 14 5 169 370 116 39 42 13 17 39 56 23 0 5 42 55 87 107 3 0 0 6 8 67 345 347 150 215 58 0 0 0 0 0 0 0 0 0 0 0 0
14 3 47 57 12 24 56 2 34 36 307 579 592 261 61 53 73 67 63 27 9 13 28 97 176 186 8 30 124 138 259 363 351 341 138 91 83 26 11 0 0 0 0 0 0 0 0 0 0
21 15 147 152 93 132 29 45 108 75 101 460 504 586 272 199 151 191 89 40 66 72 74 183 325 50 96 136 132 303 327 357 144 2 7 0 1 0 0 0 0 0 0 0 0 0 0 0 0
4 10 16 215 121 38 5 81 175 330 554 654 624 662 617 475 315 246 230 169 245 290 353 350 272 102 181 196 240 313 288 301 41 0 0 0 0 0 0 0 0 0 0 0 0 0 0 0 0
13 0 0 60 33 45 0 47 272 518 779 772 819 899 576 725 690 554 440 575 487 495 426 219 182 207 260 271 267 297 162 111 0 0 0 0 0 0 0 0 0 0 0 0 0 0 0 0 0
45 0 0 1 27 5 1 0 190 612 953 1037 1011 666 542 709 741 679 651 614 568 447 167 177 270 237 247 229 175 162 54 0 0 0 0 0 0 0 0 0 0 0 0 0 0 0 0 0 0
7 0 0 0 2 69 53 0 100 573 982 1053 709 199 291 612 612 583 547 628 689 318 151 181 245 231 187 138 123 19 5 0 0 0 0 0 0 0 0 0 0 0 0 0 0 0 0 0 0
12 0 0 0 0 0 26 13 23 434 639 833 419 163 153 359 321 499 584 479 470 295 245 181 228 245 198 94 19 20 14 0 0 0 0 0 0 0 0 0 0 0 0 0 0 0 0 0 0
0 0 0 0 2 0 5 6 6 193 286 432 260 221 182 173 214 290 365 312 275 268 292 334 274 292 279 150 48 24 30 15 9 2 0 0 0 0 0 0 0 0 0 1 0 0 0 0 0
0 0 0 0 1 0 0 0 0 0 20 332 351 300 285 352 258 174 220 282 249 261 311 474 420 386 304 199 123 55 50 21 49 3 0 0 0 0 0 0 0 0 0 0 0 0 0 0 0
0 0 0 0 0 0 1 5 2 6 3 19 319 323 392 436 389 422 293 288 255 250 391 520 551 515 346 285 165 127 126 30 0 0 0 0 0 0 0 0 6 12 1 1 0 0 0 0 0
1 3 0 8 18 2 4 0 0 0 0 2 15 65 425 520 321 456 538 319 334 495 535 550 566 417 305 195 187 237 196 19 0 0 0 0 0 0 2 10 19 2 6 0 0 0 0 0 0
15 15 10 11 0 0 3 0 5 7 1 1 0 18 90 389 478 597 840 860 841 738 672 673 574 415 340 176 275 303 126 26 12 2 0 3 7 9 24 1 1 0 4 0 0 0 0 0 0
5 5 3 1 0 0 6 1 3 0 11 10 0 1 341 485 592 633 876 966 1006 983 842 603 447 442 458 430 391 254 73 47 70 52 51 37 43 29 0 0 1 9 0 0 0 0 0 0 0
1 0 8 6 0 0 5 0 0 63 15 10 9 55 500 668 791 882 818 924 992 760 623 572 742 749 450 276 43 15 47 65 65 52 42 47 21 4 0 9 14 0 0 0 0 0 0 0 0
0 0 3 13 0 0 0 0 0 32 75 65 92 111 179 555 716 789 870 987 967 669 619 566 662 625 226 70 41 62 65 65 61 74 51 34 1 4 0 16 3 1 0 0 0 0 0 0 0
0 0 0 0 0 0 13 0 15 3 273 231 200 145 358 555 729 881 942 845 724 666 436 415 287 214 114 68 59 70 43 23 44 20 16 0 1 3 4 3 0 2 0 0 0 0 0 0 0
18 3 27 59 10 0 0 0 0 0 67 301 379 374 540 660 668 726 730 715 576 464 252 167 145 87 51 67 76 17 26 29 36 47 7 3 1 9 7 0 0 0 0 0 0 0 0 0 1

GFSSGP_con_mucape_039.txt.gz
CAPE
0 0 0 0 0 0 0 0 0 0 560 688 620 767 868 922 772 363 598 533 911 924 752 607 630 774 698 507 439 296 128 2 1 8 67 128 60 76 76 35 19 31 9 0 0 0 0 36 176
0 0 0 0 0 0 0 0 30 135 876 1032 856 852 862 1075 1078 726 638 796 984 843 604 475 681 675 603 472 349 192 71 10 60 47 34 100 29 36 66 81 62 80 69 0 0 0 0 5 267
0 0 0 0 0 0 0 14 597 737 825 335 309 471 752 1091 774 639 628 856 923 744 514 604 603 544 550 428 285 171 156 159 157 175 77 81 42 64 70 136 114 92 81 11 0 0 0 4 25
0 0 0 0 0 0 0 0 19 474 510 345 317 237 721 901 804 728 832 942 790 649 513 556 499 464 522 445 352 283 220 224 216 206 214 155 73 65 122 194 160 139 68 0 0 0 0 0 11
0 0 0 0 0 0 181 328 63 351 462 295 181 263 742 816 1223 1070 856 873 993 621 523 484 444 459 554 491 406 269 292 298 279 286 259 262 199 124 225 230 192 147 97 54 16 8 0 0 0
0 0 0 0 0 0 431 399 380 505 352 196 157 218 601 727 890 759 655 668 590 434 246 256 316 288 314 337 269 267 330 348 361 315 311 311 269 238 253 263 216 158 77 58 55 18 0 0 0
0 0 0 0 0 1 536 445 556 388 273 156 108 226 637 841 772 453 380 248 163 134 109 49 108 241 234 240 209 235 334 373 349 312 296 293 267 249 243 211 186 143 74 16 2 1 19 0 0
0 0 3 0 0 8 378 458 412 257 165 61 396 358 734 870 582 390 256 138 57 41 53 44 7 102 155 147 185 243 276 319 292 271 242 234 228 246 231 194 166 151 95 6 0 18 41 0 0
0 1 0 0 1 14 362 495 334 228 95 343 497 403 503 670 570 260 87 42 0 35 25 38 16 17 75 127 144 207 279 234 201 200 159 72 23 3 0 15 27 41 17 4 14 4 0 0 0
0 0 0 0 1 253 498 401 171 70 432 566 613 570 888 690 331 197 76 24 5 6 10 7 7 4 76 95 61 47 81 40 23 9 6 0 0 0 0 6 0 0 0 0 1 0 0 0 0
0 0 0 0 53 85 196 255 88 65 395 537 474 578 484 247 115 108 62 60 39 8 1 13 10 98 124 81 21 7 13 0 0 18 10 5 11 2 0 0 0 0 0 0 0 0 0 0 0
1 0 0 20 85 91 128 135 63 94 23 395 412 382 147 39 19 71 92 0 26 2 1 0 114 119 129 43 0 0 0 1 39 89 71 42 51 8 0 0 0 0 0 0 0 0 0 0 0
0 9 3 109 119 52 27 4 2 107 522 422 286 93 63 31 35 35 35 26 7 21 11 24 114 135 75 16 0 0 45 126 196 266 268 215 55 57 52 2 0 0 0 0 0 0 0 0 0
18 26 44 127 104 20 23 15 33 105 516 151 66 76 109 66 50 82 64 15 18 29 27 57 157 111 34 0 0 0 18 268 400 314 312 206 61 29 15 0 0 0 0 0 1 0 0 0 0
41 15 130 91 55 46 72 24 15 506 448 211 163 131 65 59 82 33 53 0 0 0 60 69 121 167 35 0 0 5 139 419 387 271 140 154 118 17 16 0 0 0 0 0 0 0 0 0 0
48 43 48 141 143 123 81 15 57 661 583 540 384 183 87 130 118 127 54 5 0 50 76 115 181 214 17 0 5 151 328 391 341 246 157 72 76 42 8 0 0 0 0 0 0 0 0 0 0
26 12 4 11 193 112 44 107 118 62 477 594 617 459 252 280 205 221 97 50 78 105 157 179 260 245 17 19 196 324 389 325 165 4 0 0 0 0 0 0 0 0 0 0 0 0 0 0 0
50 28 0 15 133 84 50 25 257 211 644 555 563 561 577 453 351 244 227 158 196 253 306 287 359 338 33 66 161 295 406 377 172 19 0 0 0 0 0 0 0 0 0 0 0 0 0 0 0
47 28 20 0 0 0 19 26 230 416 574 631 721 811 722 671 570 495 349 350 463 381 418 398 372 273 119 203 256 297 395 264 102 0 0 0 0 0 0 0 0 0 0 0 0 0 0 0 0
24 24 15 3 0 0 0 4 23 413 647 693 897 1007 894 652 720 685 511 544 594 469 527 452 300 172 224 274 357 355 241 109 5 0 0 0 0 0 0 0 0 0 0 0 0 0 0 0 0
0 3 1 7 0 0 0 0 0 138 569 760 730 881 642 717 659 699 571 535 597 548 530 398 175 203 267 312 261 126 49 15 20 12 14 20 4 0 0 0 0 0 0 0 0 0 0 0 0
0 0 0 0 3 0 0 0 0 0 242 576 814 747 344 415 644 639 459 405 523 565 457 254 146 211 242 218 144 94 71 52 49 40 45 46 0 0 0 0 0 0 0 0 0 0 0 0 0
0 0 0 0 0 1 9 0 0 0 3 331 331 651 261 208 466 551 498 535 575 666 612 319 236 165 183 229 205 206 97 76 80 85 69 27 6 0 0 0 0 1 0 6 17 0 0 0 0
0 0 0 0 0 0 0 0 0 0 0 0 28 319 327 268 252 322 365 468 500 536 585 288 259 238 326 291 312 262 113 97 101 121 22 15 4 0 0 1 1 14 29 7 8 2 0 0 0
0 0 0 0 0 0 0 0 0 0 0 0 0 3 203 317 223 266 328 291 345 402 368 291 258 327 404 414 402 297 239 122 119 54 13 5 3 3 7 16 13 21 23 0 17 8 1 0 0
0 0 0 0 0 0 0 0 0 0 0 0 3 0 10 198 304 335 338 333 275 239 280 261 433 486 515 509 401 313 274 204 129 68 44 50 39 41 38 29 30 7 0 0 12 0 0 0 0
0 0 0 0 0 0 0 0 0 4 48 22 0 0 38 60 241 420 493 461 428 308 336 419 556 557 560 517 398 228 218 357 295 76 89 61 43 34 39 10 13 10 0 6 0 0 0 0 0
1 0 0 0 0 0 0 0 0 14 19 25 39 47 143 236 358 416 570 682 690 629 705 802 751 598 555 465 405 308 391 308 122 104 68 56 43 29 18 5 4 3 7 4 0 0 0 0 0
0 7 0 0 0 0 0 0 0 5 0 9 20 25 127 456 609 747 800 780 834 900 1017 927 660 533 633 655 444 224 105 96 70 41 36 34 38 22 4 11 5 8 6 3 0 0 0 0 0
0 0 0 0 0 0 0 0 0 1 0 0 35 112 62 441 776 856 868 876 836 925 1062 692 512 708 800 650 341 177 104 89 77 61 43 42 12 1 3 1 1 7 6 0 0 0 0 0 0

GFSSGP_con_mucape_042.txt.gz
CAPE
0 0 0 0 0 0 0 0 0 0 128 946 833 856 823 827 518 325 632 690 782 842 715 670 725 645 504 374 252 174 109 48 12 22 64 155 139 86 54 48 76 68 68 5 66 216 164 46 3
0 0 0 0 0 0 0 0 0 423 985 881 783 767 885 912 780 1085 846 952 896 820 600 604 758 585 454 323 206 130 70 77 128 129 71 110 83 90 108 78 52 101 98 21 119 218 274 194 381
0 0 0 0 0 0 0 0 231 472 881 622 432 615 690 765 683 696 576 1012 992 753 479 630 603 462 424 284 177 133 127 164 223 180 90 104 106 84 188 123 98 129 111 47 22 79 173 229 130
0 0 0 0 0 0 0 0 185 149 506 493 448 393 937 927 1040 775 996 913 839 690 480 594 461 416 393 349 284 250 234 233 178 159 197 183 140 87 253 182 163 155 100 23 0 22 22 20 18
0 0 0 0 0 0 0 331 347 165 497 392 389 473 900 813 1138 913 917 699 713 619 515 456 372 382 492 491 372 353 323 281 241 257 286 277 280 207 327 242 179 138 146 33 11 29 61 23 0
0 0 0 0 0 0 66 482 476 512 426 366 398 480 870 673 1175 889 898 950 672 521 368 303 329 404 439 404 364 370 380 356 341 332 347 366 360 324 302 234 134 106 81 68 38 6 18 24 0
0 0 0 0 0 1 288 547 624 550 390 311 386 554 855 694 693 863 865 575 534 369 296 163 17 125 266 285 325 371 424 387 377 370 369 342 298 277 238 201 158 133 142 110 33 0 0 12 7
0 0 0 0 0 40 329 610 589 444 243 489 486 568 845 611 485 374 634 559 431 275 190 8 0 8 190 243 358 380 357 336 354 320 254 218 228 231 205 208 200 126 103 148 146 24 0 0 0
0 0 0 0 14 42 239 612 544 419 482 634 690 615 643 639 401 163 69 58 88 52 11 47 13 85 119 184 282 309 380 298 271 219 193 47 27 27 0 67 111 96 88 73 26 1 0 0 0
0 2 0 0 9 18 353 528 411 371 647 718 743 822 530 415 373 200 43 5 31 0 0 9 4 23 92 91 129 141 187 86 33 36 17 12 2 0 0 1 8 22 23 4 0 0 0 0 0
0 3 0 0 0 72 417 451 161 504 528 536 598 717 608 583 315 100 68 40 10 9 8 0 14 20 144 75 33 44 24 9 0 0 0 0 1 0 0 0 0 0 0 0 0 0 0 0 0
0 0 0 0 123 178 274 167 174 177 211 463 617 629 379 993 429 211 24 34 1 6 4 1 10 116 149 38 0 6 2 1 0 0 0 1 4 0 0 0 0 0 0 0 0 0 0 0 0
0 18 1 8 107 188 81 139 43 264 459 612 509 602 649 133 148 136 87 18 0 0 0 0 18 140 98 45 0 1 0 0 6 25 55 62 53 1 0 0 0 0 0 0 0 0 0 0 0
21 14 14 83 202 82 81 65 146 646 600 538 533 257 111 98 104 100 30 8 10 3 1 1 55 123 90 9 0 0 0 0 52 153 169 198 80 81 93 43 14 0 0 0 2 4 1 0 0
63 81 161 226 170 62 77 78 81 601 643 512 311 103 146 49 118 86 52 12 5 1 11 15 64 154 74 0 0 0 0 96 266 297 284 198 115 51 39 41 15 13 0 11 27 0 0 0 0
69 66 121 116 101 91 104 18 71 704 337 129 128 161 191 77 80 112 108 9 5 2 11 22 127 198 73 0 0 0 0 316 295 272 164 195 118 83 61 47 38 20 20 19 7 0 0 0 0
36 0 15 14 152 137 100 69 110 740 396 278 322 231 164 143 126 113 104 43 0 3 40 58 125 188 117 0 0 0 33 309 249 194 174 146 96 59 56 43 16 12 20 12 0 0 0 0 0
44 14 8 17 156 91 83 26 117 725 507 434 477 360 241 156 199 174 77 83 14 42 94 111 161 223 154 0 0 11 245 252 199 24 25 0 1 2 4 0 0 7 8 0 0 0 0 0 0
55 46 18 29 2 76 79 6 11 221 654 625 590 525 417 301 327 268 217 92 75 95 157 123 248 289 191 11 7 123 294 252 253 187 84 25 0 0 0 0 3 0 0 0 0 0 0 0 0
28 34 30 16 0 0 0 0 0 225 195 566 511 504 487 475 472 458 272 262 183 165 185 197 182 330 356 51 16 76 177 328 239 399 147 5 0 2 1 0 0 0 0 0 0 0 0 0 0
15 7 12 10 1 2 0 0 0 247 347 496 567 473 466 609 605 622 519 365 355 294 262 253 312 419 370 91 35 88 171 291 285 181 40 7 25 49 10 0 0 0 0 0 0 0 0 0 0
9 3 0 2 0 0 0 0 0 1 354 453 559 626 639 700 759 639 676 564 479 427 335 311 442 462 398 326 110 172 254 307 324 97 15 14 53 59 1 0 0 0 0 0 0 0 0 5 0
0 0 0 0 0 0 0 0 0 0 0 247 616 535 714 837 850 768 655 704 507 443 422 443 530 572 449 269 176 227 306 277 83 23 21 64 77 53 0 0 0 0 0 0 1 5 26 17 0
0 0 0 0 0 0 0 0 0 0 0 0 59 535 688 610 753 511 603 689 627 400 456 552 561 556 347 162 209 250 251 164 105 60 69 60 69 33 19 1 0 0 0 6 23 19 0 0 0
0 0 0 0 0 0 0 0 0 0 0 0 0 3 291 704 714 576 376 622 625 513 448 576 644 568 403 288 288 251 205 158 201 105 56 55 35 11 8 8 7 5 3 10 4 19 10 1 0
0 0 0 0 0 0 0 0 0 0 0 0 0 0 0 7 173 575 439 400 547 546 536 592 667 753 533 351 287 319 188 337 335 166 117 99 27 30 36 52 11 8 7 4 5 0 0 0 0
0 0 0 0 0 0 0 0 0 0 4 0 0 0 0 0 44 186 454 405 348 401 428 469 504 583 563 385 408 384 571 535 262 95 76 69 45 55 94 22 30 12 1 6 2 0 1 0 0
0 0 0 0 0 0 0 0 0 0 0 0 1 0 0 0 4 97 187 314 341 412 442 375 459 434 486 529 468 434 609 443 320 124 86 65 71 71 65 40 9 5 9 7 2 2 0 0 0
0 0 0 0 0 0 0 0 0 0 0 0 0 11 20 61 81 154 296 402 581 583 525 525 609 761 681 603 565 554 514 425 237 275 101 71 68 53 53 61 19 13 1 2 0 1 0 0 0
0 0 0 0 0 0 0 0 0 0 2 0 0 7 59 142 247 361 466 481 563 564 619 643 809 899 745 648 634 608 574 488 240 55 74 72 50 37 17 26 27 32 10 1 0 0 0 0 0

GFSSGP_con_mucape_045.txt.gz
CAPE
0 0 0 0 0 0 0 0 0 0 14 1181 1099 968 936 903 746 645 711 763 1025 825 613 641 661 701 633 460 324 241 211 178 127 138 208 222 145 122 201 146 158 203 131 135 125 155 357 341 28
0 0 0 0 0 0 0 0 7 556 773 727 856 1138 1096 959 924 748 888 1089 1116 834 665 613 617 567 507 375 298 236 194 191 211 247 251 132 134 182 162 174 189 410 517 392 301 147 220 342 240
0 0 0 0 0 0 0 0 1 248 1004 706 570 833 970 944 755 924 677 1240 1083 823 698 673 574 399 379 286 211 204 284 281 261 222 200 209 200 228 227 189 181 335 671 441 375 342 347 262 165
0 0 0 0 0 0 0 0 0 318 586 606 593 894 1142 917 1218 994 1301 1279 1023 854 721 589 370 307 329 284 239 261 303 246 216 164 213 241 300 315 271 189 177 216 403 417 396 252 56 127 60
0 0 0 0 0 0 0 60 511 266 583 562 445 759 1072 930 1092 1043 1179 857 865 899 795 526 302 249 356 362 331 349 248 229 204 195 225 287 365 367 226 179 178 159 271 310 132 112 58 39 11
0 0 0 0 0 0 4 587 680 672 539 547 824 741 1059 1056 921 1086 1128 798 675 570 536 390 340 401 376 291 300 288 257 289 302 288 337 402 307 263 232 203 198 142 105 181 186 110 46 4 0
0 0 0 0 1 31 229 606 692 701 563 514 617 817 991 744 684 1007 1024 905 580 410 326 260 134 66 128 362 220 224 319 354 363 336 324 263 197 139 152 202 227 189 83 51 119 149 74 12 0
0 0 0 0 26 54 335 670 700 644 518 545 725 916 850 807 782 874 1154 831 675 350 304 229 35 2 81 373 267 223 301 343 363 289 183 156 148 184 197 168 194 269 199 87 36 25 42 0 0
0 0 0 0 33 84 477 706 657 618 759 861 919 821 715 559 423 329 374 548 184 227 241 72 42 3 87 355 394 269 327 287 243 203 145 36 13 10 0 62 109 151 209 76 9 0 0 0 0
0 0 0 1 7 60 510 653 684 802 791 817 827 734 750 592 387 319 39 29 46 85 120 30 2 0 104 221 224 215 234 144 120 81 53 31 62 25 3 11 58 76 22 0 0 0 0 0 0
0 0 0 4 0 9 385 622 493 783 777 756 727 1056 900 486 208 255 8 18 50 38 39 0 1 0 117 176 171 80 68 76 99 61 39 55 59 55 0 0 0 0 0 0 0 0 0 0 0
0 0 0 1 17 144 313 286 366 297 261 600 790 676 821 592 177 61 44 23 39 33 18 21 3 4 58 59 93 64 45 31 38 10 41 85 19 6 0 0 0 0 0 0 0 0 0 0 0
6 0 0 0 42 236 249 278 143 451 732 844 749 876 514 438 179 144 8 18 9 9 1 4 76 193 158 85 46 34 28 12 51 21 51 88 11 0 0 0 0 0 0 0 0 0 0 0 0
9 10 1 34 124 156 107 94 219 661 757 709 572 349 260 386 330 57 6 6 4 14 2 43 100 195 145 51 6 4 26 35 51 52 64 138 145 16 0 0 0 2 7 0 0 0 4 0 0
17 19 123 158 204 71 96 103 54 621 683 808 480 382 166 188 137 144 43 15 11 7 0 6 64 216 116 35 0 0 0 64 192 193 196 149 71 66 88 61 42 33 11 8 13 14 1 0 0
3 50 119 60 178 74 88 41 88 832 687 537 408 212 173 60 167 116 63 44 20 7 2 1 43 212 130 5 0 0 72 235 156 183 223 158 112 71 51 50 32 24 42 20 24 26 0 0 0
5 4 11 4 120 137 102 85 123 748 502 437 352 266 266 132 153 134 63 19 22 17 2 12 83 273 159 3 1 2 75 134 243 215 181 130 87 84 67 44 28 39 50 29 25 0 0 0 0
25 0 3 10 131 171 143 69 98 723 507 226 361 372 344 252 158 135 190 71 37 47 38 34 115 235 259 14 3 7 31 134 273 201 119 77 78 64 44 31 33 33 19 15 3 0 0 0 0
16 15 15 78 45 86 117 89 54 446 658 487 453 469 441 359 266 205 162 241 102 104 155 166 212 216 224 46 16 22 32 48 222 161 76 47 26 2 0 12 3 3 7 0 0 0 0 0 0
11 15 23 24 11 11 2 0 4 165 576 660 591 605 564 534 359 333 295 224 220 127 151 181 205 193 240 78 27 20 41 68 275 188 127 95 39 18 9 19 0 0 0 0 0 0 0 0 0
9 3 23 22 4 0 0 0 0 7 131 231 479 591 522 529 570 521 401 305 241 205 148 216 221 222 310 223 24 2 0 188 271 138 169 42 37 13 12 5 0 0 0 0 0 0 0 0 0
0 0 3 23 15 0 0 0 0 0 111 240 307 558 625 537 504 707 695 528 401 345 246 200 226 157 204 364 207 24 30 65 119 179 85 62 72 3 5 21 4 0 0 0 0 0 0 0 0
0 0 0 0 3 0 0 0 0 0 0 210 357 504 666 666 530 720 873 841 598 580 309 272 204 148 126 323 366 84 39 16 49 208 130 60 41 4 32 30 9 0 0 0 0 0 0 0 0
0 0 0 0 0 0 0 0 5 0 2 2 26 344 518 532 457 535 837 921 849 622 393 345 180 217 222 385 446 382 278 65 148 225 215 93 53 42 34 32 17 7 0 0 1 0 0 0 0
0 0 0 0 0 5 0 0 29 0 0 0 0 5 195 468 426 494 612 774 817 685 679 450 348 249 356 525 570 484 301 240 218 305 221 271 108 37 44 32 14 7 3 7 0 3 0 0 0
0 0 14 0 0 0 0 0 3 0 0 18 1 13 0 49 212 516 569 675 760 676 770 676 439 387 499 545 625 476 368 317 258 240 153 137 109 53 46 23 18 18 44 1 0 0 0 3 0
0 0 0 0 0 0 0 0 0 0 0 0 20 1 5 4 0 14 294 702 732 638 655 713 634 511 527 619 635 573 538 383 307 380 315 275 122 59 65 49 47 52 49 30 1 6 0 1 0
1 0 0 1 0 0 0 0 0 0 0 0 0 12 14 0 2 22 55 110 274 567 476 536 609 600 585 599 612 598 526 423 306 303 281 259 79 53 58 58 48 50 54 48 20 15 10 0 0
0 0 0 0 0 0 0 0 0 0 0 0 0 0 0 22 30 79 210 238 330 379 454 527 466 424 494 619 651 570 497 409 346 310 335 226 93 70 66 62 67 59 26 17 9 6 4 0 0
0 0 0 6 0 0 0 0 0 0 0 0 0 0 4 22 72 178 367 484 431 447 462 463 442 380 534 644 563 557 420 321 335 301 240 181 79 64 65 71 34 18 6 20 17 0 0 0 0

GFSSGP_con_mucape_048.txt.gz
CAPE
0 0 0 0 0 0 0 0 0 57 28 1033 1388 1330 1305 1475 1191 790 1025 1318 1263 1086 553 672 836 895 853 722 520 366 272 223 148 243 270 277 279 395 277 256 316 476 710 590 474 7 0 0 0
0 0 0 0 0 0 0 0 2 238 832 1176 1157 1693 1528 1300 1022 1052 1173 1306 1414 1133 617 427 854 849 699 511 383 274 208 179 264 346 300 283 396 305 352 393 483 546 589 428 521 110 0 1 25
0 0 0 0 0 0 15 0 0 48 1035 1173 1204 1477 1519 1284 996 1029 1141 1429 1441 1081 730 674 808 709 582 435 325 269 274 299 371 280 350 439 399 406 412 611 725 890 893 528 471 204 3 25 98
0 0 0 0 0 0 0 0 0 46 699 849 1102 1626 1431 1171 1277 1478 1508 1623 1326 1187 908 549 515 506 491 390 354 389 326 289 243 280 420 467 479 419 445 470 843 1007 989 637 479 22 19 69 53
0 0 0 0 0 0 0 0 196 266 641 896 1003 1404 1483 1360 1124 1369 1521 1542 1264 1189 951 643 433 347 423 472 530 430 289 208 239 319 404 456 484 439 369 343 529 826 885 505 132 30 15 51 25
0 0 0 0 0 0 0 272 786 949 977 1029 1284 1498 1403 973 1239 1207 1369 1360 1190 808 594 430 330 247 335 424 441 294 220 216 262 351 441 490 413 347 348 252 348 419 336 226 178 111 78 26 0
0 0 0 0 6 11 65 825 1146 1174 1013 1051 1327 1474 1326 896 1096 1360 998 958 798 474 305 259 200 162 67 115 239 271 271 305 346 380 349 352 292 266 268 207 198 280 256 212 189 91 20 0 0
0 0 0 0 17 27 205 804 1083 1082 1064 966 1270 1231 1127 818 1156 1244 1085 738 758 474 214 47 137 171 43 133 282 364 327 329 358 311 238 170 203 241 267 192 198 169 220 246 205 26 0 0 0
0 3 7 1 10 95 159 683 1102 1022 1059 1166 1379 1403 1091 1265 709 836 824 697 530 400 276 132 174 194 4 38 260 422 375 289 208 235 184 48 9 11 23 119 280 216 144 75 21 0 0 0 0
0 11 6 0 5 47 57 621 1065 1149 1149 1233 1191 848 728 917 552 441 330 306 493 317 270 254 228 13 0 109 202 369 303 213 140 108 70 65 66 49 10 61 152 70 20 0 0 0 0 0 0
0 17 9 2 0 0 218 909 701 815 997 1018 1155 791 533 684 500 385 25 35 70 182 100 46 10 16 3 107 263 312 251 261 179 207 92 136 102 44 7 13 0 0 0 0 0 0 0 0 0
0 0 0 0 18 180 622 789 713 758 902 1061 1112 624 792 492 177 69 33 15 10 34 19 3 9 0 5 3 154 212 122 88 119 183 194 188 154 51 28 34 19 0 0 0 0 0 0 0 0
0 0 0 3 23 419 437 565 448 884 1360 1414 876 836 683 338 113 3 16 4 29 44 32 3 16 3 4 3 209 152 198 80 98 184 225 96 63 44 24 53 9 0 0 0 0 0 0 0 0
5 0 60 89 152 338 322 428 379 1174 1285 1170 786 791 453 380 266 30 10 0 8 15 16 10 3 13 53 137 261 232 169 105 202 102 182 289 66 82 39 65 26 16 7 0 0 0 0 0 0
7 41 184 204 367 245 263 478 428 1236 1156 1049 947 672 626 291 166 85 61 6 0 0 18 39 33 41 14 95 212 132 98 57 62 186 449 483 355 193 68 46 9 0 12 3 0 0 2 0 0
8 46 101 254 329 265 176 266 685 1110 1225 1078 839 699 489 596 361 128 120 98 5 7 39 121 99 119 189 152 20 68 49 121 214 429 620 670 566 394 179 57 46 44 30 4 2 7 7 0 0
12 63 21 41 248 312 253 236 859 1248 1276 890 719 674 380 509 450 349 196 171 95 65 64 139 222 281 383 311 24 45 95 254 478 697 638 602 429 152 89 49 43 33 12 11 11 9 0 0 0
16 22 34 52 233 337 367 240 775 1167 1094 565 688 704 712 317 385 207 215 226 148 98 107 195 250 441 589 404 176 6 131 272 612 694 579 417 182 67 55 50 26 5 12 8 7 6 0 0 0
14 26 63 93 73 194 166 107 151 1024 1063 559 505 565 699 726 341 314 139 152 159 173 215 206 374 520 664 445 100 2 76 284 632 662 532 325 70 44 48 5 0 3 0 0 2 0 0 0 0
27 55 62 65 42 50 76 72 53 657 928 728 506 580 521 650 641 403 458 309 214 201 238 248 258 369 764 571 173 41 23 165 311 501 489 305 105 0 1 1 0 8 0 0 0 0 0 0 0
46 80 80 79 42 8 10 36 37 108 607 864 728 507 510 548 776 657 508 547 588 356 435 306 260 395 682 645 382 113 114 300 418 350 157 147 125 82 14 8 3 7 3 0 0 0 0 0 0
34 48 37 81 87 59 11 68 14 60 188 509 772 854 808 699 638 842 831 816 668 639 386 411 430 522 738 839 600 230 70 211 406 534 309 117 99 26 49 6 2 3 6 1 0 0 0 0 0
9 1 18 46 71 49 40 28 30 5 35 239 524 679 794 767 775 783 1053 1129 1034 809 771 504 475 555 723 926 929 555 187 142 517 622 308 35 67 96 94 6 3 9 34 17 0 0 0 0 1
0 5 13 24 67 125 38 49 77 64 44 59 115 455 683 929 978 853 910 1176 1308 1211 1043 1040 716 688 744 836 883 951 739 442 509 442 322 59 83 83 49 48 25 25 38 33 13 0 2 0 0
0 37 91 115 141 154 37 76 99 69 50 73 98 111 200 765 1109 1170 1073 1319 1470 1565 1471 1356 1096 885 816 845 861 1005 980 886 630 410 325 142 127 152 266 263 84 28 37 16 6 2 11 1 1
10 37 113 81 131 143 0 51 98 30 8 45 148 156 97 82 622 1126 1117 1249 1577 1737 1780 1640 1135 989 917 962 919 1065 1009 737 758 621 421 208 275 175 212 142 66 45 32 14 8 27 4 0 0
4 20 28 97 19 122 39 27 20 0 13 20 203 156 164 40 206 617 825 1149 1457 1744 1849 1764 1584 1275 1061 950 919 746 559 496 614 531 339 233 382 188 83 69 40 50 32 28 39 23 8 1 0
6 12 46 107 78 50 54 6 22 0 0 0 0 99 305 268 153 184 321 660 1127 1466 1600 1626 1589 1381 1221 1062 942 803 577 535 533 499 446 256 152 84 83 62 32 30 52 56 15 44 19 1 2
6 31 12 45 52 72 24 33 0 0 0 1 2 46 116 398 502 426 461 490 632 920 1179 1312 1345 1335 1269 1201 1172 999 678 743 537 407 351 269 202 156 122 71 19 28 73 39 12 4 1 0 0
11 24 73 51 14 8 47 39 0 0 0 3 0 19 229 294 526 673 842 886 827 853 936 1065 1154 1211 1240 1274 1194 1101 820 612 439 320 225 182 117 112 120 91 60 72 38 21 49 0 0 0 0

GFSSGP_con_mucape_051.txt.gz
CAPE
0 0 0 0 0 0 0 29 79 86 209 385 408 786 903 479 357 378 1198 1791 1453 945 778 1238 1199 1303 1277 1173 958 734 545 453 398 401 413 441 639 778 872 938 857 774 364 0 0 0 0 0 0
0 0 0 0 0 10 58 1 7 74 379 632 1019 1328 982 805 566 1337 1435 1671 1609 901 731 1167 1181 1198 1145 928 692 564 477 381 444 471 476 613 639 543 612 708 871 881 760 28 0 0 0 0 15
0 0 0 18 19 38 44 18 102 63 275 1005 905 1093 957 1126 1240 1329 1477 1166 1211 688 614 1106 1038 1002 891 669 529 443 462 455 476 506 627 602 594 645 779 761 765 899 921 142 0 0 10 7 81
0 0 0 0 1 59 0 22 0 0 235 532 931 1207 1658 1452 1596 1806 1648 1512 1286 850 740 940 859 807 675 542 503 460 415 431 378 517 611 642 675 848 1039 1020 935 944 964 191 20 0 0 21 36
0 0 0 39 17 11 0 0 0 41 162 524 694 1107 1846 1447 1529 1705 1995 1954 1781 1190 1090 876 569 543 518 601 548 486 481 363 455 566 523 591 700 776 1044 1049 989 988 891 209 7 0 0 6 1
0 0 7 36 23 5 2 95 411 295 418 852 1057 1076 1837 1420 1441 1412 1556 1436 1350 960 608 481 391 414 444 524 455 395 353 441 510 504 545 615 528 497 743 935 814 679 351 257 155 64 8 0 0
0 9 34 13 29 26 54 604 1118 1300 1010 1077 1515 1416 1741 1435 1453 1196 1377 1416 993 883 452 308 209 259 248 225 191 204 325 426 492 511 450 407 315 286 473 543 445 331 266 215 168 78 10 0 0
0 0 12 26 21 21 341 675 1158 1229 1192 1350 1436 1480 1418 1108 1146 1499 1090 1023 908 552 362 310 47 85 132 229 124 207 281 345 341 318 289 269 230 246 299 313 317 309 259 206 79 16 0 0 0
0 2 24 33 59 24 161 468 1271 1349 1257 1357 1853 1967 1123 818 1155 1201 1001 856 679 451 371 223 140 66 147 118 158 276 404 343 257 244 185 101 34 0 51 178 281 327 263 120 9 0 0 0 0
0 60 24 16 19 45 29 378 1116 1189 1100 1237 1326 1024 763 755 682 625 707 714 375 480 353 316 214 0 3 92 99 139 396 275 217 173 193 95 148 161 46 167 199 172 127 28 0 0 0 0 0
12 9 9 38 1 1 39 552 890 909 445 1095 1396 664 589 590 450 305 306 397 352 335 229 189 110 43 4 1 1 100 199 243 213 220 228 267 209 123 178 89 0 0 0 0 0 0 0 0 0
0 5 9 21 0 37 572 615 767 744 1142 1526 957 535 542 611 160 139 59 249 248 189 213 202 42 26 5 1 70 103 181 245 215 300 399 411 308 307 248 109 11 0 0 0 0 1 0 0 0
2 7 8 3 2 370 373 442 572 1123 1504 1318 805 579 540 635 144 20 50 14 24 26 70 24 6 4 4 72 75 148 112 84 178 254 333 330 286 410 245 267 113 60 48 11 1 0 0 0 0
24 0 0 10 60 30 260 487 620 1321 1589 1206 876 767 664 654 198 57 34 5 28 19 6 3 5 17 12 7 25 113 142 162 232 329 360 456 427 449 143 189 107 106 77 51 7 0 0 0 0
0 0 33 16 40 82 244 152 462 1302 1461 1189 1092 665 630 650 128 108 4 8 6 17 34 2 2 4 14 4 1 81 203 229 282 266 520 568 354 347 323 342 212 137 86 36 0 0 0 0 0
0 10 16 39 120 150 103 0 927 1000 1311 959 673 654 522 523 193 134 90 19 0 0 0 3 3 56 27 35 53 75 245 230 194 242 515 607 317 268 282 235 176 109 49 2 0 0 0 0 0
12 10 33 44 42 205 135 28 728 664 1104 780 807 610 499 490 265 193 64 29 6 0 0 12 20 0 37 186 247 365 250 74 4 161 428 535 606 599 674 340 230 106 30 6 0 0 3 0 0
27 21 26 15 56 62 201 164 492 620 730 708 608 536 388 500 392 215 189 53 14 44 79 90 92 114 235 367 165 50 160 155 208 379 545 619 741 666 624 337 251 83 19 0 0 4 0 0 0
0 17 34 48 66 101 125 118 174 733 646 628 540 589 412 577 501 338 205 199 132 173 192 217 322 400 386 253 118 0 135 139 195 378 554 603 606 499 458 305 202 61 8 1 0 0 0 0 0
0 47 43 57 19 22 6 73 5 537 717 463 533 576 505 506 566 332 309 309 274 258 243 260 240 267 555 419 175 40 15 53 90 277 628 559 522 419 374 303 94 36 10 0 0 0 1 22 0
0 58 34 49 20 3 0 1 42 27 330 511 326 381 382 544 660 606 245 274 391 343 373 385 410 528 569 576 397 103 8 64 101 271 492 558 599 463 277 247 84 36 12 8 3 0 7 17 0
21 12 26 20 38 49 25 14 18 32 134 489 447 322 303 403 701 711 739 486 311 323 447 415 410 438 446 522 509 288 69 8 83 244 419 532 401 194 67 78 35 42 4 4 8 4 2 0 0
15 2 19 28 78 64 30 105 60 17 44 126 548 504 399 371 514 766 809 781 747 680 711 762 476 383 410 573 621 660 322 109 188 430 676 854 519 191 103 51 55 81 2 5 8 4 3 1 0
2 0 11 35 56 101 110 80 61 65 9 41 86 307 512 437 500 565 813 869 922 919 1092 991 572 480 484 659 789 970 743 428 152 700 867 811 634 331 84 84 94 87 34 12 9 7 11 8 0
2 13 75 90 113 165 90 85 30 40 66 26 44 108 320 472 555 616 681 924 1132 1342 1318 1323 769 507 555 674 855 987 992 861 672 535 977 687 506 260 109 38 71 56 104 61 35 19 16 4 4
0 31 123 104 202 200 123 35 59 78 17 1 11 89 134 252 603 713 738 798 1134 1551 1514 1353 1216 1045 702 568 870 1256 1124 1518 1277 1172 978 861 738 570 199 213 162 135 68 66 38 27 26 11 12
38 29 75 87 186 143 211 91 127 51 0 1 21 141 240 290 266 552 869 1003 1140 1769 2061 2015 1592 1474 1169 804 630 484 841 1631 1434 1373 1376 1160 697 267 151 254 186 78 48 29 23 9 14 16 14
13 53 60 125 80 137 138 182 148 22 1 0 0 35 261 358 236 318 700 970 1174 1549 2219 2265 2076 1777 1531 1232 1159 1055 1274 1375 1163 1078 1098 680 426 299 201 209 147 110 35 13 2 17 42 8 24
2 57 73 98 123 159 231 250 80 12 0 0 0 0 3 282 502 418 453 620 892 1279 1799 2198 2250 2111 1950 1762 1622 1475 1155 1095 775 698 670 421 318 331 268 205 200 73 33 5 10 3 16 31 10
19 33 85 129 184 113 131 170 54 24 10 0 0 0 12 44 507 754 765 716 844 1134 1487 1838 1972 1958 1776 1698 1665 1509 1139 1258 1167 1042 850 964 209 62 44 60 68 18 56 47 4 6 7 16 39

GFSSGP_con_mucape_054.txt.gz
CAPE
0 0 0 0 0 0 0 0 0 0 21 290 401 189 393 182 203 604 940 111 2 546 1659 1813 1598 1583 1497 1399 1193 1006 818 739 710 699 715 772 839 1082 932 450 231 284 122 0 0 0 0 0 0
0 0 0 0 0 0 0 0 37 62 202 299 217 114 91 444 75 728 1005 1145 802 1018 1476 1754 1545 1541 1471 1317 1098 914 808 727 733 668 765 861 1051 1111 933 686 282 274 189 0 0 0 0 0 0
0 0 0 0 0 0 6 0 1 6 9 133 336 569 603 204 140 1043 1493 1488 881 1031 1501 1467 1087 1285 1331 1173 989 860 791 671 636 664 928 884 925 1017 1003 770 341 307 220 0 0 0 0 0 0
0 0 0 0 0 0 2 1 0 0 0 73 121 525 472 397 1235 1426 1567 1540 988 1117 1540 1165 951 951 1132 1084 984 914 668 599 562 747 737 834 901 954 950 729 675 391 236 18 0 0 0 0 0
0 0 0 0 0 4 0 0 0 0 0 41 103 356 558 991 1429 1621 1486 771 1156 774 1224 1067 885 845 1006 1016 971 822 712 594 708 687 711 893 1104 1091 822 833 783 312 243 28 0 0 0 0 0
0 0 0 10 13 0 0 25 109 162 39 20 199 463 718 1195 1050 1207 1538 1227 1189 558 880 800 808 720 658 794 786 732 644 724 683 702 799 1019 1130 1105 964 884 608 300 212 170 65 9 0 0 0
0 0 0 1 7 4 3 20 26 676 346 522 715 330 458 517 936 1082 975 1147 735 628 624 589 513 406 379 355 452 485 624 686 689 614 486 533 692 792 841 639 393 302 240 185 78 14 0 0 0
0 0 0 1 3 0 0 53 648 688 546 13 986 337 16 616 877 853 980 993 766 615 548 478 220 164 5 51 202 321 460 489 416 292 235 334 470 426 402 334 282 233 210 131 36 3 0 0 0
0 0 0 6 19 2 9 75 182 379 667 504 935 543 582 890 787 809 767 702 555 552 548 516 389 192 26 0 100 359 448 336 233 189 197 200 239 201 148 212 249 224 149 76 8 0 0 0 0
0 0 0 0 0 0 0 4 489 518 174 203 92 611 587 911 765 630 577 561 516 316 461 487 398 115 9 0 0 83 279 249 154 99 76 71 67 119 148 218 243 192 75 5 0 0 0 0 0
0 0 0 0 0 0 0 0 85 282 526 608 56 351 865 580 514 294 443 354 396 357 299 330 193 128 61 6 2 42 88 191 243 196 153 180 149 111 84 51 39 18 1 0 0 0 0 0 0
0 0 0 0 0 0 42 114 57 401 1353 760 408 551 519 407 160 103 19 237 237 112 277 184 163 108 20 7 5 2 21 129 195 285 315 253 193 185 60 28 9 0 0 0 0 0 0 0 0
0 0 0 1 0 0 102 146 139 1201 1175 634 458 570 598 231 1 0 0 1 23 34 32 100 19 15 8 4 2 1 70 124 133 273 317 369 253 268 115 103 7 0 0 0 1 0 0 0 0
0 1 0 0 0 0 12 16 64 215 950 658 660 549 582 215 0 8 3 2 5 26 32 17 10 15 10 4 11 8 58 139 173 280 294 371 337 360 296 335 177 75 64 13 1 0 0 0 0
0 0 0 4 0 0 24 10 0 0 459 865 512 255 429 71 19 6 1 0 0 26 25 3 1 1 11 14 49 46 90 184 261 283 351 294 347 329 302 319 279 141 107 70 8 0 0 0 0
0 0 0 0 10 7 2 2 1 61 400 821 272 145 339 56 81 29 0 0 0 2 2 8 0 2 10 2 1 0 39 263 231 259 254 387 405 315 317 263 330 263 126 37 5 0 2 0 0
0 0 0 7 14 69 14 0 0 68 243 478 271 216 251 97 96 19 0 0 0 0 1 0 0 20 14 7 9 24 68 177 142 126 264 400 414 372 344 388 302 275 55 20 0 0 0 0 0
0 0 1 0 18 29 81 155 0 340 512 371 416 272 265 115 79 55 8 1 2 0 0 0 0 0 0 0 0 18 93 137 43 7 178 360 404 516 425 345 355 93 35 12 0 0 0 0 0
1 0 0 20 33 29 123 183 81 15 317 277 413 200 320 270 135 61 3 0 0 0 2 0 0 0 0 38 21 10 57 22 0 19 283 463 408 450 407 417 263 97 44 9 1 0 0 0 0
0 0 0 3 17 0 3 7 176 289 126 375 315 331 262 401 260 159 27 0 7 4 0 0 0 0 0 15 15 0 0 18 6 33 383 520 499 496 474 393 163 112 64 18 0 0 0 0 0
0 0 0 8 3 0 1 0 0 111 220 199 264 420 309 404 480 193 162 17 30 97 75 42 29 3 0 58 102 56 0 1 21 53 271 363 333 316 361 318 198 86 47 1 0 0 0 0 4
0 0 0 1 11 6 1 0 1 6 59 211 146 321 368 456 612 388 236 239 153 272 210 199 224 222 188 284 288 177 2 0 3 0 195 346 486 382 334 258 224 140 19 1 6 0 3 14 52
0 7 1 0 0 7 24 11 10 1 16 104 276 206 308 426 633 568 311 300 363 299 291 279 321 283 302 419 513 323 126 17 0 104 133 412 538 437 349 201 103 33 18 20 39 2 5 7 41
3 1 0 0 5 22 3 14 22 17 11 24 187 296 224 289 567 712 598 339 316 289 428 400 422 364 340 579 661 534 378 188 103 202 316 579 503 318 180 115 82 44 37 50 59 46 39 50 7
0 9 12 16 13 57 25 55 121 23 10 0 23 213 368 332 340 592 737 703 537 380 360 552 530 477 416 425 640 501 709 571 337 307 451 564 540 376 287 166 56 37 56 62 68 48 32 61 13
0 0 28 0 56 93 14 96 24 0 14 12 0 31 149 400 450 456 621 807 824 830 798 609 592 579 542 499 691 770 591 735 594 526 437 435 507 408 272 180 152 124 96 131 64 15 44 48 19
11 0 0 70 57 191 124 3 15 23 17 0 0 0 110 196 480 488 538 657 911 1003 1103 1140 966 658 483 567 612 485 618 678 549 480 621 573 569 483 423 259 255 117 126 147 143 44 36 36 17
0 2 38 33 30 61 66 106 81 22 0 0 0 21 163 327 306 290 479 708 943 1237 1395 1462 1276 1141 891 556 555 436 446 491 361 140 936 971 617 487 398 348 214 166 164 232 73 63 30 22 1
0 0 44 66 37 103 109 102 30 11 5 0 0 0 14 180 434 370 507 722 936 1159 1505 1876 1685 1494 1330 949 525 449 334 274 547 820 1072 1085 762 545 312 287 210 126 183 95 88 54 24 26 0
1 7 33 98 47 145 158 47 2 37 10 8 0 0 0 94 510 593 576 587 678 1238 1658 2001 1950 1883 1588 1104 713 927 961 1020 906 788 876 550 1112 581 487 147 19 69 120 61 54 27 16 14 5

GFSSGP_con_mucape_057.txt.gz
CAPE
0 0 0 0 0 0 0 0 0 21 210 433 330 180 429 263 432 716 1135 383 87 0 0 142 999 1553 1645 1429 1248 1082 1073 1066 981 835 909 1060 788 465 368 179 79 18 3 0 0 0 0 0 0
0 0 0 0 0 0 0 0 0 4 427 354 314 201 698 466 270 1216 1231 453 170 10 75 720 1018 1383 1695 1501 1176 1075 1111 1171 1039 933 1134 1221 793 524 429 215 135 159 75 0 0 0 0 0 0
0 0 0 0 0 0 0 0 0 0 22 350 513 1074 554 325 450 887 1338 764 511 968 1546 1430 1462 1303 1393 1236 1094 1047 1085 1038 989 1009 1348 1319 1012 639 486 241 212 214 62 0 0 0 0 0 0
0 0 0 0 0 0 0 0 0 0 0 119 549 707 598 930 898 1446 1454 1104 1086 1013 1633 1356 996 829 715 968 1148 1057 910 830 918 1065 1325 1253 1223 812 515 323 290 244 34 0 0 0 0 0 0
0 0 0 0 0 0 0 0 1 152 373 678 475 586 230 584 1012 1001 1312 1112 1191 1401 1270 1115 666 654 503 572 1088 1020 859 932 882 1058 1168 1326 1125 1035 535 363 290 163 63 0 0 0 0 0 0
0 0 0 0 0 0 4 29 105 258 291 654 620 612 351 628 634 694 798 815 1053 1105 911 779 785 729 670 672 374 692 874 835 886 978 1126 1220 1124 970 682 373 251 154 87 16 0 0 0 0 0
0 0 0 0 0 0 7 45 155 58 408 170 590 478 86 466 480 556 752 833 998 890 748 645 517 488 396 319 225 392 733 786 876 1031 1140 1082 890 853 507 376 264 203 100 25 1 0 0 0 0
0 0 0 0 0 1 0 7 174 227 252 426 604 74 48 456 519 491 795 915 940 896 666 513 435 488 335 237 45 246 425 408 373 672 871 787 755 682 416 287 243 193 98 30 0 0 0 0 0
0 0 0 0 0 0 0 44 237 107 88 328 833 357 185 273 712 720 938 927 880 725 615 463 394 306 272 16 35 323 372 231 200 609 640 466 403 309 267 249 229 171 116 29 0 0 0 0 0
0 0 0 0 0 0 0 43 363 177 116 63 514 659 468 592 458 369 611 795 784 744 585 430 281 330 162 10 3 94 136 95 117 296 295 211 184 202 254 276 225 156 102 15 0 0 0 0 0
0 0 0 0 0 0 0 66 78 5 183 186 109 503 562 665 370 401 494 829 709 639 549 358 224 195 168 24 0 0 15 30 24 63 93 86 141 210 212 157 61 33 16 0 0 0 0 0 0
0 0 0 0 2 0 8 20 115 61 210 462 408 377 408 419 306 178 274 360 424 489 356 271 202 48 24 6 14 0 0 21 53 40 84 111 96 119 94 56 19 0 0 0 0 0 0 0 0
0 0 0 0 0 0 30 236 23 0 0 359 448 499 515 89 26 60 116 109 231 311 285 118 136 62 16 16 5 3 1 36 68 137 121 150 76 24 27 30 1 2 0 0 0 0 0 0 0
0 0 0 0 0 0 0 0 0 2 0 376 398 385 223 95 9 15 12 31 62 100 38 53 46 19 13 15 3 9 2 30 64 151 205 209 88 47 57 52 9 2 0 0 0 0 0 0 0
0 0 0 0 0 0 1 2 3 0 172 410 590 451 367 138 0 0 0 4 25 3 22 24 3 6 11 15 4 3 0 0 30 109 185 200 199 206 126 146 103 37 23 0 0 0 0 0 0
0 0 0 0 0 7 9 4 0 0 198 329 492 427 248 58 10 0 0 0 2 9 76 24 11 3 1 1 0 0 1 11 59 81 157 166 151 216 174 198 160 76 22 6 0 0 0 0 0
0 0 0 0 1 33 5 9 0 0 93 313 262 298 159 73 32 0 0 0 0 0 0 1 7 2 0 5 8 1 0 28 57 116 122 116 174 211 85 152 113 208 86 13 0 0 0 1 0
0 0 0 1 2 41 30 0 14 8 103 147 175 255 82 41 7 0 0 0 0 0 0 0 0 10 5 9 9 7 5 13 63 30 50 135 193 176 170 100 224 132 67 19 14 5 0 0 0
0 0 0 0 15 17 59 65 27 19 82 146 125 211 82 20 6 0 0 0 0 0 0 0 0 0 0 8 0 0 0 0 29 40 12 68 149 237 293 249 193 135 37 23 3 0 0 0 0
0 0 0 0 3 0 1 60 77 17 183 172 193 149 158 69 16 0 0 0 0 0 0 0 0 0 0 0 0 0 0 0 0 0 0 115 164 213 293 272 220 188 59 46 0 0 0 0 0
0 0 0 0 6 3 0 0 52 56 19 66 204 149 214 149 104 43 0 0 0 0 0 0 0 0 0 0 0 0 0 0 0 0 0 196 254 208 264 284 262 181 155 79 0 0 0 0 1
0 0 0 0 0 0 2 0 0 83 76 101 97 152 173 225 221 201 0 0 0 0 0 0 0 0 0 0 0 0 0 0 0 0 0 46 200 244 272 377 263 204 141 76 14 0 4 1 2
0 0 0 0 0 0 0 0 12 37 69 29 92 166 183 276 267 287 199 0 0 0 8 0 0 0 0 0 0 0 0 0 0 0 0 17 131 204 251 287 322 235 159 75 35 28 29 37 36
0 0 0 0 0 0 0 0 0 3 15 108 53 173 213 280 340 324 289 140 1 1 1 22 9 0 0 0 0 12 84 29 7 0 0 46 207 276 267 288 298 225 178 135 73 44 54 51 45
0 1 0 0 0 0 1 2 0 2 6 2 72 104 196 155 344 347 302 353 193 6 100 68 38 35 52 40 29 66 194 204 85 28 0 40 258 330 343 299 250 251 189 109 65 72 77 33 12
0 0 0 0 0 0 0 0 0 0 0 0 1 94 88 118 268 347 356 389 383 254 122 157 64 56 84 102 124 212 204 240 219 120 36 97 202 257 374 331 232 138 127 69 88 100 79 64 13
0 0 0 0 50 15 0 15 0 0 0 1 0 0 0 71 281 359 405 416 423 387 335 244 131 30 120 122 190 309 257 222 285 278 241 263 206 273 324 271 251 150 123 97 89 77 76 45 22
1 0 7 2 0 0 0 3 11 0 0 2 0 0 0 98 174 243 467 484 460 420 408 332 285 211 139 230 202 189 354 311 329 491 455 239 325 288 362 285 230 214 195 204 99 90 90 71 4
0 0 0 18 24 0 0 0 1 0 1 0 0 0 32 188 219 154 215 373 544 480 434 470 466 478 477 359 279 298 298 523 532 500 563 360 377 640 352 253 245 238 222 141 147 91 70 58 46
0 0 0 14 0 48 11 0 2 1 0 0 0 0 0 135 216 254 277 271 331 513 545 616 551 487 512 454 311 228 138 251 188 92 350 403 770 883 627 448 341 153 24 22 76 74 75 57 42

GFSSGP_con_mucape_060.txt.gz
CAPE
0 0 0 0 0 0 0 0 0 0 0 188 215 282 331 425 787 442 732 585 821 706 740 710 595 712 1348 1331 1237 1254 1181 1214 1253 1157 820 708 579 430 287 165 47 16 35 2 3 4 5 18 25
0 0 0 0 0 0 0 0 0 0 0 316 340 598 702 362 1172 1342 1000 720 617 266 814 573 341 634 921 1365 1279 1318 1241 1259 1298 1129 865 772 604 458 380 223 57 6 46 1 1 1 0 0 1
0 0 0 0 0 0 0 0 0 8 337 319 1110 859 506 426 525 1055 1483 843 321 132 149 254 36 364 1002 1412 1344 1283 1095 1106 1264 1039 935 874 728 616 470 260 75 15 32 0 0 0 0 0 0
0 0 0 0 0 0 0 0 4 150 386 516 597 658 629 1033 1451 1049 1323 651 367 692 981 495 235 677 987 1236 1199 1006 1050 1010 1178 1014 925 1014 872 750 530 270 112 32 21 0 0 0 0 0 0
0 0 0 0 0 0 0 18 81 194 341 321 502 382 285 740 901 1009 1352 1234 1136 1073 1195 933 633 513 578 717 829 734 999 1006 1259 1189 912 903 852 733 488 251 70 7 0 0 0 0 0 0 0
0 0 0 0 0 0 0 94 83 109 249 201 630 667 484 599 549 738 1157 1025 1018 809 873 698 523 249 217 536 307 347 887 1009 1198 1243 1045 837 751 635 452 225 81 23 0 0 0 0 0 0 0
0 0 0 0 0 0 1 72 77 185 140 307 516 575 291 431 411 635 854 499 664 555 557 528 515 525 341 170 64 161 710 875 1048 947 867 843 521 463 381 220 98 50 0 0 0 0 0 0 0
0 0 0 0 0 0 5 71 179 24 147 436 532 213 53 338 651 606 842 782 814 564 552 498 417 272 177 81 1 51 463 754 922 881 741 607 396 378 255 142 108 67 7 0 0 0 0 0 0
0 0 0 0 0 0 16 67 130 54 48 393 743 564 207 188 528 830 705 1144 922 804 499 517 438 282 161 70 45 196 450 629 686 442 414 393 173 102 32 101 102 93 21 9 0 0 0 0 0
0 0 0 0 0 1 56 175 100 26 76 120 356 356 621 268 546 610 1020 700 568 580 640 482 381 254 111 95 69 251 314 318 290 182 285 306 176 50 63 86 127 124 51 13 0 0 0 0 0
0 0 0 0 0 4 52 44 37 97 87 129 49 242 242 161 216 318 796 518 607 708 635 475 370 257 222 158 47 34 93 253 279 221 190 238 172 69 27 21 22 27 14 0 0 0 0 0 0
0 0 0 0 0 1 33 37 35 7 32 117 26 286 133 134 29 183 353 541 505 459 401 360 374 246 226 139 111 28 51 156 141 135 109 98 64 18 16 4 4 2 3 0 0 0 0 0 0
0 0 0 0 0 6 42 76 0 0 101 355 177 154 136 29 0 120 202 131 208 367 239 187 135 201 138 111 61 6 19 17 41 72 60 46 18 1 8 2 0 2 0 0 0 0 0 0 0
0 0 0 0 0 3 2 0 0 0 107 332 262 160 15 5 0 0 35 23 63 46 27 49 81 199 70 63 12 11 0 27 36 37 5 8 2 8 2 0 1 0 2 1 0 0 0 0 0
0 0 0 0 0 0 0 0 0 0 0 235 318 148 123 77 0 1 1 4 10 26 15 31 17 25 8 19 9 19 5 33 25 57 40 12 4 7 0 0 0 0 3 1 0 0 0 0 0
0 0 0 0 0 0 0 0 8 47 148 303 399 313 239 57 0 0 0 1 0 10 60 16 12 29 28 20 13 11 5 3 43 89 102 78 72 37 19 30 67 33 30 11 3 0 0 0 0
0 0 0 0 2 0 0 0 14 93 274 279 455 310 233 22 0 0 0 0 1 0 4 15 13 11 5 17 15 9 8 1 21 21 73 112 133 134 100 69 99 92 67 16 15 4 0 0 0
0 0 0 0 0 3 0 1 17 17 11 226 468 279 148 16 0 0 0 0 2 1 3 0 2 1 0 4 3 27 10 1 7 14 25 87 112 166 154 93 100 121 93 23 9 0 0 0 0
0 0 0 0 12 23 13 5 12 31 0 228 410 213 141 23 0 0 0 0 0 0 0 0 0 0 0 9 7 1 0 0 11 12 8 13 53 105 143 108 73 127 114 75 37 18 12 5 0
0 0 0 0 11 24 1 30 45 25 35 105 133 262 186 63 0 0 0 0 0 0 0 0 0 0 0 0 1 3 10 8 2 10 8 0 52 105 99 98 135 132 157 85 62 29 25 9 0
0 0 0 0 0 7 11 0 21 37 5 129 183 233 235 108 0 0 0 0 0 0 0 0 0 0 0 0 0 0 0 1 0 0 0 0 0 15 68 104 157 148 136 128 58 39 29 5 0
0 0 0 0 0 0 8 0 0 15 3 34 104 281 236 146 75 7 0 0 0 0 0 0 0 0 0 0 0 0 0 0 0 0 0 0 0 5 12 63 130 184 120 128 81 57 58 13 16
0 0 0 0 0 0 0 0 0 9 0 0 42 246 253 202 154 77 32 0 0 0 0 0 0 0 0 0 0 0 0 0 0 0 0 0 0 0 69 97 102 103 131 120 143 95 53 34 48
0 0 0 0 0 0 0 0 0 9 15 0 21 118 235 261 231 184 169 23 0 0 0 0 0 0 0 0 0 0 0 0 0 0 0 0 0 0 43 110 170 155 139 165 162 139 44 44 46
0 0 0 0 0 0 0 0 0 0 0 3 22 25 128 215 254 229 233 242 60 0 0 0 0 0 0 0 0 0 0 0 0 0 0 0 0 0 27 64 104 124 128 208 228 166 67 63 63
0 0 0 0 0 0 0 0 0 0 0 0 0 7 42 190 266 261 257 301 292 96 0 0 0 0 0 0 0 0 0 0 9 6 27 6 7 28 58 91 127 194 121 214 191 180 107 78 99
0 0 0 0 0 0 0 0 0 0 0 0 0 0 26 90 257 312 255 296 348 339 228 59 0 0 0 0 0 1 0 0 32 102 158 64 42 37 114 137 162 203 132 81 145 137 95 94 121
0 0 0 0 0 0 0 0 0 0 0 0 0 0 7 26 168 213 261 288 359 366 388 309 213 166 27 2 0 3 26 28 65 110 153 161 172 147 200 221 215 278 208 198 163 89 107 120 60
0 0 2 2 0 0 0 0 0 0 9 0 0 0 0 0 10 94 200 289 326 401 402 387 304 221 186 92 34 49 71 84 128 145 160 156 154 122 187 170 218 236 200 150 121 174 122 112 43
0 0 0 0 0 0 0 0 0 0 3 8 2 0 18 42 55 36 147 250 319 397 410 407 381 332 303 204 101 45 46 94 193 286 196 91 18 230 234 351 259 245 259 212 248 103 121 36 19

GFSSGP_con_mucape_063.txt.gz
CAPE
0 0 0 0 0 0 0 0 0 0 0 44 110 142 251 410 492 270 752 918 1097 1272 1049 443 448 347 302 278 767 1517 1505 1511 1233 987 829 722 582 457 330 250 345 428 355 70 44 22 52 24 14
0 0 0 0 0 0 0 0 0 0 1 132 373 503 325 526 981 1101 844 764 1276 1323 1039 498 464 154 128 145 576 1276 1589 1486 1205 1026 844 671 570 415 293 274 344 436 337 40 15 6 6 24 52
0 0 0 0 0 0 0 0 0 46 165 116 685 458 407 409 742 1111 1381 1306 1289 1190 1027 671 377 183 354 502 606 1034 1508 1243 1141 921 821 736 642 454 315 264 336 433 321 5 0 0 0 61 5
0 0 0 0 0 0 0 0 0 1 65 289 484 392 567 536 1262 1025 1109 1203 1189 838 1026 790 447 322 728 372 612 1239 1350 1069 933 797 819 845 652 531 274 166 338 464 157 0 0 0 0 0 0
0 0 0 0 0 0 0 0 1 34 130 93 327 228 220 696 902 1012 1183 953 969 490 919 504 216 371 428 728 860 746 834 954 877 810 777 807 715 476 224 164 242 190 14 0 0 0 6 0 0
0 0 0 0 0 0 0 1 7 20 50 70 357 331 350 561 547 937 1406 1097 862 789 828 489 128 337 348 311 54 83 389 590 770 857 792 789 603 354 156 52 3 0 0 0 0 19 0 0 0
0 0 0 0 0 0 0 8 7 20 18 122 297 472 240 209 210 852 1331 1070 951 751 710 458 310 337 124 21 65 48 171 485 583 756 661 576 355 203 101 2 0 0 0 0 0 0 0 0 0
0 0 0 0 0 0 0 26 42 8 46 292 498 105 4 156 214 806 1074 407 705 290 403 300 251 196 59 34 41 3 17 252 419 627 475 318 256 157 24 0 0 0 0 0 0 0 0 0 0
0 0 0 0 0 0 0 20 19 7 0 390 524 474 80 55 437 758 868 594 523 448 362 296 230 139 42 40 17 5 58 172 299 364 328 191 69 1 0 0 0 0 0 0 0 0 12 2 0
0 0 0 0 0 0 0 19 40 8 10 108 218 189 98 57 248 855 575 501 471 502 369 282 182 365 86 78 17 9 13 34 102 162 179 155 29 0 0 0 0 0 0 0 0 0 0 0 0
0 0 0 0 0 0 0 33 2 40 3 10 0 33 87 17 21 235 543 589 461 421 496 321 239 181 122 43 0 0 0 1 54 121 153 59 10 0 0 0 0 0 0 0 0 0 0 0 0
0 0 0 0 0 0 0 0 2 21 0 72 0 122 14 12 0 1 63 399 253 253 366 269 284 184 120 12 2 32 55 74 84 108 125 46 13 1 0 0 0 0 0 0 0 0 0 0 0
0 0 0 0 0 0 0 1 0 0 18 70 154 82 0 0 0 0 0 2 83 119 87 104 126 134 140 118 81 20 92 97 158 136 153 41 2 0 0 0 0 3 0 0 0 0 0 0 0
0 0 0 0 0 0 8 6 0 0 136 93 57 23 0 0 0 0 0 0 18 32 66 86 61 179 63 77 56 52 135 158 165 155 185 63 0 0 0 1 4 5 2 2 0 0 0 0 0
0 0 0 0 0 2 7 0 0 0 92 116 109 29 6 0 0 0 0 2 0 8 40 50 27 44 30 66 9 56 28 45 153 136 130 50 0 0 1 4 2 0 6 5 0 0 0 0 0
0 0 0 0 0 0 0 0 0 0 0 109 103 76 3 9 0 0 0 2 1 2 6 22 14 29 57 57 2 16 9 106 95 120 92 15 1 0 0 1 0 4 2 1 0 0 0 0 0
0 0 0 0 0 0 0 0 0 0 0 73 166 134 66 81 0 0 0 0 2 0 2 11 7 14 19 13 19 12 18 76 87 80 60 32 22 14 1 0 7 0 14 24 16 10 0 0 0
0 0 0 0 0 0 0 0 0 0 22 86 123 195 165 155 0 0 0 0 2 1 2 2 4 14 22 12 12 17 15 56 74 73 77 84 75 71 34 44 90 75 57 49 46 42 24 4 6
0 0 0 0 0 0 0 0 0 0 78 114 115 223 142 140 0 0 0 0 0 1 3 10 1 0 4 7 16 20 14 5 4 86 99 118 120 140 144 147 136 145 131 134 82 48 44 20 15
0 0 0 0 0 0 0 4 0 0 7 7 26 229 220 98 21 0 0 0 0 0 2 5 4 0 0 0 2 1 11 5 16 13 44 42 80 91 131 131 113 81 91 103 125 91 54 40 31
0 0 0 0 0 0 0 0 0 0 3 8 7 132 224 115 80 0 0 0 0 0 0 0 0 0 0 0 0 0 17 10 1 3 2 16 23 44 56 55 70 42 51 93 123 59 66 59 43
0 0 0 0 0 0 0 0 0 0 3 7 0 45 62 163 122 100 0 0 0 0 0 0 0 0 0 0 0 0 0 0 3 6 0 4 19 7 0 30 77 56 42 65 90 90 47 64 65
0 0 0 0 0 0 0 0 0 0 0 31 7 7 117 147 178 167 55 0 0 0 0 0 0 0 0 0 0 0 0 0 0 0 0 0 0 0 0 0 10 10 13 67 118 117 70 74 61
0 0 0 0 0 0 0 0 0 0 0 0 5 6 39 77 216 222 162 14 0 0 0 0 0 0 0 0 0 0 0 0 0 0 0 0 0 0 0 0 19 34 26 63 134 112 71 58 50
0 0 0 0 0 0 0 0 0 0 0 0 0 7 0 59 192 247 219 146 38 0 0 0 0 0 0 0 0 0 0 0 0 0 0 0 0 0 0 0 34 45 72 132 141 123 74 75 65
0 0 0 0 0 0 0 0 0 0 0 0 0 0 0 1 94 211 226 182 142 21 0 0 0 0 0 0 0 0 0 0 0 0 0 0 0 0 0 0 4 22 38 46 113 145 68 81 125
0 0 0 0 0 0 0 0 0 0 0 0 0 0 15 1 32 125 191 189 220 187 126 22 1 0 0 0 0 0 0 0 0 1 3 1 0 4 3 0 0 0 11 24 42 141 73 2 22
0 0 0 0 0 0 0 0 0 0 0 0 0 0 6 32 55 87 111 167 250 245 253 231 130 57 6 0 0 0 0 0 0 1 5 29 19 29 58 69 41 16 36 43 103 129 58 84 131
0 0 0 0 0 0 0 0 0 0 0 0 0 0 0 28 69 95 106 165 243 298 282 299 284 227 114 41 7 0 0 0 0 0 1 27 60 109 128 140 122 144 97 112 123 113 231 299 84
0 0 0 0 0 0 0 0 0 0 0 0 0 0 0 0 24 58 88 132 173 247 304 274 304 312 281 112 44 35 0 0 19 23 47 49 60 114 143 34 74 91 97 115 103 126 198 66 102

GFSSGP_con_mucape_066.txt.gz
CAPE
0 0 0 0 0 0 0 0 0 0 0 2 33 35 75 160 273 152 607 913 1137 1338 1161 832 830 969 1079 1186 1314 1266 1442 1492 1404 1267 1106 1007 888 646 597 558 479 494 422 78 23 15 15 13 12
0 0 0 0 0 0 0 0 0 0 13 1 180 257 154 272 668 926 783 1107 1378 1372 823 643 809 760 929 1000 1062 1308 1371 1340 1304 1183 1019 881 676 638 707 600 452 465 506 298 80 115 23 10 7
0 0 0 0 0 0 0 0 0 0 6 19 286 196 193 171 590 976 1289 1166 1534 1433 868 473 801 778 673 756 936 1015 1074 1175 1154 1030 837 784 628 736 725 541 461 545 557 293 344 234 71 7 13
0 0 0 0 0 0 0 0 0 0 0 67 245 185 322 249 895 904 1104 1313 1536 1538 1265 684 556 702 686 753 870 1026 887 704 939 784 731 660 601 732 630 394 376 329 206 118 105 210 5 0 0
0 0 0 0 0 0 0 0 0 0 9 8 72 89 27 323 733 835 869 1157 1446 1625 1398 904 616 652 734 949 1010 619 416 751 834 720 637 542 536 627 503 346 182 5 0 65 76 7 0 0 0
0 0 0 0 0 0 0 0 0 0 2 1 47 14 107 441 590 631 1102 1251 1132 1061 1186 906 504 756 564 693 430 289 486 489 732 654 635 509 314 348 419 231 12 0 19 199 80 0 0 0 0
0 0 0 0 0 0 0 0 0 0 0 0 65 250 194 226 117 392 1233 1238 848 683 871 638 411 395 344 207 243 202 54 284 541 562 462 347 238 216 185 23 0 0 87 151 5 0 0 0 0
0 0 0 0 0 0 0 0 11 0 1 50 326 34 0 24 118 759 1093 1198 994 771 924 436 226 155 65 48 48 76 28 302 597 580 369 227 182 136 0 0 0 0 1 30 0 0 0 0 0
0 0 0 0 0 0 0 0 0 0 7 47 365 345 39 0 366 657 631 365 460 255 527 253 100 44 16 8 11 44 131 124 371 423 279 146 61 0 0 0 0 0 0 0 0 0 0 0 0
0 0 0 0 0 0 0 0 0 0 0 38 131 65 204 46 212 408 647 499 319 325 319 124 105 73 18 13 9 30 54 85 139 233 212 100 4 0 0 0 0 0 0 0 15 5 1 0 0
0 0 0 0 0 0 0 0 0 0 0 15 13 19 136 12 142 270 283 154 452 341 310 226 129 89 37 56 31 10 17 21 77 186 179 64 0 0 0 0 0 0 0 0 0 0 0 0 0
0 0 0 0 0 0 0 0 0 0 0 9 31 17 62 0 0 0 1 42 136 197 163 253 153 155 50 50 23 2 0 10 22 71 128 38 0 0 0 0 0 0 0 0 0 0 0 0 0
0 0 0 0 0 0 0 0 0 0 0 17 55 58 14 0 0 0 9 8 111 147 161 163 114 98 65 34 0 1 0 0 1 1 76 9 0 0 0 0 0 0 0 0 0 0 0 0 0
0 0 0 0 0 0 0 0 0 0 0 32 60 55 12 0 0 0 6 0 10 84 91 88 84 52 61 78 32 25 2 6 19 25 48 24 0 0 0 0 0 0 0 0 0 0 0 0 0
0 0 0 0 0 0 0 0 0 0 0 19 12 40 24 5 0 0 2 3 9 25 33 16 64 44 70 23 31 26 2 8 40 44 29 10 0 0 0 9 9 4 3 7 3 4 2 0 0
0 0 0 0 0 0 0 0 0 0 0 0 11 46 26 14 15 0 0 3 1 6 5 18 7 9 12 63 25 41 69 65 80 63 67 6 6 7 8 17 15 12 10 14 18 19 10 2 0
0 0 0 0 0 0 0 0 0 0 0 0 13 12 38 23 18 0 0 2 0 1 5 14 9 13 25 17 13 20 22 30 21 80 103 55 19 18 19 17 5 5 1 11 28 57 16 1 1
0 0 0 0 0 0 0 0 0 0 0 0 0 22 23 64 56 0 0 0 2 0 0 2 2 34 3 6 16 11 24 7 11 86 114 108 17 5 5 2 1 0 8 25 69 80 52 14 15
0 0 0 0 0 0 0 0 0 0 0 0 0 4 11 71 104 0 0 3 0 0 0 2 1 0 3 17 12 21 0 9 19 74 58 63 31 36 21 3 0 35 56 99 103 90 75 71 41
0 0 0 0 0 0 0 0 0 0 0 0 0 18 35 67 33 0 0 0 0 2 0 0 0 3 0 17 22 0 3 23 16 30 38 48 67 98 80 41 62 133 160 138 162 144 113 70 52
0 0 0 0 0 0 0 0 0 0 0 0 0 0 4 64 64 16 0 0 3 4 1 0 0 0 0 7 3 2 9 10 21 67 50 75 99 105 111 132 142 140 145 182 169 151 142 114 56
0 0 0 0 0 0 0 0 0 0 0 0 0 0 0 1 92 77 24 0 0 0 0 0 0 0 0 0 0 0 0 0 33 1 61 46 56 58 51 79 101 120 115 115 96 102 114 83 52
0 0 0 0 0 0 0 0 0 0 0 0 0 0 0 0 28 42 60 51 0 0 0 0 0 0 0 0 0 0 0 4 6 17 6 4 0 1 3 38 21 33 75 96 86 87 107 90 80
0 0 0 0 0 0 0 0 0 0 0 0 0 0 0 0 0 52 69 122 59 0 0 0 1 0 0 0 0 0 0 0 1 3 7 0 0 0 0 0 0 8 6 17 23 21 59 102 117
0 0 0 0 0 0 0 0 0 0 0 0 0 0 0 0 0 9 92 130 164 22 0 0 0 0 0 0 0 0 0 0 0 0 0 0 0 0 0 0 0 0 8 20 6 38 35 96 110
0 0 0 0 0 0 0 0 0 0 0 0 0 0 0 0 0 2 34 123 171 130 5 0 0 0 0 0 0 0 0 0 0 0 0 0 0 0 0 0 0 0 9 12 9 29 37 47 51
0 0 0 0 0 0 0 0 0 0 0 0 0 0 0 0 0 0 9 79 189 177 137 3 0 0 0 0 0 0 0 0 0 0 0 0 0 0 0 0 0 0 0 0 3 16 24 24 54
0 0 0 0 0 0 0 0 0 0 0 0 0 0 0 0 0 0 10 39 108 199 174 163 74 54 7 0 0 0 0 0 0 0 0 3 0 0 0 0 0 0 0 0 9 10 18 40 39
0 0 0 0 0 0 0 0 0 0 0 0 0 0 0 0 0 0 2 30 48 102 202 195 235 217 199 64 11 0 0 0 0 0 0 0 1 2 1 0 2 7 14 80 65 42 55 27 34
0 0 0 0 0 0 0 0 0 0 0 0 0 0 0 0 0 0 1 2 45 100 120 144 185 242 248 235 130 42 10 1 0 0 0 0 0 0 18 6 0 36 58 72 106 107 105 43 66

GFSSGP_con_mucape_069.txt.gz
CAPE
0 0 0 0 0 0 0 0 0 0 0 0 15 16 23 92 119 130 400 832 1317 1648 1622 1476 1433 1650 1770 1904 1850 1751 1779 1692 1577 1523 1393 1305 1261 1119 874 728 680 638 561 208 229 152 56 20 14
0 0 0 0 0 0 0 0 0 0 0 0 53 203 149 122 320 845 789 1007 1449 1620 1484 1500 1452 1608 1858 1869 1853 1818 1894 1773 1574 1497 1400 1223 1064 948 841 662 465 361 295 36 42 47 56 23 23
0 0 0 0 0 0 0 0 0 0 0 1 57 137 175 94 281 745 1154 1055 1547 1413 1321 1166 982 1071 1804 1837 1835 1842 1740 1537 1430 1349 1334 1078 1028 986 831 564 455 444 356 158 41 22 28 23 18
0 0 0 0 0 0 0 0 0 0 0 16 159 220 216 114 664 826 1057 1157 1372 1642 642 1089 1084 1198 1501 1895 1849 1696 1493 1279 1193 1116 1064 1034 1132 1001 706 478 486 599 219 359 96 21 9 6 1
0 0 0 0 0 0 0 0 0 0 0 2 45 56 10 31 587 604 823 1104 1270 1511 959 1029 931 1087 1280 1462 1744 1580 1337 1120 1032 942 812 1005 974 714 548 445 502 523 625 589 30 7 2 0 0
0 0 0 0 0 0 0 0 0 0 0 0 14 15 36 341 377 546 687 1023 1005 1405 1248 980 756 1072 1157 1250 1248 1019 1079 1032 846 716 697 831 589 518 470 247 157 339 446 476 29 0 0 0 0
0 0 0 0 0 0 0 0 0 0 0 0 34 187 245 93 126 275 607 1058 811 1318 1105 785 915 956 944 892 653 616 789 786 687 499 509 470 334 361 267 56 88 365 362 157 1 0 0 0 0
0 0 0 0 0 0 0 0 0 7 0 1 80 101 83 62 142 417 697 1053 1137 700 774 795 845 529 882 908 365 312 313 269 264 398 318 223 283 246 87 11 170 354 253 72 0 0 0 0 0
0 0 0 0 0 0 0 0 0 0 6 19 390 385 71 25 226 423 520 766 441 394 461 766 596 257 165 188 178 97 22 22 122 201 261 179 320 99 0 0 160 253 89 16 0 0 0 0 0
0 0 0 0 0 0 0 0 0 0 0 0 193 150 35 51 144 286 563 315 414 364 396 277 220 62 125 74 28 4 3 3 13 128 238 204 103 20 0 0 41 119 80 45 0 0 0 0 0
0 0 0 0 0 0 0 0 0 0 0 0 14 23 16 23 57 42 106 276 214 307 258 230 110 92 45 75 42 49 12 6 23 86 153 117 35 12 3 0 0 48 73 10 0 0 0 0 0
0 0 0 0 0 0 0 0 0 0 0 0 0 9 10 17 15 28 36 73 243 343 244 193 136 96 42 64 35 32 15 8 38 145 205 94 12 0 4 0 0 0 17 46 0 0 0 0 0
0 0 0 0 0 0 0 0 0 0 0 0 2 11 1 9 6 6 3 48 76 139 145 84 78 64 61 29 46 17 17 10 52 119 146 33 2 0 0 0 0 0 0 0 0 0 0 0 0
0 0 0 0 0 0 0 0 0 0 0 30 60 23 1 0 0 0 1 5 54 52 99 46 36 81 48 33 55 24 1 83 96 103 118 59 2 27 0 1 0 0 0 0 0 0 0 0 0
0 0 0 0 0 0 0 0 0 0 0 0 75 27 0 0 0 0 2 2 0 26 36 25 13 27 44 39 45 26 4 19 47 72 58 43 25 32 3 0 0 0 0 0 0 0 0 0 0
0 0 0 0 0 0 0 0 0 0 0 0 21 13 0 0 0 0 0 1 3 7 14 20 5 8 31 21 39 12 54 50 90 84 82 40 49 21 5 0 0 0 0 2 2 0 1 1 0
0 0 0 0 0 0 0 0 0 0 0 0 5 27 1 0 0 13 0 0 3 3 1 3 7 14 10 22 37 10 47 7 8 21 41 31 26 29 19 1 0 0 9 8 13 10 15 13 3
0 0 0 0 0 0 0 0 0 0 0 6 0 33 1 1 0 7 0 1 5 5 5 2 8 18 23 38 21 18 18 15 4 21 34 68 38 25 34 28 11 13 25 20 27 59 45 36 37
0 0 0 0 0 0 0 0 0 0 0 0 0 0 61 0 1 28 0 0 1 4 2 1 7 6 1 28 22 32 2 2 16 22 45 89 26 41 31 17 32 39 19 33 37 70 85 82 68
0 0 0 0 0 0 0 0 0 0 0 0 0 0 27 1 6 42 1 0 1 5 4 0 2 0 11 10 1 7 8 10 3 5 19 56 40 50 52 33 57 32 76 78 35 74 103 102 86
0 0 0 0 0 0 0 0 0 0 0 0 0 0 0 11 4 11 7 0 0 3 6 1 0 1 0 0 3 14 19 3 1 5 2 45 38 63 71 67 117 102 123 130 100 61 79 151 123
0 0 0 0 0 0 0 0 0 0 0 0 0 0 0 3 0 12 3 13 0 1 3 9 0 0 0 5 8 8 16 0 0 2 22 23 26 72 115 132 135 121 176 184 101 115 155 162 153
0 0 0 0 0 0 0 0 0 0 0 0 0 0 0 0 0 0 22 11 11 0 0 10 10 0 0 0 2 2 9 6 2 5 16 0 0 50 75 127 103 136 101 120 198 116 87 113 129
0 0 0 0 0 0 0 0 0 0 0 0 0 0 0 0 0 0 3 28 33 3 0 9 0 0 0 0 0 0 1 3 6 12 8 2 4 33 19 61 145 204 176 206 202 146 110 81 42
0 0 0 0 0 0 0 0 0 0 0 0 0 0 0 0 0 0 0 23 48 85 1 0 0 0 0 0 0 0 0 0 1 1 3 2 13 7 17 77 78 89 60 96 123 128 110 101 87
0 0 0 0 0 0 0 0 0 0 0 0 0 0 0 0 0 0 0 9 46 90 102 0 0 0 0 0 0 0 0 0 0 0 1 1 1 5 0 10 18 30 36 55 92 122 120 115 123
0 0 0 0 0 0 0 0 0 0 0 0 0 0 0 0 0 0 0 0 29 62 117 93 0 0 0 0 0 0 0 0 0 0 0 0 0 0 0 0 1 6 30 51 86 111 104 90 129
0 0 0 0 0 0 0 0 0 0 0 0 0 0 0 0 0 0 0 0 7 25 85 122 100 18 3 0 0 0 0 0 0 0 0 0 0 0 0 0 0 0 0 2 27 62 79 77 129
0 0 0 0 0 0 0 0 0 0 0 0 0 0 0 0 0 0 0 0 1 9 47 118 129 110 86 63 28 1 0 0 0 0 0 0 0 2 0 0 0 0 0 0 6 27 43 32 85
0 0 0 0 0 0 0 0 0 0 0 0 0 0 0 0 0 0 0 0 4 28 44 60 117 126 128 152 158 76 2 0 0 0 0 0 0 0 0 0 0 0 0 0 2 0 54 50 82

GFSSGP_con_mucape_075.txt.gz
CAPE
0 0 0 0 0 0 0 0 0 0 0 0 0 0 0 0 1 22 1024 1194 1372 1593 1817 1480 1406 1490 1755 1596 1713 1713 1860 1809 1636 1516 1584 1642 1530 1493 1511 1373 1163 1176 1019 592 514 427 229 148 80
0 0 0 0 0 0 13 0 0 0 0 0 0 0 3 24 28 48 909 1407 1459 1516 1596 1531 1302 1527 1399 1396 1732 1745 2021 1922 1707 1716 1780 1786 1754 1615 1437 1222 1054 992 971 554 413 273 53 8 35
0 0 0 0 0 0 0 0 0 0 0 0 0 24 16 32 94 629 1392 1376 1778 1824 1631 1520 1214 718 522 405 266 1251 1770 1756 1702 1763 1882 1949 1824 1613 1366 1090 936 1014 927 464 296 84 26 1 3
0 0 0 0 0 0 0 0 0 0 0 0 1 1 64 605 360 993 1194 1280 1486 1914 1586 1044 690 388 191 48 17 439 1319 1569 1634 1707 1892 1876 1697 1473 1222 906 900 995 789 256 137 37 8 0 0
0 0 0 0 0 0 0 0 0 0 0 0 9 0 25 482 657 809 986 1123 1381 1885 1741 1281 672 457 463 108 132 1 957 1486 1633 1729 1644 1641 1481 1153 864 581 688 571 452 291 37 13 1 0 0
0 0 0 0 0 0 0 0 0 0 0 0 0 15 28 654 556 909 1022 1165 1276 1732 1940 1097 540 438 335 628 57 28 581 1140 1482 1474 1476 1467 1085 769 662 516 432 314 222 216 84 13 0 0 0
0 0 0 0 0 0 0 0 0 0 0 0 19 0 62 674 785 762 851 1181 1267 1358 1678 1624 1405 650 580 494 66 45 305 889 1301 1311 1227 1090 797 557 619 573 496 256 147 138 19 7 0 0 0
0 0 0 0 0 0 0 0 0 0 0 1 0 4 19 964 581 662 834 1181 1230 1172 1176 1449 1332 1082 899 820 301 276 307 369 797 998 924 656 507 588 510 463 340 197 127 60 6 1 0 0 0
0 0 0 0 0 0 0 0 0 0 0 0 0 41 547 678 586 670 798 991 1149 1129 886 841 1358 1285 1350 822 592 356 290 318 356 621 448 231 220 331 302 303 232 152 72 11 8 3 1 0 0
0 0 0 0 0 0 0 0 0 0 0 0 8 17 721 623 576 577 771 732 1043 907 1120 1226 1141 1031 966 424 267 234 398 619 243 274 106 40 89 332 307 336 172 96 0 4 3 1 0 0 0
0 0 0 0 0 0 0 0 0 0 0 0 4 0 468 695 576 507 495 630 798 758 782 912 1022 926 767 482 476 341 223 186 155 32 27 16 118 250 254 339 189 6 0 0 0 0 0 0 0
0 0 0 0 0 0 0 0 0 0 0 0 0 0 161 487 501 284 559 551 899 819 675 748 383 175 78 8 20 150 237 72 24 7 5 79 58 230 416 241 144 0 0 0 0 0 13 0 0
0 0 0 0 0 0 0 0 0 0 0 0 0 20 69 308 343 235 378 441 722 630 395 639 334 123 78 20 0 21 26 31 28 3 19 24 66 187 258 262 154 3 1 0 0 8 2 2 0
0 0 0 0 0 0 0 0 0 0 0 0 0 41 79 275 262 97 107 184 392 306 448 262 415 109 52 19 5 10 6 17 40 5 16 77 65 148 286 283 240 170 150 8 6 7 0 0 0
0 0 0 0 0 0 0 0 0 0 0 0 0 92 110 241 208 35 83 69 221 124 79 160 51 151 22 38 22 3 14 3 12 9 3 63 102 220 278 352 364 255 255 212 91 0 0 0 0
0 0 0 0 0 0 0 0 0 0 0 0 15 132 147 250 175 69 211 36 67 75 37 25 20 5 2 3 8 12 30 18 33 64 67 75 159 173 241 226 303 306 302 173 30 0 0 0 0
0 0 0 0 0 0 0 0 0 0 0 0 5 82 210 278 204 125 217 49 36 88 57 34 8 6 4 9 5 6 7 12 2 64 50 82 131 168 179 147 169 254 182 178 57 9 0 0 0
0 0 0 0 0 0 0 0 0 0 0 0 0 32 190 322 338 201 223 52 34 39 90 30 16 2 1 5 26 27 4 0 11 3 11 90 143 167 165 160 180 102 92 58 16 65 6 1 0
0 0 0 3 0 0 0 0 0 0 0 0 0 9 75 285 340 292 291 84 13 15 7 46 31 23 0 3 0 0 16 2 0 2 7 62 88 132 157 166 217 191 113 72 145 59 93 23 7
0 0 0 0 0 0 0 0 0 0 0 0 0 20 31 106 340 355 370 182 15 12 6 24 19 28 0 5 0 0 3 6 9 7 0 19 70 64 77 97 131 175 112 197 226 240 137 124 88
0 0 2 0 0 0 0 0 0 0 0 0 0 0 5 36 275 415 409 328 80 2 5 17 19 0 0 0 19 8 4 1 2 0 5 4 52 63 57 81 128 183 202 211 228 281 243 239 135
0 0 0 0 0 0 0 0 0 0 0 0 0 0 0 10 56 410 446 358 232 9 2 13 19 16 0 24 1 0 0 5 0 1 3 1 5 71 59 56 76 177 190 174 354 350 342 216 156
0 0 0 0 0 0 0 0 0 0 0 0 0 0 0 0 22 414 477 379 283 48 1 8 2 25 0 19 18 2 0 2 9 1 5 2 2 25 71 45 42 41 95 109 259 264 258 242 201
0 0 0 0 0 0 0 0 0 0 0 1 0 0 0 2 2 220 459 435 327 114 4 4 9 16 18 17 34 29 97 26 0 2 10 1 1 0 26 16 32 23 43 24 143 247 214 294 283
0 0 0 0 0 0 0 0 0 0 0 0 0 0 0 0 0 84 437 473 383 215 35 2 4 22 11 20 29 42 57 59 0 29 1 6 0 0 0 12 22 2 0 35 35 144 219 108 56
0 0 0 0 29 19 5 0 0 0 0 0 0 0 0 0 0 4 259 509 426 326 99 4 1 17 35 13 27 21 19 18 36 16 1 43 0 0 4 0 0 0 1 59 75 65 165 80 182
0 0 0 0 0 0 9 0 2 0 0 0 0 0 0 1 10 19 107 406 474 391 245 55 7 14 29 53 109 47 104 85 39 37 58 23 20 18 2 5 12 6 3 25 147 29 53 80 97
0 0 0 0 0 0 0 8 36 4 0 0 1 1 6 6 10 0 124 290 419 464 358 174 20 16 28 45 75 104 117 163 216 181 163 80 59 30 3 12 6 7 18 58 158 128 90 54 55
0 0 0 0 0 0 0 33 8 15 1 0 12 0 7 11 0 0 140 268 425 447 439 283 91 25 33 97 52 78 150 181 341 339 340 271 191 82 74 17 23 39 68 107 119 93 129 130 134
3 0 0 0 0 0 0 3 0 4 0 0 0 0 5 2 7 0 33 172 405 431 431 401 195 99 62 192 225 243 187 101 220 350 473 423 324 213 101 59 28 33 42 70 109 92 30 104 137

GFSSGP_con_mucape_078.txt.gz
CAPE
0 0 0 0 0 0 0 0 0 0 0 0 0 0 0 0 0 14 1296 1340 1248 1991 1847 1343 1453 1632 1999 1879 1757 1735 1824 1833 1643 1686 1611 1495 1504 1466 1387 1303 1271 1344 1241 817 635 524 368 365 548
0 0 0 0 0 0 0 0 0 0 0 0 0 0 0 0 31 12 1298 1391 1429 1353 1955 1475 1232 1381 1726 1548 847 1040 1440 1743 1733 1776 1784 1618 1650 1632 1522 1363 1134 1056 1180 662 622 484 179 171 415
0 0 0 0 0 0 0 0 0 0 0 0 0 0 1 0 214 418 1386 1253 1556 1590 1779 1586 1192 1071 967 898 511 458 436 1597 1710 1751 1904 1743 1825 1700 1537 1244 1119 1103 1208 839 493 117 34 43 49
0 0 0 0 0 0 0 0 0 0 0 0 0 0 41 63 26 687 834 1010 1297 1631 1723 1425 1140 651 656 684 420 60 18 97 1227 1377 1912 1916 1813 1698 1452 1130 921 1007 1214 601 260 24 0 0 0
0 0 0 0 0 0 0 0 0 0 0 0 0 0 0 472 577 746 827 984 1162 1826 2004 1327 945 714 418 411 379 148 35 34 506 1442 1811 1647 1679 1488 1242 967 790 940 935 435 30 4 0 0 0
0 0 0 0 0 0 0 0 0 0 0 0 0 0 39 691 497 1153 1077 1062 1307 1718 1919 1804 1150 680 576 336 305 50 35 1 184 1179 1543 1657 1377 1108 983 851 759 616 494 152 23 0 0 0 0
0 0 0 0 0 0 0 0 0 0 0 0 0 0 18 771 774 771 977 1421 1512 1541 1664 1709 1093 671 488 349 220 54 30 13 95 1169 1325 1167 915 764 791 728 634 517 154 39 20 0 0 0 0
0 0 0 0 0 0 0 0 0 0 0 0 0 0 5 997 659 837 1159 1332 939 1393 1346 1754 1901 1195 690 643 129 48 57 1 79 761 908 604 581 614 625 392 333 248 122 50 6 0 0 0 0
0 0 0 0 0 0 0 0 0 0 0 0 0 0 85 753 519 646 1139 1088 1038 974 1031 1178 1487 1438 1132 992 542 153 118 0 100 601 531 365 400 462 380 151 111 105 67 20 13 0 0 0 0
0 0 0 0 0 0 0 0 0 0 0 0 0 7 702 576 383 549 975 928 930 991 1106 987 928 1017 636 560 480 216 129 156 120 128 228 239 214 204 144 171 87 55 33 28 3 0 0 0 0
0 0 0 0 0 0 0 0 0 0 0 0 0 0 601 678 442 357 295 937 815 865 1007 1231 1153 916 532 307 340 119 222 144 136 133 113 88 8 33 101 119 50 5 1 0 0 0 0 0 0
0 0 0 0 0 0 0 0 0 0 0 0 0 0 0 0 224 263 201 607 708 902 846 677 766 375 245 227 193 284 265 190 107 48 53 4 9 20 93 110 23 0 0 0 0 0 0 0 0
0 0 0 0 0 0 0 0 0 0 0 0 0 0 0 0 27 156 111 361 837 864 663 685 462 124 8 0 8 87 101 106 65 48 18 6 10 13 31 77 15 0 0 0 0 0 0 0 0
0 0 0 0 0 0 0 0 0 0 0 0 0 0 0 0 46 91 127 192 787 518 545 658 392 140 2 0 0 3 8 47 63 13 5 17 7 36 50 76 1 2 0 0 0 0 0 0 0
0 0 0 0 0 0 0 0 0 0 0 0 0 0 0 0 85 50 22 47 589 315 457 444 348 111 61 2 0 1 34 6 20 13 3 3 16 25 71 65 24 27 4 0 0 0 0 0 0
0 0 0 0 0 0 0 0 0 0 0 0 0 0 0 0 68 21 0 37 322 180 127 251 73 83 26 29 0 0 7 7 11 5 3 9 11 15 112 113 97 111 29 4 3 0 0 0 0
0 0 0 0 0 0 0 0 0 0 0 0 0 0 0 11 97 22 7 56 15 132 36 104 12 54 12 7 3 0 1 9 1 0 3 3 16 33 91 153 194 216 118 114 9 5 0 0 0
0 0 0 0 0 0 0 0 0 0 0 0 0 4 9 31 92 61 16 61 0 108 89 37 11 0 5 3 1 12 11 3 3 1 4 1 0 27 74 61 81 79 103 80 4 12 2 0 0
0 0 0 0 0 0 1 0 0 0 0 10 0 0 13 69 101 160 132 81 15 101 94 8 3 3 0 4 0 1 0 0 11 4 0 0 0 20 57 75 84 75 65 49 5 25 3 5 0
5 0 0 0 0 0 0 0 0 0 0 0 1 3 2 35 77 232 215 102 5 24 34 7 12 2 0 0 1 1 1 0 3 5 6 9 0 23 43 56 65 97 95 33 75 27 48 29 13
0 0 0 0 0 0 1 0 0 0 0 0 0 0 0 29 45 220 332 258 0 12 0 4 14 14 3 3 0 0 0 4 9 0 0 1 1 42 49 82 77 76 57 104 76 74 81 54 16
0 0 0 0 0 0 5 0 0 0 0 0 0 0 0 0 31 213 386 348 72 5 0 0 4 6 3 6 3 0 0 0 2 7 3 5 2 17 25 52 83 97 97 102 112 159 171 161 67
0 0 0 0 0 0 0 0 0 0 0 0 0 0 0 0 1 107 391 385 279 42 13 0 0 6 10 0 1 6 5 5 0 4 1 6 5 16 30 11 48 63 85 104 118 157 198 139 101
0 0 0 0 0 0 0 0 0 0 0 0 3 1 0 0 0 23 422 405 295 85 4 0 0 9 9 0 3 10 53 3 0 2 1 6 0 5 1 14 10 45 73 97 152 160 178 135 79
0 0 0 0 0 0 0 0 0 0 0 2 0 0 0 0 0 4 344 361 311 141 12 10 0 5 9 14 6 0 0 0 0 0 6 3 1 4 1 0 4 7 35 55 88 100 109 64 26
0 0 0 0 0 0 0 0 0 0 0 0 0 0 0 2 19 2 185 408 383 262 38 0 0 0 2 3 5 3 3 9 2 0 2 0 0 1 1 10 9 7 1 5 5 4 43 37 45
0 0 0 0 0 1 9 2 0 0 0 0 0 0 0 0 0 0 23 462 441 366 75 0 0 0 0 2 3 13 4 21 10 4 4 0 0 6 5 11 2 6 2 0 1 7 4 15 29
0 0 0 0 0 0 6 56 7 0 0 0 0 5 0 3 43 36 26 519 497 473 261 57 0 0 19 2 0 3 28 11 6 14 4 3 0 0 0 0 0 2 4 8 7 7 2 0 12
0 0 0 0 0 0 0 5 73 8 0 27 21 0 6 34 35 8 57 356 600 596 440 186 43 0 3 39 11 0 1 5 5 26 16 4 10 0 0 0 0 0 0 7 8 14 9 2 9
10 0 0 0 0 0 0 14 3 0 0 0 0 0 0 0 1 30 37 216 470 602 553 400 192 23 2 11 32 25 29 10 8 28 5 7 8 7 0 0 0 0 0 0 2 4 7 0 7

GFSSGP_con_mucape_081.txt.gz
CAPE
0 0 0 0 0 0 0 0 0 0 0 0 0 0 0 0 19 344 1161 1098 1830 1855 1601 1649 1805 1981 1830 1819 1719 1737 1806 1667 1815 1753 1585 1430 1437 1411 1308 1166 1169 1319 1395 1049 780 521 470 656 799
0 0 0 0 0 0 0 0 0 0 0 0 0 0 0 0 651 1312 1257 1298 1388 1817 1551 1315 1557 1925 1935 1832 1767 1779 1943 1818 1911 1836 1713 1616 1591 1517 1397 1459 1399 1469 1453 1036 547 577 485 807 655
0 0 0 0 0 0 0 0 0 0 0 0 0 0 0 160 358 1172 1111 1414 1572 1627 1753 1687 1303 1736 1676 1399 1274 1211 1302 805 1553 1785 1816 1754 1752 1761 1648 1343 1250 1269 1327 1027 719 406 601 584 390
0 0 0 0 0 0 0 0 0 0 0 0 0 0 136 60 374 1249 939 1260 1479 1514 1665 1562 1292 1297 1384 1076 812 761 397 323 90 234 1743 1896 1880 1837 1488 1113 1113 1154 1268 990 406 418 455 242 187
0 0 0 0 0 0 0 0 0 0 0 0 0 0 68 552 704 724 934 937 1158 1487 1547 1501 1244 870 971 638 459 273 217 122 15 5 368 1375 1698 1491 1339 1041 906 1009 1020 690 316 315 134 52 13
0 0 0 0 0 0 0 0 0 0 0 0 0 0 209 500 688 846 812 1045 1030 1545 1520 1478 1173 794 527 543 396 255 205 35 78 6 16 865 1400 1266 1103 867 738 803 533 294 166 48 21 6 0
0 0 0 0 0 0 0 0 0 0 0 0 0 0 362 625 833 791 1031 1098 1130 1133 1267 1435 1123 1002 608 272 308 132 37 64 0 0 32 544 1024 905 865 767 693 529 333 147 32 3 0 0 0
0 0 0 0 0 0 0 0 0 0 0 0 0 0 443 587 521 804 943 904 896 972 650 1192 1154 872 448 321 158 79 36 6 15 0 8 623 637 658 610 584 486 329 216 58 13 0 0 0 0
0 0 0 0 0 0 0 0 0 0 0 0 0 0 213 585 468 777 885 681 794 775 770 977 1266 1226 623 399 191 79 14 46 37 33 1 453 377 390 337 237 192 132 52 17 0 0 0 0 0
0 0 0 0 0 0 0 0 0 0 0 0 0 336 531 310 237 469 868 708 747 679 657 728 809 937 701 579 224 52 72 31 7 23 64 221 243 220 161 103 72 70 1 0 0 0 0 0 0
0 0 0 0 0 0 0 0 0 0 0 0 0 325 378 193 162 188 450 689 660 745 799 754 714 604 433 473 279 159 69 30 0 2 91 181 152 142 35 12 3 2 1 0 0 0 0 0 0
0 0 0 0 0 0 0 0 0 0 0 0 0 53 356 378 218 111 143 673 622 663 830 921 836 563 428 250 202 132 54 30 32 96 110 123 94 31 3 2 0 0 0 0 0 0 0 0 0
0 0 0 0 0 0 0 0 0 0 0 0 0 0 0 0 65 9 47 508 689 625 559 566 476 474 446 300 117 46 62 52 31 63 78 38 22 14 0 1 0 0 0 0 0 0 0 0 0
0 0 0 0 0 0 0 0 0 0 0 0 0 0 0 0 0 0 168 485 710 664 515 440 274 194 1 9 1 41 51 45 43 62 44 13 8 30 0 4 0 0 0 0 0 0 0 0 0
0 0 0 0 0 0 0 0 0 0 0 0 0 0 0 0 0 0 0 484 594 530 429 371 159 10 0 0 0 0 26 18 29 45 55 11 15 25 8 5 0 0 0 0 0 0 0 0 0
0 0 0 0 0 0 0 0 0 0 0 0 0 0 0 0 0 0 0 95 351 364 267 266 182 58 0 0 0 3 21 10 31 39 7 6 11 23 9 6 0 0 0 0 4 3 0 0 0
0 0 0 0 0 0 0 0 0 0 0 0 0 0 0 0 0 0 0 62 147 205 136 95 72 125 12 0 0 1 0 4 20 18 18 8 7 4 4 2 1 0 2 0 4 5 0 0 0
0 0 0 0 0 0 0 0 0 0 0 0 0 0 0 0 1 0 0 0 60 26 15 5 7 25 22 9 4 7 5 2 0 20 7 9 1 5 3 14 45 42 36 0 13 9 0 0 0
0 0 0 0 0 0 0 0 0 0 0 0 0 0 0 2 12 7 8 0 0 0 0 0 51 0 35 12 0 5 0 3 3 19 12 7 1 5 20 3 41 86 73 5 19 8 0 0 0
0 1 0 0 0 0 0 0 0 0 0 0 0 0 0 0 14 35 15 13 0 0 0 0 1 7 7 2 6 5 1 0 1 10 16 14 11 8 9 10 22 34 53 42 21 7 0 0 0
0 2 1 3 4 0 0 0 0 0 0 0 0 0 0 4 18 37 29 27 0 0 0 0 1 2 3 3 6 0 0 0 0 3 9 10 3 4 3 6 18 37 35 34 38 8 5 0 0
0 0 9 0 0 4 0 0 0 0 0 0 0 0 0 0 21 60 48 23 25 0 0 0 0 0 1 7 0 1 0 7 0 0 0 1 11 10 3 1 2 7 33 50 23 19 0 7 0
0 0 0 0 0 10 0 0 0 0 0 0 0 0 0 0 7 77 51 37 46 31 0 0 0 3 6 0 0 3 0 0 0 0 4 2 4 17 6 1 10 24 46 44 48 13 38 34 2
11 0 0 0 0 3 1 0 0 0 0 0 0 0 0 0 2 108 78 89 96 79 6 0 0 4 1 0 0 2 2 0 2 0 0 16 11 10 0 2 2 0 48 59 36 73 100 73 57
0 0 0 1 0 0 0 0 0 0 0 0 0 0 0 0 0 117 149 170 171 146 64 0 0 0 2 3 3 2 1 3 2 1 0 19 14 5 6 0 8 5 36 55 82 96 99 117 95
0 0 1 2 0 0 0 0 0 0 0 0 0 0 0 0 0 169 220 228 236 185 120 44 0 0 0 4 2 2 5 1 1 6 5 6 13 15 18 6 1 10 28 63 115 126 129 122 89
0 0 0 0 0 0 0 0 0 0 0 0 0 0 0 0 4 249 288 289 263 211 148 98 36 0 0 1 0 1 0 0 0 4 5 1 0 6 20 12 8 2 14 38 72 104 96 86 49
0 0 0 0 0 0 0 0 12 0 0 0 0 0 0 5 9 87 340 315 250 232 181 144 111 25 0 0 0 4 0 0 2 1 3 1 3 0 1 3 5 6 14 23 14 25 59 78 45
0 0 0 0 0 0 0 5 2 0 0 0 0 1 0 0 8 22 54 313 284 284 252 187 165 122 2 0 0 1 7 7 9 2 4 2 3 0 0 0 0 0 1 4 12 9 5 6 5
0 0 0 0 0 0 0 9 0 0 0 0 1 12 4 2 2 0 1 286 352 321 299 268 224 208 158 0 0 0 0 0 4 4 1 6 3 2 2 0 0 0 0 0 0 0 0 0 2

GFSSGP_con_mucape_084.txt.gz
CAPE
0 0 0 0 0 0 0 0 0 0 0 0 0 0 0 0 1 8 937 1387 1633 1547 1624 1686 1657 1815 1877 1839 1814 1811 1925 1935 1851 1640 1581 1507 1527 1441 1392 1308 1433 1566 1617 1244 1016 944 815 680 884
0 0 0 0 0 0 0 0 0 0 0 0 0 0 0 328 1095 1164 1093 1655 1665 1577 1492 1800 1722 1776 1881 1824 1860 1917 1996 1989 1947 1763 1675 1615 1588 1510 1395 1278 1289 1446 1531 1183 851 848 685 972 687
0 0 0 0 0 0 0 0 0 0 0 0 0 0 0 97 1172 1160 1120 1642 1820 1640 1358 1483 1867 1760 1932 1868 1887 1914 1905 1968 1966 1653 1302 1418 1633 1588 1652 1459 1356 1431 1193 485 908 815 940 722 393
0 0 0 0 0 0 0 0 0 0 0 0 0 5 22 103 1142 1172 1245 1336 1714 1637 1533 1356 1619 1870 1628 1404 1804 1477 1320 1048 625 248 118 368 909 1817 1768 1466 1356 1334 1225 1148 1102 867 755 523 159
0 0 0 0 0 0 0 0 0 0 0 0 0 0 155 742 912 962 1263 1430 1631 1619 1536 1426 1503 1735 1682 1341 1169 1029 789 536 229 105 37 231 397 1063 1468 1264 1235 1167 1011 984 864 778 536 311 80
0 0 0 0 0 0 0 0 0 0 0 0 0 0 259 642 770 898 927 1086 1368 1544 1504 1355 1166 1218 1229 1025 870 824 651 380 137 61 21 266 270 680 998 1096 821 823 716 662 668 429 200 21 0
0 0 0 0 0 0 0 0 0 0 0 0 0 1 456 554 676 748 895 1126 1377 1466 1431 1400 1127 981 789 737 549 366 270 332 150 148 102 211 202 408 612 630 743 622 532 508 383 181 15 0 0
0 0 0 0 0 0 0 0 0 0 0 0 0 75 411 535 783 999 976 895 812 926 1218 1231 950 1384 866 559 390 165 234 98 45 146 104 257 201 251 501 526 592 461 404 308 206 33 5 0 0
0 0 0 0 0 0 0 0 0 0 0 0 0 0 0 629 854 944 834 673 667 547 568 1118 804 758 564 476 336 228 115 71 55 51 69 43 10 179 250 318 340 339 193 110 34 0 0 0 0
0 0 0 0 0 0 0 0 0 0 0 0 0 317 443 566 673 728 705 490 483 469 499 702 1033 1087 829 552 373 189 71 73 61 50 8 28 179 129 259 229 191 160 76 37 0 0 0 0 0
0 0 0 0 0 0 0 0 0 0 0 0 0 321 526 544 422 537 611 506 533 467 515 543 856 980 709 713 475 201 83 62 57 15 11 167 145 151 221 164 73 10 0 0 0 0 0 0 0
0 0 0 0 0 0 0 0 0 0 0 0 0 234 363 264 179 255 420 549 581 605 626 591 817 614 579 668 550 209 87 89 67 130 166 122 101 121 124 61 6 0 0 0 0 0 0 0 0
0 0 0 0 0 0 0 0 0 0 0 0 0 120 215 80 105 123 100 287 530 613 709 725 674 661 457 336 480 169 104 52 46 63 112 93 77 97 104 26 1 0 0 0 0 0 0 0 0
0 0 0 0 0 0 0 0 0 0 0 0 0 9 94 118 169 69 49 497 528 549 685 633 565 389 434 366 190 210 61 40 68 97 78 69 64 103 80 9 2 1 0 0 0 0 0 0 0
0 0 0 0 0 0 0 0 0 0 0 0 0 0 0 9 55 11 27 392 517 416 443 395 235 72 32 8 69 97 133 45 50 102 75 77 63 51 1 5 3 0 0 0 0 0 0 0 0
0 0 0 0 0 0 0 0 0 0 0 0 0 0 0 0 0 0 141 354 496 453 407 314 177 62 0 0 0 1 6 20 33 91 99 67 36 2 1 27 15 0 0 0 0 0 0 0 0
0 0 0 0 0 0 0 0 0 0 0 0 0 0 0 0 0 0 135 334 453 388 273 201 106 33 1 0 0 0 9 19 29 42 59 43 30 1 8 12 2 0 0 0 0 0 0 0 0
0 0 0 0 0 0 0 0 0 0 0 0 0 0 0 0 0 0 17 238 345 179 114 77 47 7 5 0 3 1 7 0 21 18 36 56 27 8 8 10 1 0 0 0 0 0 0 0 0
0 0 0 0 0 0 0 0 0 0 0 0 0 0 0 0 0 31 33 129 141 103 47 0 0 3 2 3 1 19 0 1 14 41 53 53 19 14 4 8 6 0 0 3 6 0 0 7 3
0 0 0 0 0 0 0 0 0 0 0 0 0 0 0 0 0 47 27 61 76 62 26 0 0 5 10 4 3 0 0 0 7 20 13 25 9 7 18 3 1 8 7 20 20 22 5 3 14
0 0 0 0 0 0 1 0 0 0 0 0 0 0 0 0 0 38 35 49 41 58 29 0 0 5 4 1 10 4 0 0 0 6 8 24 6 6 7 8 14 1 16 11 30 29 8 6 13
0 0 0 0 0 0 0 0 0 0 0 0 0 0 0 0 0 47 52 56 70 65 47 0 0 5 7 4 3 3 0 0 0 0 12 15 4 8 21 11 2 32 34 52 54 37 28 13 8
0 0 0 0 0 0 0 3 0 0 0 0 0 0 0 0 0 13 60 72 83 57 60 0 0 1 0 5 3 3 4 0 0 0 0 2 6 9 2 12 8 30 53 76 56 48 47 8 1
0 0 0 0 0 0 0 4 0 0 0 0 0 0 0 0 0 2 67 74 108 64 64 6 0 1 1 18 3 3 0 0 1 0 0 0 2 5 11 2 2 4 43 45 42 33 26 55 11
0 0 0 0 0 0 0 0 0 0 0 0 0 0 0 0 0 3 59 108 126 82 68 36 0 0 2 11 6 4 5 0 0 0 0 4 1 8 12 1 6 6 5 26 30 0 30 41 33
0 0 0 0 0 0 0 0 0 0 0 0 0 0 0 0 6 57 75 118 137 96 82 65 0 0 0 4 9 2 6 0 0 2 0 0 0 4 1 3 0 3 0 0 17 54 63 69 45
0 0 0 0 0 0 0 1 0 15 0 0 0 0 0 0 33 84 107 141 148 152 133 108 20 0 0 0 6 9 4 2 1 2 3 0 0 6 21 10 12 1 8 24 36 38 43 64 76
0 0 0 0 0 0 0 39 52 1 0 0 0 0 0 0 45 87 141 193 199 219 213 154 91 12 0 0 0 6 3 3 2 3 2 2 1 0 6 10 10 15 11 10 31 46 61 66 70
0 0 0 0 0 0 0 65 16 0 0 0 0 0 0 1 50 130 205 293 305 280 272 201 135 100 55 3 0 0 0 3 7 1 0 4 2 5 3 3 0 1 0 1 3 7 10 14 20
0 0 0 0 2 0 0 6 0 0 0 0 0 0 3 0 0 66 330 321 312 292 349 301 210 164 164 135 32 0 2 0 1 2 2 5 1 1 7 2 0 0 0 0 0 0 0 0 6

GFSSGP_con_mucape_087.txt.gz
CAPE
0 0 0 0 0 0 0 0 0 0 0 0 0 0 0 0 0 0 613 923 1230 1268 1501 1457 1640 1817 1840 1712 1717 1906 1915 1886 1769 1811 1733 1708 1721 1721 1652 1738 1706 1662 1285 1084 1415 1501 989 932 1008
0 0 0 0 0 0 0 0 0 0 0 0 0 0 0 92 985 868 948 1340 1287 1322 1570 1477 1619 1815 1890 1876 1883 2014 2003 1857 1844 1788 1767 1302 1208 1490 1353 1425 1656 1461 1420 1459 1312 1260 982 971 839
0 0 0 0 0 0 0 0 0 0 0 0 0 0 0 42 994 973 967 1472 1440 1385 1589 1582 1623 1780 1905 1950 1931 1978 1963 1851 1825 1797 1591 1304 1261 1163 1217 1455 1452 1537 1542 817 1213 1180 922 740 478
0 0 0 0 0 0 0 0 0 0 0 0 0 0 0 271 924 1024 1159 1639 1646 1485 1409 1715 1568 1709 1928 2040 1992 1951 1872 1109 907 960 974 812 737 816 1013 1093 1109 1264 1200 1230 1438 907 816 401 190
0 0 0 0 0 0 0 0 0 0 0 0 0 0 39 564 902 1050 1256 1645 1620 1453 1308 1557 1824 1751 1916 2067 1846 1684 1080 870 343 231 317 106 254 269 397 648 923 1112 1097 1291 1151 746 486 242 83
0 0 0 0 0 0 0 0 0 0 0 0 0 5 67 761 984 1131 1257 1399 1585 1454 1395 1293 1792 1902 1704 1677 1565 1155 748 401 250 159 157 38 77 388 283 473 620 940 750 909 674 580 283 65 30
0 0 0 0 0 0 0 0 0 0 0 0 0 12 111 749 692 1030 1204 1331 1519 1509 1403 1248 1442 1630 1653 1468 1396 1045 945 416 232 124 215 337 216 192 159 432 597 664 597 545 562 442 76 52 4
0 0 0 0 0 0 0 0 0 0 0 0 0 47 178 563 763 799 1021 1178 1375 1443 1347 1256 1207 910 893 786 745 968 652 335 333 320 160 327 277 104 171 256 299 336 655 477 388 123 0 3 1
0 0 0 0 0 0 0 0 0 0 0 0 0 17 0 446 638 676 758 855 1032 1157 1215 1204 918 590 669 604 595 520 334 158 188 228 345 172 37 204 88 104 140 241 323 362 162 24 9 3 0
0 0 0 0 0 0 0 0 0 0 0 0 0 99 202 537 739 710 602 535 441 485 757 943 910 488 535 502 488 358 246 172 114 95 198 181 97 167 116 96 112 165 203 166 90 21 11 9 0
0 0 0 0 0 0 0 0 0 0 0 0 0 20 401 619 727 637 481 385 345 327 360 709 897 635 577 516 516 388 270 125 80 80 55 170 90 191 142 141 136 103 69 56 55 2 0 0 0
0 0 0 0 0 0 0 0 0 0 0 0 0 0 316 564 623 531 398 284 266 261 287 349 791 732 722 555 400 304 204 94 43 62 89 86 80 77 104 133 98 59 33 4 1 0 0 0 0
0 0 0 0 0 0 0 0 0 0 0 0 0 2 165 312 443 479 271 294 328 357 367 370 699 683 620 654 670 444 173 70 64 63 56 45 84 98 117 90 83 29 24 8 0 0 0 0 0
0 0 0 0 0 0 0 0 0 0 0 0 0 0 66 222 372 280 162 196 412 436 461 403 659 561 513 512 526 470 191 81 58 79 74 90 102 84 92 36 82 5 5 0 0 0 0 0 0
0 0 0 0 0 0 0 0 0 0 0 0 0 0 25 65 82 57 126 89 391 457 500 489 520 520 397 272 183 183 160 60 66 65 99 90 100 104 73 62 85 0 0 0 0 0 0 0 0
0 0 0 0 0 0 0 0 0 0 0 0 0 0 0 0 0 19 118 64 336 458 483 449 428 286 169 193 174 104 54 91 47 46 75 86 69 67 75 110 31 0 0 0 0 0 0 0 0
0 0 0 0 0 0 0 0 0 0 0 0 0 0 0 0 0 9 144 130 362 435 394 334 202 61 27 7 0 18 24 62 41 77 75 55 43 55 69 90 0 1 0 0 0 0 0 5 11
0 0 0 0 0 0 0 0 0 0 0 0 0 0 0 0 0 0 36 167 328 375 283 248 100 40 10 0 0 3 9 14 23 26 30 39 52 72 49 5 20 0 0 0 0 3 2 4 12
0 0 0 0 0 0 0 0 0 0 0 0 0 0 0 0 0 0 31 214 326 370 285 123 49 19 0 0 0 2 7 10 8 37 7 34 55 62 13 16 11 0 0 0 0 0 6 4 0
0 0 0 0 0 0 0 0 0 0 0 0 0 0 0 0 0 0 75 232 324 342 437 72 8 4 0 0 0 0 5 4 4 3 16 29 55 27 20 3 17 4 0 0 0 0 9 4 0
0 0 0 0 0 0 0 0 0 0 0 0 0 0 0 0 0 0 58 202 250 238 204 118 0 1 0 0 1 0 1 0 0 7 18 31 42 31 36 8 12 9 0 0 5 0 3 3 1
0 0 0 0 0 0 0 0 0 0 0 0 0 0 0 0 0 0 9 102 170 119 81 44 0 8 0 0 0 2 0 0 0 3 4 7 10 38 15 9 7 15 2 2 0 26 20 18 23
0 0 0 0 0 0 0 0 0 0 0 0 0 0 0 0 0 0 66 94 75 60 63 52 24 6 3 0 0 0 2 0 0 0 3 5 13 38 5 7 16 21 18 4 7 0 66 75 35
0 0 0 0 0 0 0 0 0 0 0 0 0 0 0 0 0 0 37 55 58 47 63 65 32 3 2 3 0 0 0 0 2 1 0 0 21 14 5 33 17 8 5 1 1 2 58 77 45
0 0 0 0 0 0 0 0 0 0 0 0 0 0 0 0 0 0 0 38 77 63 73 83 41 18 2 10 6 2 2 0 1 1 0 0 0 3 13 2 1 17 10 5 12 25 74 66 46
0 0 0 0 0 0 0 0 0 1 0 0 0 0 0 0 0 0 6 10 92 102 106 88 60 31 0 2 3 2 0 0 0 0 0 0 1 2 14 0 0 4 12 11 26 34 29 44 21
0 0 0 0 0 0 0 0 0 9 0 0 0 0 0 0 0 0 0 8 61 140 160 150 69 44 2 4 3 6 3 1 0 0 0 0 0 0 1 6 4 1 7 18 14 22 0 11 0
0 0 0 0 0 0 0 0 109 36 1 0 0 0 0 0 0 0 0 18 54 172 190 173 108 74 0 2 3 3 1 1 1 1 0 0 0 0 0 8 9 14 13 17 9 3 25 5 11
0 0 0 0 0 0 0 32 57 43 0 0 0 0 0 0 22 67 34 5 51 169 206 189 154 136 37 0 1 2 1 4 3 1 2 2 1 0 0 0 2 1 3 12 10 6 7 8 15
0 0 0 0 0 58 0 0 100 8 3 0 0 0 0 0 231 179 123 92 116 206 261 188 183 179 100 100 27 0 1 6 7 2 2 3 3 4 2 1 0 0 2 0 1 6 9 8 15

GFSSGP_con_mucape_090.txt.gz
CAPE
0 0 0 0 0 0 0 0 0 0 0 0 0 0 0 0 0 0 258 950 970 1053 1121 1295 1500 1655 1662 1611 1660 1861 1969 2005 2224 2176 2069 2029 1975 1863 1875 1828 1735 1725 1788 1631 1519 1600 1265 963 1038
0 0 0 0 0 0 0 0 0 0 0 0 0 0 0 0 570 473 746 1027 1296 1193 1710 1311 1497 1611 1671 1733 1797 1910 1828 2026 1763 2215 2144 1696 1701 1535 1460 1469 1628 1629 1673 1756 1488 1468 1257 1056 1046
0 0 0 0 0 0 0 0 0 0 0 0 0 0 0 0 762 699 781 1119 1190 1328 1298 1295 1509 1564 1677 1732 1819 1865 1994 1943 2016 2076 1628 1667 1595 1606 1613 1473 1498 1568 1737 1557 1393 1429 1220 1031 737
0 0 0 0 0 0 0 0 0 0 0 0 0 0 0 69 548 818 987 1311 1285 1322 1282 1545 1513 1619 1734 1774 1861 1925 1876 1804 1797 1616 1588 1663 1595 1352 1086 1296 1104 1375 1422 1271 1333 1446 1101 637 430
0 0 0 0 0 0 0 0 0 0 0 0 0 0 0 168 747 891 1399 1353 1330 1291 1332 1625 1512 1563 1767 1884 1843 1778 1494 1398 1243 1227 1257 1212 963 1085 782 799 685 797 1148 1399 1342 1198 739 398 241
0 0 0 0 0 0 0 0 0 0 0 0 0 0 0 159 863 1052 1489 1480 1464 1264 1143 1512 1614 1534 1737 1752 1284 1026 909 979 918 960 979 678 552 493 562 685 576 410 737 1174 1053 733 464 299 145
0 0 0 0 0 0 0 0 0 0 0 0 0 0 0 446 885 1012 1073 1295 1387 1229 1142 1214 2454 1907 1529 1446 1147 1006 762 593 678 523 404 431 347 355 512 577 599 765 894 880 771 442 303 161 100
0 0 0 0 0 0 0 0 0 0 0 0 0 0 0 219 689 1029 1149 1314 1401 1256 1230 1719 1923 1768 1658 1582 1267 1075 809 497 377 366 559 180 108 67 512 427 274 314 677 722 422 199 185 71 22
0 0 0 0 0 0 0 0 0 0 0 0 0 0 0 216 566 967 931 1084 1310 1300 1266 1246 1208 1472 1237 1130 1047 1019 908 668 427 477 405 207 94 199 181 206 295 370 213 250 208 90 61 17 0
0 0 0 0 0 0 0 0 0 0 0 0 0 0 33 380 605 742 790 795 1018 1361 1130 1118 848 607 560 780 639 825 808 545 330 242 153 223 170 62 125 118 161 182 133 167 138 23 5 14 0
0 0 0 0 0 0 0 0 0 0 0 0 0 0 88 291 528 604 569 520 677 752 800 924 948 539 384 371 255 495 435 400 191 100 117 170 121 113 59 75 126 130 101 104 64 3 0 0 0
0 0 0 0 0 0 0 0 0 0 0 0 0 0 18 295 411 489 469 424 292 196 360 568 708 670 369 333 337 383 380 305 245 157 50 94 72 158 97 82 112 120 70 58 14 0 8 6 1
0 0 0 0 0 0 0 0 0 0 0 0 0 0 0 134 352 428 453 412 248 168 174 285 446 642 388 282 416 371 312 145 106 31 36 94 63 75 130 145 128 98 49 48 52 9 19 8 0
0 0 0 0 0 0 0 0 0 0 0 0 0 0 0 16 182 343 416 423 179 158 171 195 296 594 305 248 467 257 327 116 91 26 32 62 99 76 122 136 112 69 56 41 33 8 22 4 0
0 0 0 0 0 0 0 0 0 0 0 0 0 0 0 0 50 192 224 393 213 176 283 226 239 485 396 418 497 199 322 81 127 51 90 59 18 86 60 76 87 73 36 26 59 32 9 5 0
0 0 0 0 0 0 0 0 0 0 0 0 0 0 0 0 5 58 152 202 148 192 379 309 229 483 370 283 352 183 14 89 104 123 42 34 63 57 16 16 27 58 24 21 27 2 1 0 0
0 0 0 0 0 0 0 0 0 0 0 0 0 0 0 0 0 0 26 128 70 129 413 387 244 433 356 159 78 116 37 28 72 70 42 37 54 21 29 21 61 66 33 15 11 0 0 0 0
0 0 0 0 0 0 0 0 0 0 0 0 0 0 0 0 0 0 0 0 19 107 367 414 278 332 235 40 3 3 154 19 17 14 41 42 27 75 43 60 70 80 17 11 11 0 0 1 0
0 0 0 0 0 0 0 0 0 0 0 0 0 0 0 0 0 0 0 0 35 115 385 420 265 159 28 0 0 3 5 7 32 6 11 23 47 38 64 57 76 56 11 33 7 0 8 13 3
0 0 0 0 0 0 0 0 0 0 0 0 0 0 0 0 0 0 0 20 85 114 399 388 219 82 18 0 0 0 7 11 8 9 12 29 11 29 56 51 78 38 1 39 14 0 2 5 13
0 0 0 0 0 0 0 0 0 0 0 0 0 0 0 0 0 0 0 35 89 115 284 352 221 56 13 2 1 0 3 1 0 3 13 8 8 9 17 40 19 6 7 0 0 0 8 3 17
0 0 0 0 0 0 0 0 0 0 0 0 0 0 0 0 0 0 0 56 113 121 224 290 267 40 0 0 0 0 0 0 0 0 0 19 1 24 49 43 22 27 12 5 0 13 28 15 8
0 0 0 0 0 0 0 0 0 0 0 0 0 0 0 0 0 0 0 51 129 118 255 320 252 95 23 1 1 1 0 0 0 3 0 15 9 12 5 40 13 10 16 12 0 0 12 12 19
0 0 0 0 0 0 0 0 0 0 0 0 0 0 0 0 0 0 0 7 60 105 216 325 206 36 26 1 5 1 0 0 0 0 0 1 10 0 22 19 6 16 8 7 0 1 0 34 31
0 0 0 0 0 0 0 0 0 0 0 0 0 0 0 0 0 0 0 1 26 37 187 241 108 39 42 7 3 1 0 0 0 0 0 0 2 1 6 4 11 5 5 15 9 0 0 0 16
0 0 0 0 0 0 0 0 0 0 0 0 0 0 0 0 0 0 0 0 29 17 128 95 71 61 55 7 2 4 0 0 0 4 2 0 0 0 14 15 14 27 11 6 16 3 0 6 0
0 0 0 0 0 0 0 0 0 0 0 0 0 0 0 0 0 0 0 0 17 18 45 110 80 68 71 31 1 3 5 0 0 0 2 2 0 0 12 17 25 5 6 16 2 17 14 4 2
0 0 0 0 0 0 0 0 0 1 0 0 0 0 0 7 0 0 0 0 12 12 20 112 94 93 75 50 1 3 5 2 1 0 1 0 0 0 0 9 6 0 0 1 3 10 6 3 4
0 0 0 0 0 0 0 0 50 2 0 0 0 15 48 152 170 0 0 0 13 4 2 69 100 112 93 67 0 1 5 1 4 3 0 0 0 0 0 0 0 0 0 5 9 28 7 2 19
0 0 0 0 0 0 0 0 1 22 1 0 28 52 110 170 286 125 2 1 12 11 2 68 118 167 130 82 0 3 4 1 5 1 4 3 1 0 0 0 0 0 0 0 8 5 11 4 0

GFSSGP_con_mucape_093.txt.gz
CAPE
0 0 0 0 0 0 0 0 0 0 0 0 0 0 0 0 0 0 65 1187 1087 1404 1444 1338 1157 1400 1366 1615 1717 1865 2024 2349 2287 2217 2173 2154 2120 2039 1963 2033 1911 1929 1926 1914 1576 1838 1673 1402 1361
0 0 0 0 0 0 0 0 0 0 0 0 0 0 0 0 82 268 582 1316 1135 1355 1337 1376 1262 1407 1570 1700 1865 1594 1877 2357 2407 2327 2307 2238 2137 2056 2120 2016 1868 1870 2023 2081 1616 1551 1288 1321 1143
0 0 0 0 0 0 0 0 0 0 0 0 0 0 0 0 664 553 746 1482 1375 1277 1186 1349 1061 1321 1426 1766 1894 1771 1669 1954 2293 1985 1960 1632 1641 1624 1509 1484 1723 1891 1962 2097 1923 1544 1484 1238 840
0 0 0 0 0 0 0 0 0 0 0 0 0 0 0 6 803 842 1028 1505 1507 1182 1231 1098 1057 1220 1454 1716 1909 1983 1638 1718 1974 1934 1823 1913 1636 1424 1227 1177 1050 1394 1887 1939 1761 1635 1250 897 724
0 0 0 0 0 0 0 0 0 0 0 0 0 0 0 114 474 996 1495 1479 1558 1201 1171 1390 1174 1241 1459 1651 1791 1877 1736 1706 1771 1856 1954 1892 1760 1504 1205 926 710 895 1149 1569 1567 1355 947 632 428
0 0 0 0 0 0 0 0 0 0 0 0 0 0 0 228 925 1317 1639 1637 1612 1639 1334 1881 1325 1245 1359 1527 1555 1579 1378 1327 1256 1403 1427 1407 1212 1055 913 777 653 579 866 1152 1269 960 689 421 285
0 0 0 0 0 0 0 0 0 0 0 0 0 0 0 470 932 1427 1704 1597 1506 1411 1478 1856 1909 1560 1342 1327 1185 1249 1027 1006 1077 920 1062 913 703 628 600 630 797 786 672 890 915 655 426 313 219
0 0 0 0 0 0 0 0 0 0 0 0 0 0 0 62 817 1159 1330 1490 1357 1187 1060 1740 1582 1758 1804 1535 1097 1005 825 792 742 740 511 348 285 206 307 248 599 597 473 732 705 379 305 255 205
0 0 0 0 0 0 0 0 0 0 0 0 0 0 0 227 773 990 842 1131 1152 1128 1112 1523 1553 1655 1543 1238 1117 1054 761 741 559 483 384 206 158 154 154 110 168 478 294 495 424 294 253 226 174
0 0 0 0 0 0 0 0 0 0 0 0 0 0 124 553 924 1123 867 1034 1002 1091 1115 1613 1451 1170 1249 977 1047 884 1255 1012 887 608 575 555 412 342 205 331 210 288 138 214 237 228 235 157 100
0 0 0 0 0 0 0 0 0 0 0 0 0 0 15 489 807 1003 983 954 826 871 892 1440 1569 1008 1129 677 841 798 1169 1273 1097 792 426 605 709 479 326 596 764 442 169 117 166 145 140 91 23
0 0 0 0 0 0 0 0 0 0 0 0 0 0 0 0 398 876 893 904 720 680 931 952 1331 1043 463 539 470 482 466 998 927 802 478 569 406 338 337 239 482 462 167 98 94 202 99 17 4
0 0 0 0 0 0 0 0 0 0 0 0 0 0 0 0 0 399 811 782 544 613 727 747 1078 1029 516 536 179 186 354 360 533 357 224 366 123 356 361 205 385 133 73 29 69 108 33 1 0
0 0 0 0 0 0 0 0 0 0 0 0 0 0 0 0 0 75 564 704 451 434 441 555 735 416 682 395 522 134 222 452 534 176 110 207 172 366 462 270 241 222 72 55 91 78 10 0 0
0 0 0 0 0 0 0 0 0 0 0 0 0 0 0 0 0 27 257 658 530 379 273 273 229 471 627 983 528 227 170 134 19 59 95 34 176 271 368 137 113 126 19 50 68 78 54 43 0
0 0 0 0 0 0 0 0 0 0 0 0 0 0 0 0 0 0 54 258 379 351 323 244 94 549 524 787 645 290 305 10 47 8 34 104 57 66 68 90 40 23 16 14 46 98 103 62 0
0 0 0 0 0 0 0 0 0 0 0 0 0 0 0 0 0 0 0 6 36 251 316 379 153 288 258 454 434 733 253 74 29 25 76 68 50 42 60 79 42 48 17 30 31 103 99 39 1
0 0 0 0 0 0 0 0 0 0 0 0 0 0 0 0 0 0 0 0 0 139 345 444 201 360 214 318 295 428 66 31 34 29 67 43 23 38 29 11 19 46 7 46 57 132 96 68 0
0 0 0 0 0 0 0 0 0 0 0 0 0 0 0 0 0 0 0 0 0 74 335 365 200 268 163 167 113 78 3 15 25 29 73 20 1 27 34 7 13 9 15 20 53 77 27 30 0
0 0 0 0 0 0 0 0 0 0 0 0 0 0 0 0 0 0 0 0 0 32 276 137 147 293 167 179 14 0 0 3 19 16 8 30 9 27 30 7 32 35 45 38 42 37 10 7 0
0 0 0 0 0 0 0 0 0 0 0 0 0 0 0 0 0 0 0 0 0 57 223 23 104 307 188 90 0 0 10 3 14 28 33 50 23 31 41 44 40 32 22 7 4 9 12 0 4
0 0 0 0 0 0 0 0 0 0 0 0 0 0 0 0 0 0 0 0 30 104 248 25 77 320 206 40 0 1 3 8 12 0 0 3 3 11 27 20 34 32 25 0 5 29 9 11 11
0 0 0 0 0 0 0 0 0 0 0 0 0 0 0 0 0 0 0 0 34 176 339 33 96 307 216 28 0 0 4 2 15 0 5 12 12 4 7 38 20 32 23 2 1 29 17 13 43
0 0 0 0 0 0 0 0 0 0 0 0 0 0 0 0 0 0 0 0 49 236 329 40 53 282 184 10 0 3 1 2 23 0 0 1 10 3 3 15 7 15 15 12 6 5 4 1 42
0 0 0 0 0 0 0 0 0 0 0 0 0 0 0 0 0 0 0 0 92 288 95 45 64 215 123 1 2 1 1 1 13 0 0 0 1 3 3 23 16 36 11 21 21 9 0 2 0
0 0 0 0 0 0 0 0 0 0 0 0 0 0 0 0 0 0 0 0 162 335 98 73 81 227 131 15 0 4 2 9 17 4 0 0 3 7 4 22 22 9 9 10 7 18 9 20 0
0 0 0 0 0 0 0 0 0 0 0 0 0 0 0 0 0 0 0 0 122 351 208 34 274 247 144 33 0 4 2 9 13 0 0 0 0 3 6 19 66 9 10 12 10 6 3 5 1
0 0 0 0 0 0 0 0 0 8 0 0 0 0 0 0 0 0 0 0 87 285 68 81 253 255 131 48 18 4 2 3 8 0 0 4 8 7 0 27 36 27 21 32 26 4 0 1 18
0 0 0 0 0 0 0 0 45 22 18 35 29 0 0 0 2 9 12 6 79 166 14 147 409 227 108 84 39 6 10 4 5 0 0 0 7 0 0 0 28 22 25 13 32 16 3 6 9
0 0 0 0 0 0 0 0 13 19 14 30 0 0 0 0 37 92 64 61 66 15 13 214 150 194 156 146 65 0 11 0 5 12 7 0 0 0 0 2 5 2 4 0 0 0 4 9 10

GFSSGP_con_mucape_096.txt.gz
CAPE
0 0 0 0 0 0 0 0 0 0 0 0 0 0 0 0 0 0 213 991 1091 1233 1712 1351 1103 1267 1511 1635 1761 1936 2201 2329 2203 2037 1875 1836 2256 2279 2204 2172 2031 2101 2179 2037 1770 1884 1638 1574 1459
0 0 0 0 0 0 0 0 0 0 0 0 0 0 0 0 0 98 695 1141 715 1052 1468 1638 1100 1264 1551 1792 1927 1958 2436 2436 2346 2276 1767 2281 2297 2234 2169 2097 1939 2059 2176 2257 1933 1874 1698 1587 1396
0 0 0 0 0 0 0 0 0 0 0 0 0 0 0 0 19 37 529 1404 1052 1178 1406 1602 1127 1175 1544 1765 1769 1692 2020 2330 2353 2331 2140 1971 1904 1869 1944 2025 1942 2024 2294 2267 1939 1834 1697 1374 1127
0 0 0 0 0 0 0 0 0 0 0 0 0 0 0 0 179 445 1027 1414 1083 1363 1395 1242 932 1109 1422 1683 1868 1704 1789 2035 2168 1947 1789 1887 1691 1491 1529 1301 1595 1887 1848 1842 1784 1692 1477 1039 806
0 0 0 0 0 0 0 0 0 0 0 0 0 0 0 134 563 947 1316 1647 1296 1588 1620 1609 845 1057 1306 1737 1959 1747 1599 1742 2027 1959 1855 1916 1887 1705 1353 1260 1283 837 746 979 1457 1506 1087 796 553
0 0 0 0 0 0 0 0 0 0 0 0 0 0 0 254 727 1365 1720 1730 1612 1877 1867 1732 1046 1073 1185 1389 1650 1601 1517 1608 1510 1600 1663 1625 1619 1475 1257 1038 857 650 472 321 768 850 839 567 373
0 0 0 0 0 0 0 0 0 0 0 0 0 0 0 163 893 1610 1880 1934 2043 2281 2065 1885 1655 1358 1053 1148 1267 1354 1382 1390 1402 1473 1574 1421 1110 989 943 799 773 701 184 252 532 550 466 351 287
0 0 0 0 0 0 0 0 0 0 0 0 0 0 0 76 1369 1835 1917 2204 2116 2326 2348 1723 1658 1582 1860 1900 1153 1203 1078 1117 1130 1103 1021 839 761 759 742 539 632 619 669 663 599 366 291 280 228
0 0 0 0 0 0 0 0 0 0 0 0 0 0 0 293 1498 1788 1822 1898 1950 2024 2013 1556 1641 1906 2129 2188 1534 1054 969 914 803 825 786 659 1128 908 518 414 489 688 676 451 295 247 186 235 221
0 0 0 0 0 0 0 0 0 0 0 0 0 0 0 163 1036 1496 1472 1442 1745 1778 1659 1465 1880 1958 2005 1891 1980 1705 1638 1314 1425 1284 907 1120 1119 970 467 234 45 152 171 201 140 180 107 204 246
0 0 0 0 0 0 0 0 0 0 0 0 0 0 0 0 10 442 1028 1260 1490 1706 1537 1158 1519 1664 1959 1705 1741 1464 1352 1223 962 1253 1162 1025 944 745 570 647 769 621 284 500 100 98 288 317 348
0 0 0 0 0 0 0 0 0 0 0 0 0 0 0 0 0 0 51 672 1293 1576 1543 1112 1229 1508 1817 1723 1332 1163 1052 856 1009 995 960 1154 1122 1001 890 803 829 607 763 390 291 140 284 306 276
0 0 0 0 0 0 0 0 0 0 0 0 0 0 0 0 0 0 0 89 822 1447 1483 1268 1061 1221 1527 1477 1141 997 997 814 810 763 843 750 887 853 714 871 761 609 476 408 348 149 269 317 210
0 0 0 0 0 0 0 0 0 0 0 0 0 0 0 0 0 0 0 16 547 1117 1517 1575 1155 1037 1178 1218 905 688 618 933 801 612 968 677 792 763 767 738 792 613 290 233 135 254 290 360 189
0 0 0 0 0 0 0 0 0 0 0 0 0 0 0 0 0 0 0 12 334 861 1218 1707 1112 962 1152 992 709 795 352 771 675 328 380 589 684 577 534 766 618 206 66 178 66 208 221 223 153
0 0 0 0 0 0 0 0 0 0 0 0 0 0 0 0 0 0 0 0 45 463 1070 1360 1158 617 744 841 411 392 580 286 334 251 162 175 343 348 401 328 647 155 41 86 42 132 187 181 168
0 0 0 0 0 0 0 0 0 0 0 0 0 0 0 0 0 0 0 0 12 284 896 1292 1348 760 649 617 434 561 408 188 183 191 190 287 246 210 183 189 184 47 50 8 33 185 216 172 152
0 0 0 0 0 0 0 0 0 0 0 0 0 0 0 0 0 0 0 0 0 9 600 1180 1372 908 537 479 247 403 327 304 224 291 237 273 187 76 54 84 50 26 49 22 10 130 183 241 155
0 0 0 0 0 0 0 0 0 0 0 0 0 0 0 0 0 0 0 0 0 0 213 948 1371 828 497 224 342 397 210 177 158 380 158 192 50 51 6 60 57 43 41 6 16 163 158 186 167
0 0 0 0 0 0 0 0 0 0 0 0 0 0 0 0 0 0 0 0 0 0 111 764 1245 486 404 502 515 156 156 192 81 102 64 112 31 4 41 31 9 33 3 14 21 174 136 114 135
0 0 0 0 0 0 0 0 0 0 0 0 0 0 0 0 0 0 0 0 0 3 210 577 1099 247 346 704 445 72 15 7 33 68 20 4 10 3 28 36 26 15 8 7 72 145 130 104 122
0 0 0 0 0 0 0 0 0 0 0 0 0 0 0 0 0 0 0 0 0 21 225 498 867 292 234 514 436 285 23 5 21 5 35 16 2 1 25 7 11 10 24 11 16 83 167 114 110
0 0 0 0 0 0 0 0 0 0 0 0 0 0 0 0 0 0 0 0 0 7 390 580 396 471 150 243 569 293 170 1 24 12 42 38 6 34 24 13 5 19 35 39 67 116 165 128 113
0 0 0 0 0 0 0 0 0 0 0 0 0 0 0 0 0 0 0 0 0 6 547 764 171 385 133 273 311 292 65 1 26 15 39 1 0 3 0 32 24 31 38 46 29 27 25 27 102
1 8 0 0 0 0 0 0 0 0 0 1 0 1 2 1 0 0 0 0 0 107 714 592 269 378 128 284 229 39 11 4 30 19 25 3 1 6 1 36 16 36 48 52 34 6 52 65 1
0 0 0 0 0 0 0 0 0 1 0 7 6 2 9 1 0 0 0 2 0 81 731 385 741 236 138 252 249 33 3 1 30 13 30 22 0 1 1 3 37 13 32 30 17 0 7 26 0
39 0 5 0 0 0 0 0 0 0 11 2 5 11 12 1 0 0 0 47 116 51 732 352 588 316 502 204 221 23 5 4 14 22 18 34 17 0 7 1 23 11 5 3 8 8 14 5 6
69 23 0 0 0 0 0 0 20 25 29 9 6 11 11 0 0 0 0 37 3 97 678 426 375 299 224 170 152 34 0 4 14 29 23 14 39 5 7 1 10 19 4 8 12 10 7 3 6
23 26 23 19 0 0 0 28 86 45 10 18 23 17 0 0 0 0 15 2 23 288 432 545 370 372 137 200 137 68 0 4 7 21 24 0 1 3 2 0 3 14 11 5 16 16 15 4 0
20 18 1 0 0 0 0 10 99 0 4 19 3 4 0 0 0 0 7 54 104 113 588 404 148 326 348 199 147 98 0 5 4 14 21 8 0 1 2 16 2 0 0 26 13 31 6 3 1

GFSSGP_con_mucape_099.txt.gz
CAPE
0 0 0 0 0 0 0 0 0 0 0 0 0 0 0 0 0 8 58 590 162 899 1622 1292 1196 1500 1478 1622 1682 1867 2185 2199 2192 2024 2056 1920 2161 2117 2293 2302 2276 2251 2359 2051 1777 1746 1612 1518 1576
0 0 0 0 0 0 0 0 0 0 0 0 0 0 0 0 0 42 302 443 378 735 1511 1540 1074 1408 1524 1632 1757 2000 2248 2424 2243 2123 2032 2111 2287 1896 2290 2231 2170 2265 2335 2250 1830 1847 1713 1612 1452
0 0 0 0 0 0 0 0 0 0 0 0 0 0 0 0 0 4 327 623 443 769 1178 1731 1103 1250 1580 1682 1836 1851 2269 2349 2239 2243 2156 2313 2223 1808 1878 1599 1664 2098 2427 2139 1815 1705 1570 1489 1210
0 0 0 0 0 0 0 0 0 0 0 0 0 0 0 0 6 2 739 682 578 960 1035 1331 878 1159 1475 1723 1744 1643 1973 2060 2045 2062 2141 1926 1896 1970 1723 1279 977 1516 1454 1821 1546 1520 1581 1221 1051
0 0 0 0 0 0 0 0 0 0 0 0 0 0 0 2 51 152 869 692 692 1002 1394 1600 886 1019 1402 1716 1834 1614 1645 1844 1993 1944 1663 1814 2006 1713 1623 1369 960 798 296 461 569 1139 1036 828 689
0 0 0 0 0 0 0 0 0 0 0 0 0 0 0 0 69 581 1103 1103 1073 1452 1759 1717 985 997 1186 1492 1686 1490 1368 1563 1568 1623 1574 1667 1744 1555 1475 1403 1103 891 614 516 524 345 628 484 458
0 0 0 0 0 0 0 0 0 0 0 0 0 0 0 0 100 793 1327 1540 1723 2008 1964 2080 1607 1259 889 1164 1270 1404 1267 1334 1334 1488 1424 1524 1388 1159 1260 1078 921 820 688 536 264 195 297 258 305
0 0 0 0 0 0 0 0 0 0 0 0 0 0 0 65 478 1234 1541 1824 2066 2534 2353 2151 2073 1691 1705 1592 1078 1094 1172 1165 1107 1276 1218 1246 1094 951 877 787 852 583 489 368 197 239 383 268 169
0 0 0 0 0 0 0 0 0 0 0 0 0 0 0 0 853 1460 1648 2048 2050 2315 2398 2162 2069 1854 1867 2016 1633 1065 944 847 894 1060 1075 1112 1510 1113 667 533 678 650 353 352 346 324 203 132 104
0 0 0 0 0 0 0 0 0 0 0 0 0 0 0 0 401 1381 1592 1744 1805 2088 2169 1992 2025 1995 1953 1861 2156 1891 1655 1486 1363 1342 1348 1696 1315 1362 884 479 442 626 483 409 315 143 116 109 203
0 0 0 0 0 0 0 0 0 0 0 0 0 0 0 0 5 541 938 1126 1441 1712 1859 1944 1862 2087 1863 1697 2112 2002 1989 1561 1651 1533 1511 1304 1106 1668 1460 968 311 294 145 453 170 165 101 121 183
0 0 0 0 0 0 0 0 0 0 0 0 0 0 0 0 0 0 99 362 712 1318 1726 1936 1852 1932 2012 1729 1616 1656 1726 1683 1623 1584 1503 1627 1431 1402 1203 867 1046 1137 1252 365 390 302 108 70 161
0 0 0 0 0 0 0 0 0 0 0 0 0 0 0 0 0 0 0 0 21 750 1655 2156 1774 1732 1990 1673 1415 1527 1372 1295 1218 1075 1352 1393 1165 1231 1205 1129 1242 1040 831 866 703 175 161 89 154
0 0 0 0 0 0 0 0 0 0 0 0 0 0 0 0 0 0 0 0 0 152 1299 2164 1792 1513 1906 1764 1661 1456 1419 1284 1445 881 785 1114 1193 1240 1116 963 854 992 749 732 211 137 86 90 118
0 0 0 0 0 0 0 0 0 0 0 0 0 0 0 0 0 0 0 0 0 0 563 2251 1973 1631 1792 1687 1477 1170 1052 965 993 1101 1033 661 865 997 786 1110 1154 820 884 431 331 114 100 87 194
0 0 0 0 0 0 0 0 0 0 0 0 0 0 0 0 0 0 0 0 0 0 204 1714 1953 1623 1408 1630 1419 1143 980 972 904 969 1241 871 843 651 315 572 728 898 622 600 219 216 93 79 200
0 0 0 0 0 0 0 0 0 0 0 0 0 0 0 0 0 0 0 0 0 0 26 1097 2141 1862 1718 1241 1381 1163 1152 927 776 736 741 870 813 664 714 651 744 762 322 295 158 217 106 78 144
0 0 0 0 0 6 0 0 0 0 0 0 0 0 0 0 0 0 0 0 0 0 0 632 1776 2017 1532 1376 1054 778 1246 572 661 794 325 282 660 526 553 549 209 188 142 151 57 106 72 128 114
0 3 0 0 0 3 0 0 0 0 0 0 0 0 0 0 0 0 0 0 0 0 0 474 1626 2149 1437 1563 1014 765 758 626 565 449 529 419 461 432 267 55 14 95 30 22 19 111 52 70 182
0 0 0 0 0 9 0 0 0 0 0 0 0 0 0 0 0 0 0 0 0 0 0 33 917 1654 1531 1424 810 814 652 557 769 498 331 235 405 332 112 29 15 49 46 29 25 27 94 154 132
0 0 0 0 0 1 0 0 0 0 0 0 0 0 0 0 0 0 0 0 0 0 0 0 256 1213 1459 1018 1040 984 823 451 482 422 382 389 278 200 34 4 36 20 18 21 30 12 50 103 142
0 0 0 0 0 2 0 0 0 0 0 0 0 0 0 0 0 0 0 0 0 0 0 0 107 842 1268 1207 1234 1182 715 502 274 363 71 79 18 1 1 3 17 47 18 36 30 11 48 101 106
0 0 0 0 0 0 0 0 0 5 0 0 0 0 6 16 15 11 1 0 0 0 0 96 257 841 1010 1281 1382 1223 980 620 283 36 50 2 0 0 0 0 1 13 7 4 6 44 114 171 132
0 0 3 0 0 0 0 0 0 0 0 0 16 22 23 27 20 11 7 1 0 0 0 241 575 1269 820 924 1376 1192 1047 682 144 4 77 67 0 1 0 0 3 10 31 13 9 140 168 146 122
0 0 0 0 0 0 0 0 0 33 52 18 14 22 26 30 8 1 1 2 0 33 0 156 776 993 572 621 1143 1265 1097 617 122 80 34 14 0 2 14 9 0 4 7 18 22 50 76 153 168
0 0 1 0 2 1 0 0 0 78 34 37 17 33 30 36 13 0 0 2 1 66 3 251 961 551 266 739 1116 1160 1007 485 78 29 34 22 5 1 0 6 1 25 23 23 11 38 40 59 55
0 0 1 2 3 0 0 72 90 69 99 50 24 26 7 11 6 0 0 0 0 4 110 504 770 408 74 808 1025 1027 818 350 35 33 70 22 23 0 2 9 2 2 22 45 54 51 33 30 29
0 0 0 28 0 0 7 9 33 51 39 20 29 32 9 13 0 0 0 0 0 0 72 857 725 467 409 596 717 548 639 80 69 161 74 41 70 7 3 0 1 16 5 22 25 29 0 0 4
71 96 63 43 0 0 0 106 102 7 6 23 26 15 5 0 0 0 0 2 2 28 278 863 577 479 722 605 726 597 421 102 52 100 93 31 26 19 0 2 1 8 15 10 2 6 14 1 0
52 72 47 0 0 0 36 69 22 0 19 32 19 8 0 0 0 0 0 3 9 230 415 438 495 719 754 605 564 445 144 27 40 60 63 15 30 44 26 5 1 0 8 11 7 2 4 20 13

GFSSGP_con_mucape_105.txt.gz
CAPE
0 0 0 0 0 0 0 0 0 0 0 0 0 0 0 0 74 61 841 479 642 759 1046 1181 1269 1513 1610 1766 1795 1672 1778 1906 1997 1977 1904 1971 2036 2079 2119 2099 2117 2229 2015 1899 1775 1769 1766 1684 1625
0 0 0 0 0 0 0 0 0 0 0 0 0 0 0 18 97 731 1136 791 778 642 894 964 1221 1451 1563 1627 1767 1825 1964 2025 2089 2068 2042 2068 2037 1986 1821 2034 2030 2115 1771 1684 1708 1784 1643 1533 1457
0 0 0 0 0 0 0 0 0 0 0 0 0 0 0 13 69 163 1227 1106 793 905 900 1056 1135 1308 1508 1564 1655 1820 1925 1968 1987 1909 2071 2124 2036 2124 1790 1802 1533 1123 1291 1114 1224 1562 1459 1272 1091
0 0 0 0 0 0 0 0 0 0 0 0 0 0 0 56 186 535 1225 1214 953 1220 954 909 1019 1186 1438 1572 1625 1663 1868 1903 1817 1694 2056 2157 2093 1787 1817 1244 1091 857 622 570 648 738 1043 909 903
0 0 0 0 0 0 0 0 0 0 0 0 0 0 0 14 235 497 947 1224 1489 1428 958 866 943 1119 1360 1575 1570 1609 1681 1831 1773 1649 1812 1833 1944 1762 1361 1070 972 520 233 491 567 490 625 570 769
0 0 0 0 0 0 0 0 0 0 0 0 0 0 0 180 179 315 716 1397 1710 1435 1002 858 1010 1100 1214 1371 1235 1192 1455 1629 1779 1673 1607 1731 1666 1412 1232 984 884 278 323 548 336 76 196 455 424
0 0 0 0 0 0 0 0 0 0 0 0 0 0 0 416 266 367 882 1774 1694 1359 888 858 1026 1013 1082 1143 1026 1000 1179 1230 1242 1368 1501 1548 1404 1103 798 900 883 479 374 272 408 151 218 384 342
0 0 0 0 0 0 0 0 0 0 0 0 0 0 0 162 480 799 1300 1825 1832 1596 1091 804 821 890 844 926 1015 890 816 904 937 1121 1225 1393 1342 936 773 778 867 413 315 322 618 420 226 151 103
0 0 0 0 0 0 0 0 0 0 0 0 0 0 222 586 735 1440 1839 1770 2035 1872 1633 1110 908 830 864 797 829 923 829 723 662 780 1072 1181 1077 790 702 669 687 546 494 602 482 264 130 63 64
0 0 0 0 0 0 0 0 0 0 0 0 0 0 161 877 1072 1535 1750 1921 1962 1938 2004 1720 1305 1119 1136 1092 782 734 700 560 483 637 983 1052 910 764 616 594 586 533 469 332 291 186 67 29 12
0 0 0 0 0 0 0 0 0 0 0 0 0 0 2 416 1038 1309 1730 2110 2259 2045 1974 2050 1828 1566 1601 1370 871 814 743 539 573 798 812 910 667 609 568 453 404 366 264 147 83 43 24 22 7
0 0 0 0 0 0 0 0 0 0 0 0 0 0 0 0 249 960 1206 1941 2284 2381 2246 1994 1865 1770 1890 1549 1172 1191 1196 963 705 787 893 756 559 565 354 294 222 191 183 134 92 43 11 9 2
0 0 0 0 0 0 0 0 0 0 0 0 0 0 0 0 0 69 528 1218 1964 2202 2381 2152 1800 1929 1802 1834 1569 1435 1387 1230 1011 1038 924 669 589 574 400 278 295 213 235 203 136 81 20 17 10
0 0 0 0 0 0 0 0 0 0 0 0 0 0 0 0 0 0 5 20 1315 1937 2139 2150 1827 1862 1848 2044 1734 1518 1441 1141 893 1001 979 753 661 531 434 314 360 517 184 156 71 62 37 43 16
0 0 0 0 0 0 0 0 0 0 0 0 0 0 0 0 0 0 0 0 0 1232 1994 2054 1828 1543 2050 1667 1570 1257 1362 1108 1011 1085 1109 765 596 616 492 284 297 189 116 239 153 69 59 49 11
0 0 0 0 0 0 0 0 0 0 0 0 0 0 0 0 0 0 0 0 0 0 1771 1911 1749 1548 1945 1938 1648 1266 896 813 912 866 638 1028 816 630 465 341 222 178 190 192 136 94 104 45 8
0 0 0 0 0 0 0 0 0 0 0 0 0 0 0 0 0 0 0 0 0 0 1683 1786 1827 1678 1543 1852 1687 1438 1188 860 1124 885 670 822 989 785 516 356 289 275 193 263 143 107 72 64 13
0 0 0 0 0 0 0 0 0 0 0 0 0 0 0 0 0 0 0 0 0 0 1665 1783 1841 1762 1497 1590 1884 1713 1454 1113 1028 985 663 568 536 630 715 564 443 296 158 199 195 144 63 53 29
0 0 5 0 0 32 68 34 0 0 0 0 0 0 0 0 0 0 0 0 0 0 1709 1891 1815 1779 1572 1243 1829 1587 1326 1016 652 729 826 785 623 606 517 462 396 322 239 167 170 137 67 12 26
0 1 16 2 7 100 57 47 0 0 0 0 0 0 0 0 0 0 0 0 0 0 1051 1896 1772 1722 1520 907 1527 1365 1122 1027 797 512 603 582 526 479 502 509 369 242 134 105 124 126 73 38 31
1 0 12 9 108 113 62 9 0 0 1 0 0 0 0 0 0 0 0 0 0 0 61 1944 1800 1626 1502 1208 1005 1192 858 696 1002 598 346 459 442 435 251 231 270 94 55 66 105 106 92 45 22
0 0 0 21 160 104 43 4 0 1 18 7 7 0 0 1 9 6 0 0 0 0 0 0 1897 1703 1497 1420 1119 709 408 330 410 187 350 229 305 225 257 269 90 4 12 80 64 93 89 38 18
3 6 7 10 93 64 25 11 0 52 23 23 0 27 13 18 22 8 0 0 0 0 0 0 0 825 1703 1530 1270 933 689 306 353 433 299 316 438 338 245 128 28 1 9 3 8 52 78 38 28
69 287 255 58 19 14 0 4 0 9 24 13 34 1 0 5 15 8 0 0 0 0 0 0 0 0 430 1312 1381 1088 737 469 448 353 338 291 307 289 147 27 151 94 0 1 17 67 23 35 28
138 125 21 32 0 0 0 0 0 0 4 15 1 0 0 0 0 5 12 2 0 0 0 0 0 0 0 1106 1222 1330 1112 877 699 574 501 270 239 176 92 60 47 5 0 0 5 7 49 17 30
13 22 1 0 0 0 0 0 0 4 16 10 5 4 0 0 1 1 1 0 0 0 0 0 0 0 1 1074 1189 1358 1233 930 883 706 581 274 276 125 1 4 0 0 0 0 3 29 27 35 25
7 22 26 11 57 50 0 2 81 144 12 17 4 2 0 1 2 0 0 0 0 0 0 0 0 0 0 763 1345 1215 1126 911 889 710 597 507 289 1 2 2 0 0 0 0 3 2 8 31 19
0 3 0 0 0 6 37 22 13 25 3 1 21 1 0 0 0 0 0 0 0 0 2 0 0 0 0 270 1384 1157 981 1091 977 863 662 510 311 0 6 0 0 0 0 0 1 16 11 15 16
0 1 0 0 3 0 24 82 0 0 0 0 0 0 0 0 0 0 0 0 0 2 9 44 227 46 203 904 964 791 830 883 742 708 630 451 331 2 4 2 1 0 0 0 1 1 15 23 32
17 0 2 1 0 1 17 2 0 0 0 0 0 0 0 0 0 0 0 0 0 5 10 143 445 392 421 503 546 390 286 713 739 791 943 576 86 1 4 7 2 0 0 0 1 2 3 20 8

GFSSGP_con_mucape_108.txt.gz
CAPE
0 0 0 0 0 0 0 0 0 0 0 0 0 0 0 7 15 4 588 565 667 1013 1145 1243 1454 1655 1679 1624 1551 1585 1735 1817 1770 1765 1798 1918 1987 2003 2096 2103 2295 2242 2021 1840 1656 1677 1628 1776 1708
0 0 0 0 0 0 0 0 0 0 0 0 0 0 0 69 548 857 669 480 633 980 1144 1215 1386 1584 1735 1684 1624 1700 1862 1890 1915 1893 1950 1942 1988 2040 2024 1990 1891 1712 1538 1651 1496 1593 1683 1596 1561
0 0 0 0 0 0 0 0 0 0 0 0 0 0 0 50 781 690 465 615 703 855 974 1164 1363 1457 1601 1686 1695 1755 1878 1875 1855 1906 2071 2056 2135 2153 2046 1668 1413 1604 1661 1740 1349 1545 1479 1396 1232
0 0 0 0 0 0 0 0 0 0 0 0 0 0 0 120 813 721 566 538 669 779 914 1179 1293 1385 1539 1650 1771 1796 1801 1724 1680 1812 2072 2139 2241 2205 1920 1356 1208 1317 1353 1300 1255 1495 1314 1054 965
0 0 0 0 0 0 0 0 0 0 0 0 0 0 0 165 485 880 623 556 776 775 884 1062 1195 1340 1527 1697 1724 1769 1751 1699 1580 1675 1870 1990 2098 2038 1423 1098 1087 1091 1169 1177 1335 1270 1010 792 625
0 0 0 0 0 0 0 0 0 0 0 0 0 0 0 150 1179 1177 771 849 976 674 834 927 1089 1254 1401 1522 1490 1505 1721 1738 1596 1533 1675 1879 1778 1560 1159 901 724 846 924 785 811 830 814 765 591
0 0 0 0 0 0 0 0 0 0 0 0 0 0 0 581 826 1213 1393 1326 1114 709 777 851 1045 1158 1240 1273 1321 1499 1608 1717 1680 1522 1491 1521 1353 1129 1085 520 363 329 796 681 294 234 283 519 514
0 0 0 0 0 0 0 0 0 0 0 0 0 0 94 335 755 1220 1592 1402 1346 1041 757 840 977 1099 1078 1055 1094 1268 1307 1401 1527 1561 1436 1382 1153 981 857 596 521 546 652 452 343 148 227 249 217
0 0 0 0 0 0 0 0 0 0 0 0 0 0 5 263 941 1482 1631 1516 1277 1003 685 806 880 954 962 969 934 1020 1172 1149 1134 1290 1390 1343 1105 895 769 619 429 342 256 449 411 261 165 132 83
0 0 0 0 0 0 0 0 0 0 0 0 0 169 326 903 1128 1371 1540 1649 1508 1254 898 671 750 854 809 848 965 845 818 825 878 1057 1148 1241 1086 776 584 543 454 363 273 292 507 269 93 40 17
0 0 0 0 0 0 0 0 0 0 0 0 0 609 733 1064 1134 1296 1385 1638 1757 1523 1498 1081 722 788 860 864 832 800 740 573 520 868 1067 1069 935 617 605 564 468 329 324 367 338 164 73 7 18
0 0 0 0 0 0 0 0 0 0 0 0 0 124 827 948 1160 1262 1449 1622 1801 1877 1785 1682 1204 1021 1147 1104 740 667 572 397 525 704 1002 974 805 639 532 575 500 336 216 286 170 95 29 2 0
0 0 0 0 0 0 0 0 0 0 0 0 0 0 782 895 1065 1227 1474 1632 1867 1868 1894 1933 1746 1472 1509 1488 882 762 655 502 541 683 872 899 711 614 550 535 437 264 203 216 142 93 48 32 20
0 0 0 0 0 0 0 0 0 0 0 0 0 0 3 956 1234 1325 1474 1653 2045 2115 2040 1951 1975 1723 1806 1855 1382 1041 1076 871 676 763 809 714 521 534 455 397 359 225 178 130 130 116 102 51 24
0 0 0 0 0 0 0 0 0 0 0 0 0 0 0 1 33 794 1127 1680 1884 2136 2183 2086 2077 1777 1764 1901 1726 1323 1308 1200 959 927 771 659 376 468 407 350 289 140 206 110 119 130 90 18 38
0 0 0 0 0 0 0 0 0 0 0 0 0 0 0 0 0 0 14 53 1532 1880 2101 2121 2098 2020 1628 1865 2013 1625 1397 1319 1090 1040 999 827 553 461 425 350 315 265 274 104 98 73 44 54 53
0 0 0 0 0 0 0 0 0 0 0 0 0 0 0 0 0 0 0 0 0 1015 1903 2102 2042 2071 1684 1641 2058 1650 1568 1491 1028 934 994 868 744 629 535 474 372 388 322 63 96 130 82 84 80
0 0 0 0 0 0 0 0 0 0 0 0 0 3 0 0 0 0 0 0 0 0 1426 1835 1949 1959 1724 1631 1813 1721 1394 1264 1049 1029 1006 740 819 600 603 488 341 276 203 182 148 138 146 116 119
3 0 0 0 0 0 0 0 0 0 0 0 0 0 0 0 0 0 0 0 0 0 876 1496 1651 1795 1792 1673 1634 1712 1411 1154 962 807 837 632 831 918 603 534 394 305 230 153 133 79 140 187 80
1 46 0 0 0 2 8 18 11 0 0 0 0 0 0 1 0 0 0 0 0 0 504 1331 1534 1635 1723 1573 1635 1570 1505 1346 1344 1010 1122 734 499 683 858 705 556 404 293 305 191 74 69 84 56
0 0 0 0 0 15 59 6 0 3 23 0 0 0 0 0 4 0 0 0 0 0 864 1552 1517 1464 1581 1717 1604 1393 1432 1493 1262 893 792 797 638 454 397 502 565 527 460 371 275 179 121 79 41
0 1 8 7 0 0 89 0 22 7 1 1 0 8 36 15 3 0 0 0 0 0 220 1104 1840 1641 1536 1636 1456 1391 1221 1256 971 748 600 661 748 649 468 353 307 301 296 234 84 190 114 105 66
0 0 0 27 0 2 25 20 5 59 62 40 32 32 38 51 52 7 0 0 0 0 0 44 1156 2148 1674 1473 1334 1376 1205 1022 782 591 514 476 472 468 481 388 198 151 175 20 7 441 120 76 31
16 31 46 28 6 0 0 13 4 97 50 261 101 65 93 45 7 0 0 7 9 3 0 0 36 714 1233 1419 1394 1145 1029 955 687 424 406 101 138 96 343 438 174 171 52 4 7 107 64 65 72
1 22 0 0 0 0 0 29 0 261 327 98 142 66 94 25 6 0 0 4 16 7 5 0 0 0 3 43 933 1379 1241 924 662 499 303 137 196 96 478 811 541 154 182 17 12 29 41 61 55
2 0 0 0 10 0 15 0 35 42 29 63 52 56 59 28 3 2 1 10 4 2 1 1 0 0 0 0 34 938 1197 1174 917 638 538 511 336 161 320 365 351 212 129 4 11 29 13 46 22
0 0 7 18 9 0 4 53 59 36 27 0 5 17 5 3 0 0 0 0 0 0 0 0 0 0 0 0 0 442 1389 1071 1090 959 956 755 550 408 292 155 488 188 5 2 7 0 6 7 25
0 5 7 2 0 0 23 37 31 5 38 9 26 7 26 7 5 1 0 0 0 0 0 0 0 0 0 0 0 22 1089 1008 1030 1090 937 864 686 506 349 208 59 0 8 0 0 8 22 20 4
1 3 29 30 2 0 12 0 30 16 4 0 1 16 43 31 6 0 0 0 0 0 0 0 4 10 14 4 124 374 952 927 883 815 899 986 769 494 395 265 0 38 0 0 3 1 1 5 4
13 23 31 0 0 0 0 1 0 0 0 0 0 4 0 0 0 0 0 0 0 0 0 0 26 48 73 298 561 868 1039 777 747 786 820 1037 1005 341 373 360 1 10 14 0 32 1 2 2 3

GFSSGP_con_mucape_111.txt.gz
CAPE
0 0 0 0 0 0 0 0 0 0 0 0 0 0 0 0 0 0 434 549 685 836 1183 1301 1360 1511 1543 1572 1546 1553 1694 1695 1641 1714 1768 1829 1968 2112 2190 2183 2049 1939 2003 1737 1599 1761 1665 1711 1786
0 0 0 0 0 0 0 0 0 0 0 0 0 0 0 0 382 619 551 540 763 984 1173 1343 1418 1525 1568 1554 1595 1695 1818 1791 1715 1786 1890 1948 2057 2171 2189 2159 1804 1937 2047 1874 1658 1697 1540 1745 1631
0 0 0 0 0 0 0 0 0 0 0 0 0 0 0 0 718 702 497 692 973 1071 1159 1281 1483 1571 1605 1565 1609 1713 1795 1729 1705 1778 1973 2048 2116 2207 2145 1920 1621 1865 2051 2014 1706 1709 1661 1506 1307
0 0 0 0 0 0 0 0 0 0 0 0 0 0 0 27 670 700 473 699 918 1086 1137 1320 1425 1550 1660 1682 1701 1773 1716 1584 1598 1742 1935 2130 2182 2178 1920 1420 1506 1801 1979 2022 1685 1698 1496 1144 1065
0 0 0 0 0 0 0 0 0 0 0 0 0 0 0 162 619 483 392 572 653 878 1034 1277 1370 1443 1633 1838 1844 1780 1635 1524 1574 1736 1862 2051 2202 2059 1393 1260 1376 1595 1658 1738 1751 1517 1182 978 853
0 0 0 0 0 0 0 0 0 0 0 0 0 0 0 251 568 229 319 410 552 727 937 1139 1304 1378 1529 1746 1794 1713 1609 1528 1505 1615 1735 1979 1948 1572 1249 1201 1186 1279 1305 1366 1291 1113 988 780 699
0 0 0 0 0 0 0 0 0 0 0 0 0 0 0 768 509 231 247 575 518 689 870 1071 1221 1324 1424 1471 1642 1705 1662 1568 1433 1498 1556 1639 1548 1187 1124 1056 1064 1102 976 878 944 789 705 661 507
0 0 0 0 0 0 0 0 0 0 0 0 0 0 0 455 946 888 861 567 494 641 764 937 1128 1188 1259 1274 1374 1550 1703 1636 1464 1413 1452 1470 1339 1038 763 687 751 822 798 726 428 227 343 467 353
0 0 0 0 0 0 0 0 0 0 0 0 0 0 0 339 1242 1071 848 649 503 591 670 831 1006 1028 1103 1164 1339 1478 1600 1644 1571 1429 1401 1339 1201 1003 680 481 352 594 632 357 207 110 82 181 285
0 0 0 0 0 0 0 0 0 0 0 0 0 0 226 952 1343 1194 1021 889 715 608 526 665 890 899 983 1021 1155 1290 1348 1493 1532 1506 1415 1261 1110 974 790 624 546 404 336 195 155 71 40 35 141
0 0 0 0 0 0 0 0 0 0 0 0 0 0 370 834 1314 1294 1211 1089 1092 905 428 592 674 790 830 900 934 1087 1197 1179 1220 1333 1386 1301 1063 963 789 668 604 445 191 116 191 66 4 1 10
0 0 0 0 0 0 0 0 0 0 0 0 0 0 0 708 1165 1246 1305 1304 1265 1067 527 480 538 629 699 799 854 779 831 923 993 1140 1228 1279 1092 926 691 553 514 457 327 184 117 59 0 0 0
0 0 0 0 0 0 0 0 0 0 0 0 0 0 0 0 1012 1236 1206 1359 1466 1234 941 552 438 561 624 692 707 729 702 613 625 958 1112 1196 1081 881 687 517 655 412 335 207 151 107 19 0 0
0 0 0 0 0 0 0 0 0 0 0 0 0 0 0 0 353 1173 1164 1367 1644 1672 1624 1184 704 603 741 731 631 602 597 468 470 698 1068 1076 958 796 606 703 1144 638 383 177 164 116 38 1 5
0 0 0 0 0 0 0 0 0 0 0 0 0 0 0 0 16 1008 1193 1364 1642 1787 1907 1696 1493 969 1003 1099 865 665 598 488 413 574 1012 1039 940 807 684 603 708 463 333 169 167 179 56 20 20
0 0 0 0 0 0 0 0 0 0 0 0 0 0 0 0 0 315 1176 1371 1686 1934 2002 1990 1856 1532 1280 1359 1340 1065 808 706 523 580 721 918 883 764 639 577 538 469 300 172 125 84 101 50 51
0 0 0 0 0 0 0 0 0 0 0 0 0 0 0 0 0 0 876 1344 1660 2034 2178 2138 2010 1904 1695 1569 1598 1548 1181 1071 898 732 717 816 778 563 498 500 452 416 298 175 96 71 153 103 62
0 0 0 0 0 0 0 0 0 0 0 0 0 0 0 2 0 0 0 0 1001 1916 2115 2266 2104 2034 1984 1779 1734 1761 1657 1252 1117 1003 957 888 807 615 418 432 388 380 287 225 218 135 93 75 89
7 10 0 0 0 0 0 0 0 0 0 0 0 0 0 3 0 0 0 0 1 2 1607 1978 2077 2102 2031 2065 1714 1706 1947 1559 1300 1154 1074 1068 779 724 712 526 438 373 346 361 384 111 94 69 215
0 0 0 0 0 0 0 0 0 0 0 0 0 0 0 0 4 0 0 0 0 0 0 638 1757 1867 1920 2035 2016 1450 1668 1718 1509 1411 1077 1064 874 796 789 698 616 549 427 376 324 149 263 215 277
0 0 0 0 0 20 64 7 0 0 0 0 0 0 0 0 5 0 0 0 0 0 0 582 1425 1605 1738 1820 1843 1654 1411 1525 1465 1303 1129 1089 995 769 867 766 623 572 462 339 253 251 328 96 27
0 0 0 0 0 0 0 0 0 0 0 4 27 29 0 0 0 0 0 0 0 1 432 1043 1437 1507 1514 1701 1691 1713 1500 1113 1212 1195 1089 1041 849 733 656 878 812 567 527 721 383 101 102 83 10
0 0 0 0 0 0 2 0 0 64 109 157 35 33 25 0 0 0 0 0 0 17 441 1157 1608 1469 1555 1899 1798 1735 1622 1196 1080 1090 1163 1168 999 985 596 452 497 639 602 443 274 296 222 178 72
0 2 3 1 1 0 0 0 0 2 105 11 84 62 59 50 22 13 0 0 0 10 65 626 1277 1398 1632 1947 1930 1814 1587 1451 1153 1003 1143 1052 807 804 717 933 776 542 244 166 346 29 186 218 20
0 2 0 0 0 0 0 0 0 5 34 41 35 97 85 74 104 106 41 27 35 23 1 38 434 1168 1268 1398 1724 1744 1368 1340 1278 1021 955 892 693 650 424 247 571 711 611 466 103 33 51 26 13
0 2 0 0 0 0 25 0 24 29 14 33 71 66 84 63 93 172 130 88 32 5 4 5 9 22 161 587 579 744 1273 1302 1264 1097 1007 859 620 563 351 209 171 236 447 434 275 105 5 8 4
8 2 0 2 7 0 23 39 10 14 21 13 0 22 74 84 67 47 86 33 69 19 12 8 7 7 4 4 3 0 8 868 966 1063 959 967 793 531 456 323 129 149 374 447 294 65 6 11 28
0 0 2 3 0 0 0 0 0 0 8 34 0 34 82 98 96 62 52 74 49 6 0 0 0 2 0 0 0 0 0 19 777 783 816 913 868 666 633 419 281 138 241 571 159 49 7 8 5
0 6 3 5 0 0 1 0 0 0 0 1 0 0 21 64 83 83 34 14 4 2 3 0 0 0 0 20 42 1 7 2 633 565 836 663 714 705 620 545 341 159 242 154 75 6 1 0 8
0 2 15 0 0 0 0 0 0 0 0 0 0 0 68 10 0 0 0 1 0 0 0 0 0 0 13 9 97 57 39 242 412 1142 1044 667 627 658 691 529 428 297 190 2 34 0 0 2 12

GFSSGP_con_mucape_114.txt.gz
CAPE
0 0 0 0 0 0 0 0 0 0 0 0 0 0 0 0 7 0 238 443 506 787 1157 1251 1466 1592 1539 1470 1396 1424 1542 1705 1747 1751 1799 1862 1914 1924 1972 2019 2044 2130 2172 1940 1771 1997 1726 1709 1783
0 0 0 0 0 0 0 0 0 0 0 0 0 0 0 0 49 431 620 373 609 1003 1134 1242 1455 1574 1594 1517 1483 1563 1704 1759 1775 1812 1878 2010 2137 2162 2131 1947 1893 2067 2196 2178 1792 1721 1801 1768 1645
0 0 0 0 0 0 0 0 0 0 0 0 0 0 0 0 322 586 430 677 769 1050 1170 1261 1437 1544 1597 1563 1566 1623 1629 1608 1724 1840 2007 2110 2216 2267 2140 1732 1757 2038 2245 2222 1880 1807 1890 1564 1364
0 0 0 0 0 0 0 0 0 0 0 0 0 0 0 0 471 566 507 827 843 1074 1229 1345 1433 1509 1590 1641 1667 1682 1546 1451 1588 1806 2025 2211 2274 2323 2025 1583 1702 2056 2214 2103 2208 2055 1697 1258 1210
0 0 0 0 0 0 0 0 0 0 0 0 0 0 0 0 407 674 596 832 817 1040 1205 1358 1431 1512 1609 1752 1787 1697 1459 1376 1536 1769 1922 2067 2174 2161 1683 1440 1637 1909 2086 2134 2061 1740 1320 1126 1117
0 0 0 0 0 0 0 0 0 0 0 0 0 0 0 0 503 672 576 681 814 927 1147 1366 1478 1535 1612 1704 1729 1608 1407 1363 1473 1649 1872 2024 1964 1557 1370 1301 1442 1615 1711 1748 1580 1274 1137 1047 996
0 0 0 0 0 0 0 0 0 0 0 0 0 0 0 0 453 563 463 506 744 899 1075 1237 1392 1465 1600 1692 1677 1557 1422 1401 1427 1514 1740 1886 1661 1220 1195 1179 1231 1251 1287 1300 1181 994 879 905 812
0 0 0 0 0 0 0 0 0 0 0 0 0 0 0 0 307 428 356 383 601 819 890 1032 1216 1288 1422 1575 1666 1575 1496 1421 1409 1391 1529 1623 1498 1132 981 903 1028 1031 968 992 909 708 722 770 714
0 0 0 0 0 0 0 0 0 0 0 0 0 0 0 35 712 506 419 346 490 672 686 852 1155 1074 1219 1324 1569 1635 1594 1479 1370 1377 1377 1428 1304 1119 821 643 761 690 615 475 455 506 519 576 585
0 0 0 0 0 0 0 0 0 0 0 0 0 0 163 1114 993 400 347 229 286 466 608 867 1013 929 1082 1115 1291 1571 1584 1552 1395 1334 1303 1233 1151 1020 799 528 426 419 360 118 82 37 145 354 391
0 0 0 0 0 0 0 0 0 0 0 0 0 0 2 639 1310 982 484 189 108 228 381 718 875 862 875 951 1143 1283 1360 1468 1488 1356 1302 1206 1089 986 733 536 331 333 282 249 43 1 3 31 287
0 0 0 0 0 0 0 0 0 0 0 0 0 0 0 0 713 1416 1275 816 317 231 244 546 678 707 783 742 1205 1146 1264 1429 1503 1462 1351 1213 1094 970 833 617 530 513 386 222 72 26 2 0 61
0 0 0 0 0 0 0 0 0 0 0 0 0 0 0 0 1 646 1397 1417 1105 647 332 508 646 634 649 604 709 1174 997 1207 1241 1342 1370 1275 1122 967 826 742 629 631 433 187 109 67 9 3 7
0 0 0 0 0 0 0 0 0 0 0 0 0 0 0 0 0 0 690 1356 1459 1219 758 533 580 607 577 548 508 538 823 998 995 1106 1216 1315 1212 984 888 943 640 572 470 330 196 138 89 55 4
0 0 0 0 0 0 0 0 0 0 0 0 0 0 0 0 0 0 2 1113 1523 1521 1273 928 571 583 609 541 399 413 486 657 784 895 1015 1191 1210 1102 906 834 742 615 443 338 222 152 127 72 2
0 0 0 0 0 0 0 0 0 0 0 0 0 0 0 0 0 0 0 717 1300 1552 1556 1296 769 615 625 598 447 422 442 534 536 569 809 1059 1155 1135 945 812 921 978 949 388 243 155 156 115 44
0 0 0 0 0 0 0 0 0 0 0 0 0 0 0 0 0 0 0 384 1246 1570 1665 1698 1432 1142 1038 887 822 492 433 454 444 437 559 947 1062 1040 919 781 803 968 869 430 256 152 123 125 84
0 0 0 0 0 0 0 0 0 0 0 0 0 0 0 0 0 0 0 0 1057 1509 1650 1749 1854 1741 1573 1377 1087 854 637 547 551 464 487 640 984 1013 903 775 634 524 517 450 262 169 96 39 88
0 0 0 0 0 0 0 0 0 0 0 0 0 0 0 0 0 0 0 0 0 1107 1567 1838 1978 1924 1884 1805 1649 1552 1127 958 822 701 585 579 701 838 791 712 531 481 462 427 302 262 163 227 109
0 0 0 0 0 0 0 0 0 0 0 0 0 0 0 0 0 0 0 0 0 0 769 1655 2111 2035 1971 2042 1894 1619 1303 1310 1152 1031 917 843 757 706 693 580 438 406 404 385 369 256 221 198 102
0 0 0 0 0 0 0 0 0 0 0 0 0 0 0 0 0 0 0 0 0 0 0 0 1349 2094 2061 1998 1898 1832 1692 1577 1240 1472 1137 1107 1007 953 844 628 584 470 407 377 365 317 495 147 38
0 0 0 0 0 0 0 0 0 0 0 4 13 8 2 0 0 0 0 0 0 0 0 35 869 1700 1756 1900 1861 1821 1729 1457 1412 1363 1374 1336 1168 1084 943 696 706 552 767 986 481 331 143 141 54
0 0 0 0 0 0 0 0 0 0 2 11 36 90 74 6 1 0 0 0 0 5 46 297 404 898 1342 1680 1759 2271 2035 1646 1559 1386 1426 1356 1305 1115 1059 970 681 451 615 755 562 126 102 81 21
0 0 0 0 0 0 0 0 0 152 87 34 46 126 146 103 51 13 0 0 0 65 257 342 377 893 875 948 1697 1697 1950 1799 1538 1500 1217 1201 1171 1030 1056 956 964 826 673 464 245 212 134 90 88
0 0 0 0 0 0 0 0 0 0 0 0 14 87 156 136 116 62 21 4 0 7 209 463 738 731 865 1093 1306 1629 1829 1715 1645 1551 1309 1281 1103 927 1129 916 929 644 440 424 326 327 278 102 63
0 0 0 0 6 10 0 0 0 0 3 10 4 27 59 143 181 167 87 62 66 51 68 249 531 640 718 939 1489 1404 2074 1630 1748 1713 1565 1318 1055 897 908 938 811 739 315 328 695 433 249 334 137
0 0 0 1 0 0 0 0 6 0 0 1 9 20 16 166 119 194 194 193 209 227 183 87 90 179 305 681 653 890 1508 1636 1481 1480 1538 1253 1102 946 874 718 644 561 236 208 290 657 311 214 114
0 0 0 0 0 0 1 0 0 0 0 0 0 0 0 22 81 116 245 265 241 229 225 157 106 64 26 24 8 35 126 196 616 1223 1204 1204 1165 973 922 827 640 502 334 196 141 222 270 200 95
0 2 4 6 0 0 0 0 0 0 0 0 0 0 0 12 44 138 120 121 195 205 202 154 91 21 1 0 0 0 0 0 0 10 626 1159 910 983 713 789 712 476 385 282 114 295 253 200 61
0 0 0 0 0 0 0 0 0 0 0 0 0 0 0 10 39 38 51 43 82 43 35 36 34 25 2 0 0 17 0 1 17 93 207 494 946 785 835 533 610 517 468 340 322 466 136 89 51

GFSSGP_con_mucape_117.txt.gz
CAPE
0 0 0 0 0 0 0 0 0 0 0 0 0 0 0 0 39 0 344 477 731 1346 1573 1629 1506 1553 1511 1458 1434 1443 1702 1995 2071 2012 1916 1895 1896 1903 1958 2040 2146 2274 2331 2176 1995 2110 2182 2210 1937
0 0 0 0 0 0 0 0 0 0 0 0 0 0 0 0 0 196 894 665 855 1479 1598 1719 1526 1570 1566 1496 1506 1556 1782 1966 2012 2031 2003 2009 2015 2029 2055 2026 2053 2184 2251 2257 1934 1814 1927 2024 1700
0 0 0 0 0 0 0 0 0 0 0 0 0 0 0 0 41 790 816 732 1047 1510 1601 1723 1545 1561 1615 1585 1599 1657 1749 1750 1838 1973 2163 2175 2157 2184 2131 1914 1982 2182 2334 2337 2148 2060 2025 1649 1445
0 0 0 0 0 0 0 0 0 0 0 0 0 0 0 0 105 679 649 907 1301 1555 1571 1509 1539 1569 1671 1719 1735 1730 1629 1566 1664 1901 2187 2281 2295 2284 2017 1763 1961 2268 2383 2448 2353 2261 1700 1270 1297
0 0 0 0 0 0 0 0 0 0 0 0 0 0 0 0 91 636 1008 1103 1377 1633 1668 1724 1573 1590 1684 1842 1876 1749 1528 1487 1649 1879 2064 2220 2320 2220 1782 1608 1844 2163 2275 2347 2317 1789 1341 1167 1200
0 0 0 0 0 0 0 0 0 0 0 0 0 0 0 0 376 714 1055 1273 1330 1648 1741 1802 1540 1611 1659 1774 1822 1634 1425 1443 1644 1815 1958 2135 2151 1913 1588 1500 1670 1862 1929 1912 1730 1362 1226 1088 1091
0 0 0 0 0 0 0 0 0 0 0 0 0 0 0 0 22 633 876 1043 1292 1499 1648 1792 1909 1803 1602 1668 1718 1562 1375 1407 1598 1735 1866 1965 1903 1624 1359 1386 1556 1668 1684 1513 1288 1125 1047 1038 1004
0 0 0 0 0 0 0 0 0 0 0 0 0 0 0 0 151 638 746 989 1138 1281 1424 1504 1651 1833 2016 1905 1618 1551 1386 1339 1490 1664 1756 1782 1648 1428 1169 1101 1277 1321 1360 1204 1075 936 973 948 918
0 0 0 0 0 0 0 0 0 0 0 0 0 0 0 577 801 712 728 779 848 760 1118 1295 1500 1780 1773 1619 1697 1581 1466 1350 1388 1542 1667 1729 1921 1654 1298 990 968 939 928 878 772 803 858 810 719
0 0 0 0 0 0 0 0 0 0 0 0 0 0 0 0 8 353 805 775 827 873 861 1190 1368 1421 1481 1415 1684 1739 1724 1843 1796 1776 1896 2227 1980 1850 1376 866 736 607 590 577 585 577 707 772 1146
0 0 0 0 0 0 0 0 0 0 0 0 0 0 0 0 0 0 755 713 612 674 790 667 895 1100 1191 1161 1588 2322 2068 1717 1675 1924 1945 1815 1605 1511 1273 1128 953 991 351 599 380 430 873 968 1123
0 0 0 0 0 0 0 0 0 0 0 0 0 0 0 0 0 0 0 951 686 483 686 587 760 871 1066 1073 1271 1962 2123 1777 1416 1630 1849 1512 1107 1087 1305 1023 1016 887 692 607 394 114 153 503 734
0 0 0 0 0 0 0 0 0 0 0 0 0 0 0 0 0 0 0 0 1011 737 642 711 662 897 988 905 1150 1852 1881 1847 1910 1489 1382 1527 1182 972 1155 1009 824 632 569 575 473 171 54 146 429
0 0 0 0 0 0 0 0 0 0 0 0 0 0 0 0 0 0 0 0 662 1293 998 836 573 915 966 858 931 1085 1713 1476 1502 1692 1361 1410 1111 1316 889 864 738 798 619 488 374 243 131 129 253
0 0 0 0 0 0 0 0 0 0 0 0 0 0 0 0 0 0 0 0 0 1159 1498 1189 1023 922 792 927 771 947 1231 893 1334 1195 1735 1723 1254 1212 1489 814 747 830 590 506 327 253 160 54 32
0 0 0 0 0 0 0 0 0 0 0 0 0 0 0 0 0 0 0 0 0 139 1549 1474 1041 983 1072 916 730 559 669 1033 1257 1168 1152 1975 1241 1056 1044 1093 1320 824 602 528 369 245 165 132 78
0 0 0 0 0 0 0 0 0 0 0 0 0 0 0 0 0 0 0 0 0 7 1305 1808 1443 1251 1312 1208 1073 876 774 999 1105 1109 861 1533 1088 1162 1037 1206 1203 735 602 590 394 295 196 142 119
0 0 0 0 0 0 0 0 0 0 0 0 0 0 0 0 0 0 0 0 0 0 1153 2043 1671 1556 1429 1361 1060 926 795 874 971 1031 1019 844 876 1055 1081 1002 959 1038 760 1063 526 367 240 170 258
0 0 0 0 0 0 0 0 0 0 0 0 0 0 0 0 0 0 0 0 0 0 675 1890 1947 1598 1344 1400 1092 755 845 629 636 963 985 729 779 896 1074 986 862 908 693 1140 699 419 274 151 138
0 0 0 0 0 0 0 0 0 0 0 0 0 0 0 0 0 0 0 0 0 0 112 1827 2101 1985 1485 1526 1367 1384 1188 996 803 749 740 835 918 673 934 948 852 807 902 697 929 452 272 152 128
0 0 0 0 0 0 0 0 0 0 0 0 0 0 0 0 0 0 0 0 0 0 0 1437 1981 2259 2004 1790 1593 1456 1405 1349 1130 984 835 908 1029 751 700 751 754 736 699 916 686 431 292 190 78
0 0 0 0 0 0 0 0 0 0 2 2 0 0 1 0 0 0 0 0 0 0 0 117 1782 2189 2070 1642 1793 1546 1555 1412 1451 1394 1090 1586 938 753 782 592 629 635 553 502 277 580 357 187 48
0 0 0 0 0 0 0 0 0 0 0 0 0 0 1 29 48 62 23 0 0 0 0 0 114 1788 1678 1700 1773 1698 1723 1868 1634 1533 1332 1142 1402 906 878 824 788 687 528 535 433 219 173 299 291
0 0 0 0 0 0 0 0 0 0 0 0 0 9 34 51 66 88 79 52 31 5 4 9 210 728 1331 1451 1905 1807 1966 1801 1674 1574 1570 1534 1325 1215 1104 1093 941 838 640 564 466 319 289 312 194
0 0 0 0 0 0 0 0 0 0 0 0 0 14 21 27 61 109 153 125 185 109 84 121 145 185 248 1028 1349 1635 1545 1587 1528 1579 1658 1592 1682 1280 1329 1184 981 959 853 552 600 454 356 260 188
0 0 0 0 0 0 0 0 0 0 0 0 0 1 40 12 78 120 185 182 173 250 222 223 93 130 268 589 783 796 1257 1336 1518 1804 1413 1465 1526 1421 1187 940 927 934 850 662 877 396 229 319 223
0 0 0 0 0 0 0 0 0 0 0 0 0 0 41 83 95 116 174 246 229 215 340 480 427 371 463 396 946 706 1039 1342 1442 1575 1582 1290 1263 1385 1229 871 848 918 1104 965 1290 805 245 168 126
1 0 16 0 0 0 0 0 0 0 0 0 0 0 0 14 26 85 166 193 264 312 292 251 237 339 359 371 525 609 753 992 1118 1052 1303 1100 1068 1107 1001 872 812 1064 995 841 1110 843 259 182 183
0 0 0 49 0 0 0 0 0 0 0 0 0 0 0 0 1 88 159 258 297 313 280 324 229 157 119 122 103 91 105 221 294 392 665 961 785 920 726 691 673 603 731 582 945 1022 287 183 65
0 0 0 0 0 0 0 0 0 0 0 0 0 0 0 0 2 26 118 124 193 225 306 269 241 235 122 39 29 1 0 0 0 0 1 34 634 538 486 446 443 478 506 517 460 378 371 170 48

GFSSGP_con_mucape_120.txt.gz
CAPE
0 0 0 0 0 0 0 0 0 0 0 0 0 0 0 0 0 0 564 988 935 1483 1999 1889 1521 1555 1594 1610 1580 1763 2102 2270 2161 1954 1891 1961 1932 2016 2119 2139 2196 2022 2334 2266 1849 1959 2415 2323 2041
0 0 0 0 0 0 0 0 0 0 0 0 0 0 0 0 0 0 433 1230 1017 1563 2046 2040 1505 1560 1632 1598 1600 1845 2242 2329 2216 2074 2055 2063 2059 2107 2162 2172 2168 2323 2403 2341 1874 1862 2430 2128 1750
0 0 0 0 0 0 0 0 0 0 0 0 0 0 0 0 0 0 159 1248 1138 1718 2091 2166 1568 1554 1657 1634 1621 1836 2159 2171 2157 2107 2187 2196 2197 2226 2247 2099 2100 2184 2457 2427 1984 1960 2123 1689 1425
0 0 0 0 0 0 0 0 0 0 0 0 0 0 0 0 0 21 841 1303 1275 1755 2125 2013 1608 1559 1670 1731 1735 1850 1934 1975 2017 2083 2207 2300 2317 2350 2193 1987 2141 2400 2511 2431 2151 2211 1777 1338 1239
0 0 0 0 0 0 0 0 0 0 0 0 0 0 0 0 0 0 466 1394 1291 1925 2199 2362 1641 1614 1702 1865 1872 1819 1704 1815 1995 2153 2199 2277 2355 2292 1983 1882 2123 2355 2313 2393 2329 1811 1427 1244 1192
0 0 0 0 0 0 0 0 0 0 0 0 0 0 0 0 0 0 402 1537 1658 2080 2380 2462 1693 1673 1719 1804 1777 1622 1527 1650 1917 2107 2196 2293 2245 1985 1811 1808 1998 2132 2094 2091 1783 1437 1307 1187 1146
0 0 0 0 0 0 0 0 0 0 0 0 0 0 0 0 0 64 779 1574 2027 2315 2553 2609 2413 2066 1690 1737 1660 1474 1419 1574 1797 1965 2120 2152 2045 1724 1597 1679 1828 1911 1859 1806 1506 1266 1110 1124 1089
0 0 0 0 0 0 0 0 0 0 0 0 0 0 0 0 0 0 475 1342 2031 2332 2663 2697 2629 2460 2396 2280 1637 1424 1348 1482 1687 1822 1980 2030 1904 1584 1406 1441 1616 1709 1664 1466 1311 1100 1049 1057 1010
0 0 0 0 0 0 0 0 0 0 0 0 0 0 0 0 0 0 0 264 1591 2105 2215 2525 2498 2204 2478 2410 2153 1514 1313 1394 1595 1720 1885 2029 2027 2056 1706 1376 1418 1491 1401 1123 1042 981 1004 981 929
0 0 0 0 0 0 0 0 0 0 0 0 0 0 0 0 0 0 0 0 340 1622 1859 2072 2076 1920 2186 1924 2264 2296 2044 1890 1956 1988 2230 2141 1995 1963 1622 1245 1144 1166 1021 867 851 896 926 948 1291
0 0 0 0 0 0 0 0 0 0 0 0 0 0 0 0 0 0 0 0 1 463 1505 1576 1437 1639 2080 2082 1885 2085 1996 1931 2131 2229 2233 2312 2330 2171 1867 1793 1396 1486 793 1249 936 1163 1276 1069 1072
0 0 0 0 0 0 0 0 0 0 0 0 0 0 0 0 0 0 0 0 0 10 943 1462 1498 1398 1800 1890 1939 1914 1980 2028 2175 2198 2247 2595 2523 2216 1800 1722 1388 1489 1186 1129 1148 1098 1108 1171 1104
0 0 0 0 0 0 0 0 0 0 0 0 0 0 0 0 0 0 0 0 0 0 69 1200 1467 1378 1197 2032 1784 1723 1745 1885 1932 2132 2569 2349 1911 2056 1947 1779 1481 1411 1137 1254 1172 995 826 843 915
0 0 0 0 0 0 0 0 0 0 0 0 0 0 0 0 0 0 0 0 0 0 0 993 1505 1464 1291 1716 1853 1716 1602 1885 2063 2123 2224 2525 1902 1948 1964 1707 1584 1344 1250 1231 1237 1124 768 675 646
0 0 0 0 0 0 0 0 0 0 0 0 0 0 0 0 0 0 0 0 0 0 0 114 1581 1574 1341 1398 1765 1729 1460 1811 1874 2143 2236 2204 1916 1618 1947 1840 1746 1356 1337 1360 1381 1036 912 819 672
0 0 0 0 0 0 0 0 0 0 0 0 0 0 0 0 0 0 0 0 0 0 0 0 1103 1642 1484 1498 1611 1452 1384 1284 2043 2081 2572 2773 2287 1709 1610 1417 1368 1620 1335 1128 1310 1084 966 933 720
0 0 0 0 0 0 0 0 0 0 0 0 0 0 0 0 0 0 0 0 0 0 0 0 167 1808 1654 1641 1540 1591 1477 1497 1638 1779 1708 1951 2185 2084 1644 1339 1343 1810 1353 881 1149 1054 1097 882 771
0 0 0 0 0 0 0 0 0 0 0 0 0 0 0 0 0 0 0 0 0 0 0 0 10 1975 1873 2009 1706 1458 1472 1421 1468 1705 1796 1491 1786 2287 1891 1469 1528 1258 1480 864 784 669 1080 952 907
0 0 0 0 0 0 0 0 0 0 0 4 1 0 0 0 0 0 0 0 0 0 0 0 0 1046 2264 1792 1524 1403 1505 1408 1428 1546 1618 1738 1572 2406 1987 1814 1688 1101 1099 692 649 755 801 967 919
0 0 0 0 0 0 0 0 0 0 2 25 7 5 0 0 0 0 0 0 7 0 0 0 0 127 2119 2095 1777 1435 1544 1294 1253 1356 1564 1777 1537 1746 1876 1661 1628 1477 1165 952 926 768 878 776 777
0 0 0 0 0 0 0 0 0 0 0 0 0 0 0 0 2 7 37 28 16 0 0 0 181 304 1862 1964 2149 1698 1602 1425 1290 1366 1580 1821 1668 1442 1718 1735 1548 1464 1080 872 745 576 881 562 422
0 0 0 0 0 0 0 0 2 0 0 0 0 0 0 0 0 0 0 2 3 1 0 4 13 1042 2055 1972 2078 1666 1857 1694 1825 1622 1456 1363 1468 1634 1538 1571 1310 1211 1043 984 720 682 1143 774 308
0 0 0 0 0 4 0 0 10 0 0 0 0 0 0 0 1 7 24 20 10 12 0 0 29 1245 1806 1989 2032 1673 2142 2156 2221 2050 1753 1483 1414 1747 1544 1432 1460 1327 1045 981 905 542 572 582 682
0 0 1 2 0 17 0 0 9 0 0 0 0 0 0 0 48 46 61 99 150 106 16 1 229 1150 1826 1809 2130 1745 1416 2230 2491 2092 2138 1675 1518 1315 1448 1768 1452 1273 984 862 916 733 604 597 656
0 25 79 90 186 80 12 6 0 0 0 0 0 0 0 2 23 11 76 142 148 193 235 81 118 1300 1397 1369 1824 1438 1353 1507 2511 2298 2185 1692 1566 1322 1243 1639 1546 1336 1234 976 946 772 885 994 1056
2 20 49 0 120 86 2 7 0 0 0 0 0 0 0 0 0 19 3 96 283 349 457 361 311 342 1194 1303 1518 918 1265 1749 1810 1817 2031 2057 1676 1705 1660 1462 1814 1489 1264 1352 1620 1477 1429 1337 1464
6 30 24 19 31 31 32 0 0 0 0 0 0 0 0 1 12 21 79 164 205 310 379 304 381 410 360 707 583 856 898 982 1183 1152 1307 1366 1724 1475 1625 1459 1544 1244 963 1000 1452 1477 920 1107 1208
21 7 10 89 55 102 46 0 0 0 0 0 0 0 0 0 57 70 118 137 219 399 384 191 249 253 276 464 462 586 690 606 669 924 1243 1344 1323 1404 1606 1427 1403 1318 1005 843 697 913 586 746 1181
23 36 0 12 46 74 78 0 0 0 0 0 0 0 0 0 6 109 141 278 261 258 348 26 204 288 260 259 215 287 412 299 529 742 985 1186 1295 906 795 874 1165 1089 834 697 515 359 423 663 1093
0 0 0 4 36 87 5 0 0 0 0 0 0 0 0 0 0 50 167 246 262 384 292 158 160 66 157 89 40 83 79 109 146 207 348 352 387 575 517 552 661 626 462 523 583 597 383 529 896

GFSSGP_con_mucape_123.txt.gz
CAPE
0 0 0 0 0 0 0 0 0 0 0 0 0 0 0 0 0 0 0 1159 1058 1041 2522 1957 1560 1714 1802 1879 1978 2143 2262 2302 2192 1995 1986 2028 2023 2132 2269 2351 2419 2323 2607 2383 1908 1827 1812 2276 2238
0 0 0 0 0 0 0 0 0 0 0 0 0 0 0 0 0 0 1 355 906 1319 2308 2033 1560 1658 1798 1796 1956 2221 2482 2540 2282 2120 2127 2133 2134 2253 2366 2335 2198 2127 2574 2153 1904 1987 2296 2269 1802
0 0 0 0 0 0 0 0 0 0 0 0 0 0 0 0 0 0 19 854 1346 1491 2153 2211 1580 1597 1750 1736 1895 2214 2453 2388 2258 2145 2290 2257 2277 2376 2397 2220 2030 2160 2293 2177 1952 1869 2405 1740 1492
0 0 0 0 0 0 0 0 0 0 0 0 0 0 0 0 0 0 15 1061 1515 1737 2131 2143 1597 1597 1753 1753 1888 2173 2274 2252 2171 2186 2322 2393 2419 2469 2384 2146 2225 2191 2329 2414 2134 2014 1817 1369 1286
0 0 0 0 0 0 0 0 0 0 0 0 0 0 0 0 0 0 136 577 1544 1753 2211 2566 1707 1606 1780 1899 1961 2060 2075 2150 2128 2214 2295 2382 2455 2451 2211 2052 2205 2347 2389 2378 1990 1853 1465 1232 1191
0 0 0 0 0 0 0 0 0 0 0 0 0 0 0 0 0 0 231 852 1793 1722 2267 3073 1993 1609 1724 1849 1832 1768 1889 2068 2142 2187 2263 2388 2326 2110 2049 2043 2173 2302 2234 2078 1850 1453 1322 1185 1146
0 0 0 0 0 0 0 0 0 0 0 0 0 0 0 0 0 0 0 880 1801 2418 2521 2883 2650 2052 1667 1728 1651 1526 1663 1944 2138 2170 2242 2225 1902 1885 1857 1949 2073 2140 2021 1848 1572 1278 1160 1137 1041
0 0 0 0 0 0 0 0 0 0 0 0 0 0 0 0 0 0 0 0 1396 2395 2936 3067 3110 2650 2331 2140 1616 1425 1443 1694 1980 2077 2128 1998 1829 1738 1693 1731 1871 1933 1914 1756 1424 1128 1048 1036 956
0 0 0 0 0 0 0 0 0 0 0 0 0 0 0 0 0 0 0 0 0 1553 2638 3039 3120 2952 2744 2613 2168 1511 1358 1480 1687 1913 2013 2054 2011 2122 1981 1633 1659 1733 1652 1463 1199 1035 993 958 906
0 0 0 0 0 0 0 0 0 0 0 0 0 0 0 0 0 0 0 0 0 0 1608 2657 2874 2849 2740 2353 2736 2304 2020 1839 1900 1905 2232 2140 1909 2101 1776 1378 1406 1512 1422 1076 962 953 939 934 1249
0 0 0 0 0 0 0 0 0 0 0 0 0 0 0 0 0 0 0 0 0 0 0 2063 2650 2571 2319 2536 2277 2423 2120 1970 2104 2173 2663 2343 2275 2750 1966 2329 1751 1777 1135 1307 937 1087 1272 1028 1352
0 0 0 0 0 0 0 0 0 0 0 0 0 0 0 0 0 0 0 0 0 0 0 86 2130 2154 2193 2419 2138 2101 2031 2126 2033 2106 2499 2816 2633 2499 2031 1847 1831 2123 1517 1480 1064 1038 1031 1320 1511
0 0 0 0 0 0 0 0 0 0 0 0 0 0 0 0 0 0 0 0 0 0 0 0 1077 2191 2124 2337 2194 2240 2361 2059 1927 2076 2614 2854 2540 2594 2016 2280 1860 1809 1685 1542 1378 1482 1499 1259 1289
0 0 0 0 0 0 0 0 0 0 0 0 0 0 0 0 0 0 0 0 0 0 0 0 44 2317 2070 2038 2926 2628 2606 2115 2212 2439 2528 2916 2778 2706 2468 2078 1877 1811 1903 1706 1639 1371 1201 1226 1303
0 0 0 0 0 0 0 0 0 0 0 0 0 0 0 0 0 0 0 0 0 0 0 0 0 1965 2620 2029 2148 2446 2063 2184 2053 2274 2484 2985 2687 2853 2840 2263 2203 1981 1848 1811 1653 1586 1207 1168 1037
0 0 0 0 0 0 0 0 0 0 0 0 0 0 0 0 0 0 0 0 0 0 0 0 0 0 2862 2448 2093 2257 1911 2035 2143 2110 2075 2521 2717 2448 2837 2179 2029 2105 1686 1765 1696 1602 1277 1276 1173
0 0 0 0 0 0 0 0 0 0 0 0 0 0 0 0 0 0 0 0 0 0 0 0 0 0 1263 2490 2240 2593 2498 2108 1807 2026 2014 2273 2357 2267 2379 2018 2097 2419 1842 1921 1717 1623 1565 1190 1137
0 0 0 0 0 0 0 0 0 0 0 0 0 0 0 0 2 4 1 0 0 0 0 0 0 0 0 2590 2353 2058 2037 1889 1732 2005 2152 2189 2137 2432 2253 1923 1844 2072 2011 1364 1692 1818 1586 1542 1125
0 0 0 0 0 0 0 0 0 0 14 0 0 0 0 0 0 0 0 0 0 0 0 0 0 0 0 2120 2337 2295 2085 1996 2020 1721 2231 2087 1887 2613 2400 2124 1752 1880 1917 1431 1420 1612 1707 1424 1527
0 0 0 0 0 0 0 0 0 0 0 0 0 0 0 0 0 0 0 4 35 14 31 49 0 0 0 14 2295 2172 1964 1944 1978 1761 2170 2533 1944 1742 2051 1928 1872 1687 1862 1410 1445 1526 1422 1680 1649
0 0 0 0 0 0 1 0 36 24 0 0 0 0 0 0 0 0 0 0 0 0 0 6 5 20 0 26 1980 1811 2222 1949 1800 1681 1999 2507 2123 1579 2247 1937 1671 1691 1631 1400 1607 1391 1240 1420 1445
0 0 0 0 0 0 0 0 153 0 0 0 0 0 0 0 0 0 0 0 0 0 0 0 2 2 0 37 659 1715 1909 1746 1468 1714 1794 2261 2488 1670 2432 1768 1670 1801 1677 1307 1647 1406 1305 1283 741
0 0 0 0 2 28 29 160 218 0 0 0 0 0 0 0 0 0 0 0 0 0 0 0 0 14 9 0 551 2041 1637 2148 1894 1978 2013 2301 2482 2087 1497 1812 1740 1492 1714 1382 1779 1296 1244 1398 933
0 0 0 46 102 106 145 111 130 0 0 0 0 0 0 0 0 0 0 0 9 3 2 33 23 0 1 4 970 2344 1681 2162 1562 2032 2406 2201 1976 1898 2313 1583 1735 1491 1461 1231 1851 1374 1234 1192 1135
0 10 0 45 47 139 34 86 0 0 0 0 0 0 0 0 0 0 0 0 73 87 68 111 101 17 89 253 882 863 1380 1433 2157 1660 1910 1901 1505 1467 2069 2322 2197 1477 1230 1130 1810 1816 1328 1237 837
0 16 0 0 0 77 47 148 0 0 0 0 0 0 0 0 0 0 0 0 6 55 100 107 154 238 324 202 639 1137 1021 843 946 528 35 1521 1627 1419 1594 1648 1868 1885 1448 1557 1464 1451 1343 1120 847
16 22 69 140 77 290 175 6 0 0 0 0 0 0 0 0 0 0 0 2 107 22 0 153 208 286 265 608 417 766 994 985 478 77 1 1029 1622 1436 1780 1771 1468 1482 1309 1150 1522 1271 1634 1534 1505
4 26 35 113 115 148 134 1 0 0 0 0 0 0 0 0 0 0 0 82 149 1 77 229 309 294 298 464 609 527 755 822 421 15 28 447 890 1199 1366 1675 1667 1148 1371 1683 1621 1399 1158 1316 1135
44 46 41 60 62 119 151 2 0 0 0 0 0 0 0 0 0 0 0 101 165 153 48 172 259 234 294 286 244 308 438 472 28 28 35 261 634 986 1200 1376 1158 1092 999 1227 1293 1309 1294 1115 868
0 15 16 0 28 28 446 0 0 0 0 0 0 0 0 0 0 0 0 9 177 208 220 141 317 145 117 74 128 26 20 0 43 118 154 224 284 537 703 792 1192 763 802 745 1063 933 1070 674 716

GFSSGP_con_mucape_126.txt.gz
CAPE
0 0 0 0 0 0 0 0 0 0 0 0 0 0 0 0 0 0 0 277 872 2408 2010 1695 1635 1841 1928 2080 2149 2222 2263 2254 2173 2034 2071 2071 2097 2194 2247 2251 2304 2546 2748 2409 2066 2029 1876 2199 2064
0 0 0 0 0 0 0 0 0 0 0 0 0 0 0 0 0 0 0 442 1299 1458 2424 2054 1600 1779 1915 1977 2142 2306 2483 2434 2223 2128 2181 2150 2172 2303 2356 2312 2192 2279 2609 2273 1965 1875 2135 2211 1747
0 0 0 0 0 0 0 0 0 0 0 0 0 0 0 0 0 0 97 505 1444 1546 2749 2297 1579 1682 1840 1923 2146 2364 2519 2374 2208 2192 2303 2281 2312 2414 2454 2217 2090 2178 2602 2415 1838 2017 2024 1721 1454
0 0 0 0 0 0 0 0 0 0 0 0 0 0 0 0 0 0 165 476 1684 2043 2680 2139 1689 1582 1752 1880 2128 2375 2379 2256 2135 2204 2358 2413 2461 2525 2442 2134 2068 2173 2397 2422 2118 2051 1802 1362 1248
0 0 0 0 0 0 0 0 0 0 0 0 0 0 0 0 0 0 210 951 1813 2460 2681 2239 2003 1566 1718 1879 2094 2295 2265 2214 2150 2245 2339 2433 2524 2523 2285 2075 2019 2060 2067 2329 1906 1875 1442 1210 1158
0 0 0 0 0 0 0 0 0 0 0 0 0 0 0 0 0 0 0 618 1881 2597 3470 2597 2246 1878 1681 1748 1817 2003 2126 2169 2159 2230 2304 2435 2455 2352 2112 2006 1934 1974 2149 2065 1743 1486 1303 1143 1123
0 0 0 0 0 0 0 0 0 0 0 0 0 0 0 0 0 0 0 0 1803 2836 3784 3205 2710 2013 1680 1682 1594 1713 1928 2096 2136 2174 2239 2302 2256 2106 1982 1990 1897 2097 2017 1832 1541 1272 1145 1103 1055
0 0 0 0 0 0 0 0 0 0 0 0 0 0 0 0 0 0 0 0 0 2490 3334 3675 3109 2357 2145 2002 1583 1484 1691 1986 2128 2114 2156 2169 1934 1867 1889 1851 1829 1987 1811 1709 1381 1100 1032 1010 905
0 0 0 0 0 0 0 0 0 0 0 0 0 0 0 0 0 0 0 0 0 0 1965 3562 3074 2998 2672 2425 1945 1453 1426 1729 2010 2084 2100 2016 2036 1885 1791 1747 1749 1813 1665 1576 1220 993 955 900 831
0 0 0 0 0 0 0 0 0 0 0 0 0 0 0 0 0 0 0 0 0 0 0 3340 3473 2907 3131 2635 2527 1938 1723 1695 1983 2224 2159 2243 2204 2047 1881 1711 1604 1601 1471 1359 1055 932 880 816 866
0 0 0 0 0 0 0 0 0 0 0 0 0 0 0 0 0 0 0 0 0 0 0 0 3401 2766 2478 2904 2879 2372 2057 1786 1819 2042 2282 2284 2096 2048 1582 1530 1446 1439 1335 1075 838 833 832 912 984
0 0 0 0 0 0 0 0 0 0 0 0 0 0 0 0 0 0 0 0 0 0 0 0 476 3017 2693 2542 2397 2778 2281 2060 1992 2067 2283 1977 2112 2130 1897 1756 1662 1614 1234 1253 867 937 934 991 1009
0 0 0 0 0 0 0 0 0 0 0 0 0 0 0 0 0 0 0 0 0 0 0 0 0 2840 2603 2400 2063 2459 2376 2033 1899 2071 2270 2233 2112 2189 1867 1683 1643 1603 1404 1427 938 948 952 1140 888
0 0 0 0 0 0 0 0 0 0 0 0 0 0 0 0 0 0 0 0 0 0 0 0 0 13 2498 2120 1926 2197 1921 2157 2408 2042 2175 2291 2318 2166 1907 1763 1699 1532 1521 1414 1180 1125 1108 1088 884
0 0 0 0 0 0 0 0 0 0 0 0 0 0 0 0 0 0 0 0 0 0 0 0 0 0 391 2465 2173 2004 2183 2238 1726 2532 2159 2324 2564 2298 1941 1831 1850 1629 1515 1435 1319 1209 1106 925 932
0 0 0 0 0 0 0 0 0 0 0 0 0 0 0 0 0 0 0 0 0 0 0 0 0 0 0 1481 2244 1806 1611 2015 1976 2066 2374 2290 2507 2537 2313 1902 1925 1863 1585 1403 1186 1043 950 947 863
0 0 0 0 0 0 0 0 0 0 0 0 0 0 0 0 0 0 0 0 0 0 0 0 0 0 0 0 2105 1764 1620 1914 1954 1613 1530 2303 2508 2332 2324 2155 1851 1930 1576 1379 1155 1128 1104 1027 849
0 0 0 0 0 0 0 0 0 0 0 0 0 0 0 0 0 0 0 0 0 0 0 0 0 0 0 0 753 1830 1574 1346 1753 1792 1862 1942 2163 2227 1867 2003 1966 2039 1554 1267 1422 1309 1269 1185 830
0 0 0 0 0 0 0 0 0 0 0 0 0 0 0 0 0 0 0 0 0 0 0 0 0 0 0 0 314 1401 1447 1107 1522 1578 1932 1947 1904 1981 1707 1598 2037 2017 1834 1659 1567 1546 1417 1372 1194
0 0 0 0 0 0 0 0 0 0 0 0 0 0 0 0 0 0 0 0 0 0 0 0 0 0 0 0 0 313 986 1101 1175 1508 1570 1948 1813 1859 1720 2037 1520 1550 1507 1620 1314 1294 1456 1444 1196
0 0 0 0 0 0 0 0 0 11 1 0 0 0 0 0 0 0 0 0 0 0 0 0 0 0 0 0 0 0 0 894 855 1267 1327 2220 1985 1875 1756 1681 2107 1395 1227 1499 1136 1554 1566 1290 1112
0 0 0 0 0 0 0 0 0 33 4 0 0 0 0 0 0 0 0 0 0 0 0 0 0 0 0 0 0 0 0 312 707 1140 1243 2082 1973 1822 1681 1428 2293 1970 1869 1361 1502 1566 1497 1520 1213
0 0 0 0 0 0 0 12 27 0 0 9 0 0 0 0 0 0 0 0 0 0 0 0 0 0 0 0 3 6 0 340 376 1061 1173 1572 1907 1618 1543 1321 1913 1921 2068 1353 1524 1688 1667 1595 1075
0 0 0 0 0 0 23 20 0 0 0 5 0 0 0 0 0 0 0 0 0 0 0 0 0 0 0 0 0 21 2 67 573 961 890 1296 1817 1631 1363 1154 1290 1705 1835 1490 1366 1790 1529 1438 1129
0 0 0 0 0 0 50 66 0 0 0 0 0 0 0 0 0 0 0 0 0 0 0 0 0 0 0 1 4 14 20 202 669 730 959 1094 1519 1601 1403 1046 1312 1633 1630 1750 1496 1630 1428 1432 1489
0 0 0 0 0 0 15 15 0 0 0 0 0 0 0 0 0 0 0 0 0 0 0 0 0 8 22 0 8 11 7 4 191 335 250 892 1304 1495 1557 1194 933 1630 1545 1499 1212 1533 1584 1435 1091
0 0 14 0 0 0 30 0 0 0 0 0 0 0 0 0 0 0 0 0 0 0 0 0 0 11 10 15 18 60 40 17 436 250 0 247 850 806 896 1291 1538 1389 1346 1087 1069 1151 851 821 712
0 0 0 53 0 0 12 7 1 0 0 0 0 0 0 0 0 0 0 0 0 0 0 0 0 12 26 45 78 38 120 52 61 204 132 55 273 0 376 542 774 1139 1440 1551 1296 1356 978 858 709
1 0 13 28 35 0 0 0 0 0 0 0 0 0 0 0 0 0 0 0 0 0 0 0 7 14 18 151 256 289 253 146 25 82 14 53 52 70 171 434 598 640 739 988 1103 1348 1363 1160 1188
0 0 0 0 0 8 1 0 0 0 0 0 0 0 0 0 0 0 0 0 0 0 0 0 32 53 1 188 283 243 327 162 86 59 160 21 27 9 20 207 440 551 697 795 812 952 1075 1000 961